<?xml version="1.0" encoding="UTF-8" standalone="no" ?>
<gpx xmlns="http://www.topografix.com/GPX/1/1" xmlns:xsi="http://www.w3.org/2001/XMLSchema-instance" xsi:schemaLocation="http://www.topografix.com/GPX/1/1 http://www.topografix.com/GPX/1/1/gpx.xsd" version="1.1" creator="VisuGPX - https://www.visugpx.com">
  <metadata>
    <name>Baronnies Mauvezin</name>
    <desc><![CDATA[Départ du Moulin des Baronnies. Espèche, Prat, Avezac, Vallon de l'Avezaguet, Tilhouse, Capvern, Château de Mauvezin, Bonnemazon.]]></desc>
  </metadata>
  <wpt lat="43.08539" lon="0.28234">
    <ele>351.93</ele>
  </wpt>
  <wpt lat="43.08545" lon="0.28234">
    <ele>348.44</ele>
    <desc><![CDATA[<p><br /><h3>Nom: Segment: 1</h3><br />Type: Indéfini<br/>Heure de départ: 07:55 24 mai 2026<br/>Heure d'arrivée: 11:54 24 mai 2026<br/>Distance: 41,1km (03:59)<br/>Temps déplacement: 03:28<br/>Vitesse moyenne: 10,30 km/h<br/>Vitesse en mouvement: 11,80 km/h<br/>Vitesse Max.: 44,97 km/h<br/>Altitude minimale: 304 m<br/>Altitude maximale: 655 m<br/>Vitesse de montée: 585,2 m/h<br/>Vitesse de descente: 880,3 m/h<br/>Dénivelé positif: 1188 m<br/>Dénivelé négatif: 1193 m<br/>Temps de montée: 02:01<br/>Temps de descente: 01:21<br/></p>]]></desc>
  </wpt>
  <trk>
    <name><![CDATA[Mauvezin]]></name>
    <desc><![CDATA[<p>Type: VTT<br/>Heure de départ: 07:55 24 mai 2026<br/>Heure d'arrivée: 11:54 24 mai 2026<br/>Distance: 41,1 km (03:59)<br/>Temps déplacement: 03:28<br/>Vitesse moyenne: 10,30 km/h<br/>Vitesse en mouvement: 11,80 km/h<br/>Vitesse Max.: 44,97 km/h<br/>Altitude minimale: 304 m<br/>Altitude maximale: 655 m<br/>Vitesse de montée: 585,2 m/h<br/>Vitesse de descente: 880,3 m/h<br/>Dénivelé positif: 1188 m<br/>Dénivelé négatif: 1193 m<br/>Temps de montée: 02:01<br/>Temps de descente: 01:21<br/></p><hr align="center" width="480" style="height: 2px; width: 517px"/>]]></desc>
    <extensions>
      <line xmlns="http://www.topografix.com/GPX/gpx_style/0/2">
        <color>0000FF</color>
        <width>4</width>
      </line>
    </extensions>
    <trkseg>
      <trkpt lat="43.08539" lon="0.28234">
        <ele>351.93</ele>
        <time>2026-05-24T05:55:12.817Z</time>
      </trkpt>
      <trkpt lat="43.08529" lon="0.28255">
        <ele>348.2</ele>
        <time>2026-05-24T05:56:47.000Z</time>
      </trkpt>
      <trkpt lat="43.08504" lon="0.28229">
        <ele>347.68</ele>
        <time>2026-05-24T05:56:52.000Z</time>
      </trkpt>
      <trkpt lat="43.08484" lon="0.28216">
        <ele>350.45</ele>
        <time>2026-05-24T05:56:57.000Z</time>
      </trkpt>
      <trkpt lat="43.08465" lon="0.28208">
        <ele>350.99</ele>
        <time>2026-05-24T05:57:01.000Z</time>
      </trkpt>
      <trkpt lat="43.08446" lon="0.28196">
        <ele>350.95</ele>
        <time>2026-05-24T05:57:06.000Z</time>
      </trkpt>
      <trkpt lat="43.08428" lon="0.28191">
        <ele>352.73</ele>
        <time>2026-05-24T05:57:11.000Z</time>
      </trkpt>
      <trkpt lat="43.0841" lon="0.28201">
        <ele>357.31</ele>
        <time>2026-05-24T05:57:19.000Z</time>
      </trkpt>
      <trkpt lat="43.08396" lon="0.28219">
        <ele>360.5</ele>
        <time>2026-05-24T05:57:32.000Z</time>
      </trkpt>
      <trkpt lat="43.08381" lon="0.28235">
        <ele>365.47</ele>
        <time>2026-05-24T05:57:47.000Z</time>
      </trkpt>
      <trkpt lat="43.08366" lon="0.28252">
        <ele>372.41</ele>
        <time>2026-05-24T05:58:00.000Z</time>
      </trkpt>
      <trkpt lat="43.08354" lon="0.28271">
        <ele>374.1</ele>
        <time>2026-05-24T05:58:08.000Z</time>
      </trkpt>
      <trkpt lat="43.08341" lon="0.28296">
        <ele>377</ele>
        <time>2026-05-24T05:58:15.000Z</time>
      </trkpt>
      <trkpt lat="43.08332" lon="0.2832">
        <ele>376.73</ele>
        <time>2026-05-24T05:58:19.000Z</time>
      </trkpt>
      <trkpt lat="43.08322" lon="0.28341">
        <ele>376.21</ele>
        <time>2026-05-24T05:58:22.000Z</time>
      </trkpt>
      <trkpt lat="43.08309" lon="0.28368">
        <ele>374.41</ele>
        <time>2026-05-24T05:58:25.000Z</time>
      </trkpt>
      <trkpt lat="43.08298" lon="0.28394">
        <ele>372.29</ele>
        <time>2026-05-24T05:58:27.000Z</time>
      </trkpt>
      <trkpt lat="43.08286" lon="0.28412">
        <ele>369.83</ele>
        <time>2026-05-24T05:58:30.000Z</time>
      </trkpt>
      <trkpt lat="43.08277" lon="0.2844">
        <ele>372.45</ele>
        <time>2026-05-24T05:58:34.000Z</time>
      </trkpt>
      <trkpt lat="43.08265" lon="0.2846">
        <ele>371.17</ele>
        <time>2026-05-24T05:58:37.000Z</time>
      </trkpt>
      <trkpt lat="43.08249" lon="0.28486">
        <ele>368.61</ele>
        <time>2026-05-24T05:58:41.000Z</time>
      </trkpt>
      <trkpt lat="43.08239" lon="0.2851">
        <ele>370.59</ele>
        <time>2026-05-24T05:58:45.000Z</time>
      </trkpt>
      <trkpt lat="43.08227" lon="0.2853">
        <ele>370.1</ele>
        <time>2026-05-24T05:58:48.000Z</time>
      </trkpt>
      <trkpt lat="43.08215" lon="0.2856">
        <ele>368.98</ele>
        <time>2026-05-24T05:58:52.000Z</time>
      </trkpt>
      <trkpt lat="43.08211" lon="0.28591">
        <ele>366.84</ele>
        <time>2026-05-24T05:58:56.000Z</time>
      </trkpt>
      <trkpt lat="43.08199" lon="0.28612">
        <ele>366.55</ele>
        <time>2026-05-24T05:59:00.000Z</time>
      </trkpt>
      <trkpt lat="43.08183" lon="0.28629">
        <ele>366.54</ele>
        <time>2026-05-24T05:59:04.000Z</time>
      </trkpt>
      <trkpt lat="43.0817" lon="0.28648">
        <ele>365.76</ele>
        <time>2026-05-24T05:59:08.000Z</time>
      </trkpt>
      <trkpt lat="43.08158" lon="0.28668">
        <ele>368.13</ele>
        <time>2026-05-24T05:59:13.000Z</time>
      </trkpt>
      <trkpt lat="43.08144" lon="0.28686">
        <ele>367.21</ele>
        <time>2026-05-24T05:59:18.000Z</time>
      </trkpt>
      <trkpt lat="43.08129" lon="0.28705">
        <ele>370.76</ele>
        <time>2026-05-24T05:59:23.000Z</time>
      </trkpt>
      <trkpt lat="43.0812" lon="0.28727">
        <ele>372.98</ele>
        <time>2026-05-24T05:59:28.000Z</time>
      </trkpt>
      <trkpt lat="43.0811" lon="0.28747">
        <ele>376.63</ele>
        <time>2026-05-24T05:59:33.000Z</time>
      </trkpt>
      <trkpt lat="43.08097" lon="0.28766">
        <ele>372.25</ele>
        <time>2026-05-24T05:59:38.000Z</time>
      </trkpt>
      <trkpt lat="43.08078" lon="0.28776">
        <ele>372.67</ele>
        <time>2026-05-24T05:59:44.000Z</time>
      </trkpt>
      <trkpt lat="43.08061" lon="0.28788">
        <ele>370.5</ele>
        <time>2026-05-24T05:59:53.000Z</time>
      </trkpt>
      <trkpt lat="43.08046" lon="0.28801">
        <ele>368.92</ele>
        <time>2026-05-24T06:00:00.000Z</time>
      </trkpt>
      <trkpt lat="43.08027" lon="0.28805">
        <ele>368.92</ele>
        <time>2026-05-24T06:00:06.000Z</time>
      </trkpt>
      <trkpt lat="43.08009" lon="0.28807">
        <ele>368.28</ele>
        <time>2026-05-24T06:00:10.000Z</time>
      </trkpt>
      <trkpt lat="43.07997" lon="0.28826">
        <ele>367.73</ele>
        <time>2026-05-24T06:00:14.000Z</time>
      </trkpt>
      <trkpt lat="43.0798" lon="0.28839">
        <ele>365.95</ele>
        <time>2026-05-24T06:00:18.000Z</time>
      </trkpt>
      <trkpt lat="43.07958" lon="0.28844">
        <ele>366.98</ele>
        <time>2026-05-24T06:00:22.000Z</time>
      </trkpt>
      <trkpt lat="43.07939" lon="0.28853">
        <ele>366.75</ele>
        <time>2026-05-24T06:00:26.000Z</time>
      </trkpt>
      <trkpt lat="43.07921" lon="0.28862">
        <ele>368.68</ele>
        <time>2026-05-24T06:00:30.000Z</time>
      </trkpt>
      <trkpt lat="43.07901" lon="0.2887">
        <ele>370.65</ele>
        <time>2026-05-24T06:00:34.000Z</time>
      </trkpt>
      <trkpt lat="43.07882" lon="0.28877">
        <ele>369.45</ele>
        <time>2026-05-24T06:00:38.000Z</time>
      </trkpt>
      <trkpt lat="43.07863" lon="0.28881">
        <ele>371.1</ele>
        <time>2026-05-24T06:00:49.000Z</time>
      </trkpt>
      <trkpt lat="43.07845" lon="0.28879">
        <ele>374.83</ele>
        <time>2026-05-24T06:00:57.000Z</time>
      </trkpt>
      <trkpt lat="43.07827" lon="0.2887">
        <ele>375.56</ele>
        <time>2026-05-24T06:01:04.000Z</time>
      </trkpt>
      <trkpt lat="43.07809" lon="0.28862">
        <ele>371.23</ele>
        <time>2026-05-24T06:01:11.000Z</time>
      </trkpt>
      <trkpt lat="43.07789" lon="0.28854">
        <ele>370.99</ele>
        <time>2026-05-24T06:01:16.000Z</time>
      </trkpt>
      <trkpt lat="43.0777" lon="0.2885">
        <ele>373.13</ele>
        <time>2026-05-24T06:01:20.000Z</time>
      </trkpt>
      <trkpt lat="43.07752" lon="0.28849">
        <ele>372.22</ele>
        <time>2026-05-24T06:01:24.000Z</time>
      </trkpt>
      <trkpt lat="43.07731" lon="0.28848">
        <ele>372.34</ele>
        <time>2026-05-24T06:01:29.000Z</time>
      </trkpt>
      <trkpt lat="43.07711" lon="0.28846">
        <ele>371.75</ele>
        <time>2026-05-24T06:01:34.000Z</time>
      </trkpt>
      <trkpt lat="43.07689" lon="0.28842">
        <ele>376.17</ele>
        <time>2026-05-24T06:01:39.000Z</time>
      </trkpt>
      <trkpt lat="43.07671" lon="0.28835">
        <ele>379.54</ele>
        <time>2026-05-24T06:01:44.000Z</time>
      </trkpt>
      <trkpt lat="43.07653" lon="0.28835">
        <ele>380.99</ele>
        <time>2026-05-24T06:01:50.000Z</time>
      </trkpt>
      <trkpt lat="43.07632" lon="0.28841">
        <ele>380.98</ele>
        <time>2026-05-24T06:01:56.000Z</time>
      </trkpt>
      <trkpt lat="43.07612" lon="0.28845">
        <ele>384.49</ele>
        <time>2026-05-24T06:02:03.000Z</time>
      </trkpt>
      <trkpt lat="43.07593" lon="0.28849">
        <ele>382.79</ele>
        <time>2026-05-24T06:02:11.000Z</time>
      </trkpt>
      <trkpt lat="43.07575" lon="0.28857">
        <ele>381.75</ele>
        <time>2026-05-24T06:02:17.000Z</time>
      </trkpt>
      <trkpt lat="43.0756" lon="0.28874">
        <ele>385.72</ele>
        <time>2026-05-24T06:02:25.000Z</time>
      </trkpt>
      <trkpt lat="43.07545" lon="0.28892">
        <ele>385.91</ele>
        <time>2026-05-24T06:02:34.000Z</time>
      </trkpt>
      <trkpt lat="43.07538" lon="0.28918">
        <ele>389.98</ele>
        <time>2026-05-24T06:02:41.000Z</time>
      </trkpt>
      <trkpt lat="43.07534" lon="0.28945">
        <ele>391.9</ele>
        <time>2026-05-24T06:02:48.000Z</time>
      </trkpt>
      <trkpt lat="43.07526" lon="0.28967">
        <ele>394.63</ele>
        <time>2026-05-24T06:02:58.000Z</time>
      </trkpt>
      <trkpt lat="43.07525" lon="0.28995">
        <ele>395.05</ele>
        <time>2026-05-24T06:03:07.000Z</time>
      </trkpt>
      <trkpt lat="43.07532" lon="0.29018">
        <ele>392.61</ele>
        <time>2026-05-24T06:03:14.000Z</time>
      </trkpt>
      <trkpt lat="43.07536" lon="0.29045">
        <ele>395.59</ele>
        <time>2026-05-24T06:03:22.000Z</time>
      </trkpt>
      <trkpt lat="43.07539" lon="0.29071">
        <ele>396.43</ele>
        <time>2026-05-24T06:03:29.000Z</time>
      </trkpt>
      <trkpt lat="43.07537" lon="0.291">
        <ele>397.7</ele>
        <time>2026-05-24T06:03:35.000Z</time>
      </trkpt>
      <trkpt lat="43.07532" lon="0.29127">
        <ele>397.9</ele>
        <time>2026-05-24T06:03:39.000Z</time>
      </trkpt>
      <trkpt lat="43.07516" lon="0.29173">
        <ele>390.66</ele>
        <time>2026-05-24T06:03:40.000Z</time>
      </trkpt>
      <trkpt lat="43.07497" lon="0.29192">
        <ele>366.6</ele>
        <time>2026-05-24T06:03:43.000Z</time>
      </trkpt>
      <trkpt lat="43.07482" lon="0.29211">
        <ele>367.3</ele>
        <time>2026-05-24T06:03:46.000Z</time>
      </trkpt>
      <trkpt lat="43.07465" lon="0.29226">
        <ele>385.53</ele>
        <time>2026-05-24T06:03:55.000Z</time>
      </trkpt>
      <trkpt lat="43.07447" lon="0.29233">
        <ele>386.55</ele>
        <time>2026-05-24T06:04:07.000Z</time>
      </trkpt>
      <trkpt lat="43.07429" lon="0.2924">
        <ele>389.62</ele>
        <time>2026-05-24T06:04:18.000Z</time>
      </trkpt>
      <trkpt lat="43.07409" lon="0.2925">
        <ele>389.44</ele>
        <time>2026-05-24T06:04:22.000Z</time>
      </trkpt>
      <trkpt lat="43.0739" lon="0.29249">
        <ele>387.74</ele>
        <time>2026-05-24T06:04:26.000Z</time>
      </trkpt>
      <trkpt lat="43.07372" lon="0.29239">
        <ele>387.86</ele>
        <time>2026-05-24T06:04:30.000Z</time>
      </trkpt>
      <trkpt lat="43.07355" lon="0.29226">
        <ele>383.13</ele>
        <time>2026-05-24T06:04:41.000Z</time>
      </trkpt>
      <trkpt lat="43.07339" lon="0.29214">
        <ele>385.6</ele>
        <time>2026-05-24T06:04:53.000Z</time>
      </trkpt>
      <trkpt lat="43.07321" lon="0.2921">
        <ele>384.09</ele>
        <time>2026-05-24T06:04:59.000Z</time>
      </trkpt>
      <trkpt lat="43.07301" lon="0.29203">
        <ele>381.33</ele>
        <time>2026-05-24T06:05:04.000Z</time>
      </trkpt>
      <trkpt lat="43.07281" lon="0.29202">
        <ele>381.52</ele>
        <time>2026-05-24T06:05:09.000Z</time>
      </trkpt>
      <trkpt lat="43.07262" lon="0.29201">
        <ele>382.82</ele>
        <time>2026-05-24T06:05:16.000Z</time>
      </trkpt>
      <trkpt lat="43.07243" lon="0.29198">
        <ele>378.46</ele>
        <time>2026-05-24T06:05:22.000Z</time>
      </trkpt>
      <trkpt lat="43.07224" lon="0.29192">
        <ele>375.97</ele>
        <time>2026-05-24T06:05:29.000Z</time>
      </trkpt>
      <trkpt lat="43.07205" lon="0.29191">
        <ele>378.46</ele>
        <time>2026-05-24T06:05:35.000Z</time>
      </trkpt>
      <trkpt lat="43.07186" lon="0.29187">
        <ele>380.83</ele>
        <time>2026-05-24T06:05:41.000Z</time>
      </trkpt>
      <trkpt lat="43.07167" lon="0.29185">
        <ele>391.69</ele>
        <time>2026-05-24T06:05:55.000Z</time>
      </trkpt>
      <trkpt lat="43.07148" lon="0.29188">
        <ele>394.27</ele>
        <time>2026-05-24T06:06:10.000Z</time>
      </trkpt>
      <trkpt lat="43.07129" lon="0.29199">
        <ele>393.96</ele>
        <time>2026-05-24T06:06:20.000Z</time>
      </trkpt>
      <trkpt lat="43.07111" lon="0.29201">
        <ele>397.27</ele>
        <time>2026-05-24T06:06:29.000Z</time>
      </trkpt>
      <trkpt lat="43.07092" lon="0.29209">
        <ele>397.31</ele>
        <time>2026-05-24T06:06:37.000Z</time>
      </trkpt>
      <trkpt lat="43.07072" lon="0.29218">
        <ele>397.36</ele>
        <time>2026-05-24T06:06:42.000Z</time>
      </trkpt>
      <trkpt lat="43.07053" lon="0.29224">
        <ele>400</ele>
        <time>2026-05-24T06:06:48.000Z</time>
      </trkpt>
      <trkpt lat="43.07032" lon="0.29237">
        <ele>400.46</ele>
        <time>2026-05-24T06:06:53.000Z</time>
      </trkpt>
      <trkpt lat="43.07014" lon="0.29245">
        <ele>398.93</ele>
        <time>2026-05-24T06:07:01.000Z</time>
      </trkpt>
      <trkpt lat="43.06994" lon="0.29258">
        <ele>396.96</ele>
        <time>2026-05-24T06:07:06.000Z</time>
      </trkpt>
      <trkpt lat="43.06973" lon="0.29256">
        <ele>396.35</ele>
        <time>2026-05-24T06:07:10.000Z</time>
      </trkpt>
      <trkpt lat="43.06956" lon="0.29245">
        <ele>394.3</ele>
        <time>2026-05-24T06:07:15.000Z</time>
      </trkpt>
      <trkpt lat="43.06937" lon="0.29238">
        <ele>388.49</ele>
        <time>2026-05-24T06:07:22.000Z</time>
      </trkpt>
      <trkpt lat="43.06918" lon="0.29236">
        <ele>394.75</ele>
        <time>2026-05-24T06:07:30.000Z</time>
      </trkpt>
      <trkpt lat="43.06896" lon="0.29236">
        <ele>396.29</ele>
        <time>2026-05-24T06:07:36.000Z</time>
      </trkpt>
      <trkpt lat="43.06876" lon="0.29236">
        <ele>391.73</ele>
        <time>2026-05-24T06:07:42.000Z</time>
      </trkpt>
      <trkpt lat="43.06855" lon="0.29237">
        <ele>389.53</ele>
        <time>2026-05-24T06:07:47.000Z</time>
      </trkpt>
      <trkpt lat="43.06836" lon="0.29238">
        <ele>388.37</ele>
        <time>2026-05-24T06:07:52.000Z</time>
      </trkpt>
      <trkpt lat="43.06818" lon="0.29234">
        <ele>385.19</ele>
        <time>2026-05-24T06:08:01.000Z</time>
      </trkpt>
      <trkpt lat="43.06801" lon="0.29244">
        <ele>387.51</ele>
        <time>2026-05-24T06:08:13.000Z</time>
      </trkpt>
      <trkpt lat="43.06803" lon="0.29271">
        <ele>386.21</ele>
        <time>2026-05-24T06:08:21.000Z</time>
      </trkpt>
      <trkpt lat="43.06805" lon="0.29295">
        <ele>383.05</ele>
        <time>2026-05-24T06:08:28.000Z</time>
      </trkpt>
      <trkpt lat="43.06807" lon="0.29314">
        <ele>373.5</ele>
        <time>2026-05-24T06:08:40.000Z</time>
      </trkpt>
      <trkpt lat="43.06774" lon="0.29312">
        <ele>381.7</ele>
        <time>2026-05-24T06:08:48.000Z</time>
      </trkpt>
      <trkpt lat="43.06755" lon="0.29307">
        <ele>385.78</ele>
        <time>2026-05-24T06:08:59.000Z</time>
      </trkpt>
      <trkpt lat="43.06737" lon="0.29304">
        <ele>386.09</ele>
        <time>2026-05-24T06:09:08.000Z</time>
      </trkpt>
      <trkpt lat="43.06718" lon="0.29307">
        <ele>388.99</ele>
        <time>2026-05-24T06:09:20.000Z</time>
      </trkpt>
      <trkpt lat="43.067" lon="0.2931">
        <ele>388.45</ele>
        <time>2026-05-24T06:09:25.000Z</time>
      </trkpt>
      <trkpt lat="43.06681" lon="0.29317">
        <ele>388.52</ele>
        <time>2026-05-24T06:09:33.000Z</time>
      </trkpt>
      <trkpt lat="43.06663" lon="0.29326">
        <ele>389.44</ele>
        <time>2026-05-24T06:09:41.000Z</time>
      </trkpt>
      <trkpt lat="43.06643" lon="0.2933">
        <ele>391.96</ele>
        <time>2026-05-24T06:09:49.000Z</time>
      </trkpt>
      <trkpt lat="43.06625" lon="0.29333">
        <ele>392.69</ele>
        <time>2026-05-24T06:09:57.000Z</time>
      </trkpt>
      <trkpt lat="43.06605" lon="0.29337">
        <ele>394.97</ele>
        <time>2026-05-24T06:10:05.000Z</time>
      </trkpt>
      <trkpt lat="43.06588" lon="0.29341">
        <ele>394.93</ele>
        <time>2026-05-24T06:10:13.000Z</time>
      </trkpt>
      <trkpt lat="43.06571" lon="0.29359">
        <ele>394.47</ele>
        <time>2026-05-24T06:10:21.000Z</time>
      </trkpt>
      <trkpt lat="43.06552" lon="0.29372">
        <ele>389</ele>
        <time>2026-05-24T06:10:28.000Z</time>
      </trkpt>
      <trkpt lat="43.06539" lon="0.29387">
        <ele>391.2</ele>
        <time>2026-05-24T06:10:35.000Z</time>
      </trkpt>
      <trkpt lat="43.06524" lon="0.29405">
        <ele>396.27</ele>
        <time>2026-05-24T06:10:44.000Z</time>
      </trkpt>
      <trkpt lat="43.06497" lon="0.29414">
        <ele>394.2</ele>
        <time>2026-05-24T06:10:53.000Z</time>
      </trkpt>
      <trkpt lat="43.06503" lon="0.29383">
        <ele>401.88</ele>
        <time>2026-05-24T06:11:02.000Z</time>
      </trkpt>
      <trkpt lat="43.06506" lon="0.29358">
        <ele>403.3</ele>
        <time>2026-05-24T06:11:11.000Z</time>
      </trkpt>
      <trkpt lat="43.06501" lon="0.29334">
        <ele>403.7</ele>
        <time>2026-05-24T06:11:18.000Z</time>
      </trkpt>
      <trkpt lat="43.06485" lon="0.29322">
        <ele>406.14</ele>
        <time>2026-05-24T06:11:27.000Z</time>
      </trkpt>
      <trkpt lat="43.06466" lon="0.29321">
        <ele>405.82</ele>
        <time>2026-05-24T06:11:35.000Z</time>
      </trkpt>
      <trkpt lat="43.06448" lon="0.29322">
        <ele>409.54</ele>
        <time>2026-05-24T06:11:45.000Z</time>
      </trkpt>
      <trkpt lat="43.06429" lon="0.2932">
        <ele>412.99</ele>
        <time>2026-05-24T06:11:54.000Z</time>
      </trkpt>
      <trkpt lat="43.06411" lon="0.29324">
        <ele>414.1</ele>
        <time>2026-05-24T06:12:02.000Z</time>
      </trkpt>
      <trkpt lat="43.06391" lon="0.29327">
        <ele>413.3</ele>
        <time>2026-05-24T06:12:11.000Z</time>
      </trkpt>
      <trkpt lat="43.06371" lon="0.2933">
        <ele>414.84</ele>
        <time>2026-05-24T06:12:19.000Z</time>
      </trkpt>
      <trkpt lat="43.0635" lon="0.29336">
        <ele>407.3</ele>
        <time>2026-05-24T06:12:28.000Z</time>
      </trkpt>
      <trkpt lat="43.0633" lon="0.29339">
        <ele>410.7</ele>
        <time>2026-05-24T06:12:37.000Z</time>
      </trkpt>
      <trkpt lat="43.0631" lon="0.29327">
        <ele>411</ele>
        <time>2026-05-24T06:12:50.000Z</time>
      </trkpt>
      <trkpt lat="43.06298" lon="0.29309">
        <ele>420.11</ele>
        <time>2026-05-24T06:13:01.000Z</time>
      </trkpt>
      <trkpt lat="43.06279" lon="0.29311">
        <ele>420.22</ele>
        <time>2026-05-24T06:13:11.000Z</time>
      </trkpt>
      <trkpt lat="43.0626" lon="0.29312">
        <ele>422.42</ele>
        <time>2026-05-24T06:13:20.000Z</time>
      </trkpt>
      <trkpt lat="43.06241" lon="0.29314">
        <ele>423.17</ele>
        <time>2026-05-24T06:13:29.000Z</time>
      </trkpt>
      <trkpt lat="43.06222" lon="0.29315">
        <ele>423.9</ele>
        <time>2026-05-24T06:13:39.000Z</time>
      </trkpt>
      <trkpt lat="43.06203" lon="0.29317">
        <ele>424.7</ele>
        <time>2026-05-24T06:13:49.000Z</time>
      </trkpt>
      <trkpt lat="43.06183" lon="0.29317">
        <ele>426.93</ele>
        <time>2026-05-24T06:14:00.000Z</time>
      </trkpt>
      <trkpt lat="43.06165" lon="0.29316">
        <ele>427.88</ele>
        <time>2026-05-24T06:14:10.000Z</time>
      </trkpt>
      <trkpt lat="43.06146" lon="0.29313">
        <ele>430.36</ele>
        <time>2026-05-24T06:14:21.000Z</time>
      </trkpt>
      <trkpt lat="43.06128" lon="0.29314">
        <ele>431.69</ele>
        <time>2026-05-24T06:14:31.000Z</time>
      </trkpt>
      <trkpt lat="43.06109" lon="0.29321">
        <ele>432.97</ele>
        <time>2026-05-24T06:14:42.000Z</time>
      </trkpt>
      <trkpt lat="43.06093" lon="0.29334">
        <ele>434.77</ele>
        <time>2026-05-24T06:14:51.000Z</time>
      </trkpt>
      <trkpt lat="43.0608" lon="0.29351">
        <ele>435.67</ele>
        <time>2026-05-24T06:15:00.000Z</time>
      </trkpt>
      <trkpt lat="43.06067" lon="0.29369">
        <ele>436.92</ele>
        <time>2026-05-24T06:15:09.000Z</time>
      </trkpt>
      <trkpt lat="43.06051" lon="0.29383">
        <ele>438.4</ele>
        <time>2026-05-24T06:15:18.000Z</time>
      </trkpt>
      <trkpt lat="43.06036" lon="0.29399">
        <ele>439.9</ele>
        <time>2026-05-24T06:15:27.000Z</time>
      </trkpt>
      <trkpt lat="43.06018" lon="0.29411">
        <ele>442.08</ele>
        <time>2026-05-24T06:15:35.000Z</time>
      </trkpt>
      <trkpt lat="43.06005" lon="0.29429">
        <ele>439.89</ele>
        <time>2026-05-24T06:15:44.000Z</time>
      </trkpt>
      <trkpt lat="43.05993" lon="0.29447">
        <ele>442.97</ele>
        <time>2026-05-24T06:15:52.000Z</time>
      </trkpt>
      <trkpt lat="43.05979" lon="0.29463">
        <ele>443.38</ele>
        <time>2026-05-24T06:16:00.000Z</time>
      </trkpt>
      <trkpt lat="43.05963" lon="0.29477">
        <ele>445.21</ele>
        <time>2026-05-24T06:16:08.000Z</time>
      </trkpt>
      <trkpt lat="43.05944" lon="0.29483">
        <ele>448.3</ele>
        <time>2026-05-24T06:16:17.000Z</time>
      </trkpt>
      <trkpt lat="43.05924" lon="0.29484">
        <ele>449.41</ele>
        <time>2026-05-24T06:16:26.000Z</time>
      </trkpt>
      <trkpt lat="43.05919" lon="0.29509">
        <ele>451.91</ele>
        <time>2026-05-24T06:16:36.000Z</time>
      </trkpt>
      <trkpt lat="43.05921" lon="0.29534">
        <ele>454.28</ele>
        <time>2026-05-24T06:16:48.000Z</time>
      </trkpt>
      <trkpt lat="43.05917" lon="0.2956">
        <ele>458.95</ele>
        <time>2026-05-24T06:17:01.000Z</time>
      </trkpt>
      <trkpt lat="43.05921" lon="0.29586">
        <ele>459.15</ele>
        <time>2026-05-24T06:17:12.000Z</time>
      </trkpt>
      <trkpt lat="43.05928" lon="0.29608">
        <ele>459.17</ele>
        <time>2026-05-24T06:17:23.000Z</time>
      </trkpt>
      <trkpt lat="43.05937" lon="0.29631">
        <ele>461.03</ele>
        <time>2026-05-24T06:18:53.000Z</time>
      </trkpt>
      <trkpt lat="43.05945" lon="0.29654">
        <ele>463.92</ele>
        <time>2026-05-24T06:19:08.000Z</time>
      </trkpt>
      <trkpt lat="43.05957" lon="0.29674">
        <ele>466.96</ele>
        <time>2026-05-24T06:19:26.000Z</time>
      </trkpt>
      <trkpt lat="43.05964" lon="0.29698">
        <ele>470.81</ele>
        <time>2026-05-24T06:19:46.000Z</time>
      </trkpt>
      <trkpt lat="43.05959" lon="0.29723">
        <ele>472.89</ele>
        <time>2026-05-24T06:20:01.000Z</time>
      </trkpt>
      <trkpt lat="43.05956" lon="0.29748">
        <ele>475.81</ele>
        <time>2026-05-24T06:20:16.000Z</time>
      </trkpt>
      <trkpt lat="43.05951" lon="0.29772">
        <ele>477.27</ele>
        <time>2026-05-24T06:20:30.000Z</time>
      </trkpt>
      <trkpt lat="43.05949" lon="0.29798">
        <ele>477.61</ele>
        <time>2026-05-24T06:20:43.000Z</time>
      </trkpt>
      <trkpt lat="43.05948" lon="0.29823">
        <ele>480.5</ele>
        <time>2026-05-24T06:20:58.000Z</time>
      </trkpt>
      <trkpt lat="43.05934" lon="0.2984">
        <ele>483.23</ele>
        <time>2026-05-24T06:21:13.000Z</time>
      </trkpt>
      <trkpt lat="43.05937" lon="0.29866">
        <ele>486.76</ele>
        <time>2026-05-24T06:21:29.000Z</time>
      </trkpt>
      <trkpt lat="43.05948" lon="0.29885">
        <ele>492.9</ele>
        <time>2026-05-24T06:21:52.000Z</time>
      </trkpt>
      <trkpt lat="43.05935" lon="0.29902">
        <ele>497.9</ele>
        <time>2026-05-24T06:23:11.000Z</time>
      </trkpt>
      <trkpt lat="43.0592" lon="0.29916">
        <ele>498.84</ele>
        <time>2026-05-24T06:23:27.000Z</time>
      </trkpt>
      <trkpt lat="43.05936" lon="0.29931">
        <ele>506.07</ele>
        <time>2026-05-24T06:23:50.000Z</time>
      </trkpt>
      <trkpt lat="43.05953" lon="0.29939">
        <ele>508.06</ele>
        <time>2026-05-24T06:24:24.000Z</time>
      </trkpt>
      <trkpt lat="43.05965" lon="0.2996">
        <ele>510.89</ele>
        <time>2026-05-24T06:24:36.000Z</time>
      </trkpt>
      <trkpt lat="43.05978" lon="0.29976">
        <ele>512.81</ele>
        <time>2026-05-24T06:24:52.000Z</time>
      </trkpt>
      <trkpt lat="43.05995" lon="0.29988">
        <ele>516.64</ele>
        <time>2026-05-24T06:25:14.000Z</time>
      </trkpt>
      <trkpt lat="43.0601" lon="0.29974">
        <ele>524.16</ele>
        <time>2026-05-24T06:25:34.000Z</time>
      </trkpt>
      <trkpt lat="43.06026" lon="0.29962">
        <ele>527.42</ele>
        <time>2026-05-24T06:25:55.000Z</time>
      </trkpt>
      <trkpt lat="43.0604" lon="0.29946">
        <ele>532.37</ele>
        <time>2026-05-24T06:26:14.000Z</time>
      </trkpt>
      <trkpt lat="43.06057" lon="0.29939">
        <ele>535.25</ele>
        <time>2026-05-24T06:26:33.000Z</time>
      </trkpt>
      <trkpt lat="43.06076" lon="0.29936">
        <ele>539.5</ele>
        <time>2026-05-24T06:26:52.000Z</time>
      </trkpt>
      <trkpt lat="43.06094" lon="0.29935">
        <ele>540.22</ele>
        <time>2026-05-24T06:27:13.000Z</time>
      </trkpt>
      <trkpt lat="43.06113" lon="0.2993">
        <ele>547.62</ele>
        <time>2026-05-24T06:27:33.000Z</time>
      </trkpt>
      <trkpt lat="43.061" lon="0.29949">
        <ele>546.2</ele>
        <time>2026-05-24T06:27:57.000Z</time>
      </trkpt>
      <trkpt lat="43.06087" lon="0.29969">
        <ele>545.51</ele>
        <time>2026-05-24T06:28:03.000Z</time>
      </trkpt>
      <trkpt lat="43.06074" lon="0.29986">
        <ele>544.63</ele>
        <time>2026-05-24T06:28:15.000Z</time>
      </trkpt>
      <trkpt lat="43.06069" lon="0.3001">
        <ele>545.77</ele>
        <time>2026-05-24T06:31:15.000Z</time>
      </trkpt>
      <trkpt lat="43.06058" lon="0.3003">
        <ele>546.02</ele>
        <time>2026-05-24T06:31:27.000Z</time>
      </trkpt>
      <trkpt lat="43.06054" lon="0.30055">
        <ele>546.95</ele>
        <time>2026-05-24T06:31:39.000Z</time>
      </trkpt>
      <trkpt lat="43.06043" lon="0.30076">
        <ele>552.46</ele>
        <time>2026-05-24T06:31:59.000Z</time>
      </trkpt>
      <trkpt lat="43.06037" lon="0.301">
        <ele>554.49</ele>
        <time>2026-05-24T06:32:17.000Z</time>
      </trkpt>
      <trkpt lat="43.06034" lon="0.30125">
        <ele>558.64</ele>
        <time>2026-05-24T06:32:36.000Z</time>
      </trkpt>
      <trkpt lat="43.06037" lon="0.30151">
        <ele>564.61</ele>
        <time>2026-05-24T06:32:56.000Z</time>
      </trkpt>
      <trkpt lat="43.06044" lon="0.30174">
        <ele>567.26</ele>
        <time>2026-05-24T06:33:14.000Z</time>
      </trkpt>
      <trkpt lat="43.0605" lon="0.30205">
        <ele>565.6</ele>
        <time>2026-05-24T06:33:34.000Z</time>
      </trkpt>
      <trkpt lat="43.06035" lon="0.30212">
        <ele>578.25</ele>
        <time>2026-05-24T06:33:58.000Z</time>
      </trkpt>
      <trkpt lat="43.06018" lon="0.3022">
        <ele>581.81</ele>
        <time>2026-05-24T06:34:15.000Z</time>
      </trkpt>
      <trkpt lat="43.06002" lon="0.30234">
        <ele>583.8</ele>
        <time>2026-05-24T06:34:35.000Z</time>
      </trkpt>
      <trkpt lat="43.05983" lon="0.30246">
        <ele>582.56</ele>
        <time>2026-05-24T06:34:46.000Z</time>
      </trkpt>
      <trkpt lat="43.05965" lon="0.3025">
        <ele>586.41</ele>
        <time>2026-05-24T06:35:05.000Z</time>
      </trkpt>
      <trkpt lat="43.05947" lon="0.30252">
        <ele>590.96</ele>
        <time>2026-05-24T06:35:27.000Z</time>
      </trkpt>
      <trkpt lat="43.05928" lon="0.30253">
        <ele>593.69</ele>
        <time>2026-05-24T06:35:46.000Z</time>
      </trkpt>
      <trkpt lat="43.05911" lon="0.30264">
        <ele>597.31</ele>
        <time>2026-05-24T06:36:04.000Z</time>
      </trkpt>
      <trkpt lat="43.05923" lon="0.30283">
        <ele>600.33</ele>
        <time>2026-05-24T06:36:22.000Z</time>
      </trkpt>
      <trkpt lat="43.05938" lon="0.30297">
        <ele>602.34</ele>
        <time>2026-05-24T06:36:38.000Z</time>
      </trkpt>
      <trkpt lat="43.05946" lon="0.30319">
        <ele>604.17</ele>
        <time>2026-05-24T06:36:51.000Z</time>
      </trkpt>
      <trkpt lat="43.05956" lon="0.30342">
        <ele>605.76</ele>
        <time>2026-05-24T06:37:04.000Z</time>
      </trkpt>
      <trkpt lat="43.05968" lon="0.3036">
        <ele>607.6</ele>
        <time>2026-05-24T06:37:17.000Z</time>
      </trkpt>
      <trkpt lat="43.05965" lon="0.30377">
        <ele>605.8</ele>
        <time>2026-05-24T06:37:37.000Z</time>
      </trkpt>
      <trkpt lat="43.05936" lon="0.30378">
        <ele>613.55</ele>
        <time>2026-05-24T06:37:52.000Z</time>
      </trkpt>
      <trkpt lat="43.05917" lon="0.3038">
        <ele>615.91</ele>
        <time>2026-05-24T06:38:05.000Z</time>
      </trkpt>
      <trkpt lat="43.05901" lon="0.30394">
        <ele>616.96</ele>
        <time>2026-05-24T06:38:17.000Z</time>
      </trkpt>
      <trkpt lat="43.05887" lon="0.3041">
        <ele>618.59</ele>
        <time>2026-05-24T06:38:29.000Z</time>
      </trkpt>
      <trkpt lat="43.05874" lon="0.30427">
        <ele>621.2</ele>
        <time>2026-05-24T06:38:41.000Z</time>
      </trkpt>
      <trkpt lat="43.05867" lon="0.3045">
        <ele>621.96</ele>
        <time>2026-05-24T06:38:52.000Z</time>
      </trkpt>
      <trkpt lat="43.05861" lon="0.30474">
        <ele>622.14</ele>
        <time>2026-05-24T06:39:03.000Z</time>
      </trkpt>
      <trkpt lat="43.05853" lon="0.30497">
        <ele>624.91</ele>
        <time>2026-05-24T06:39:16.000Z</time>
      </trkpt>
      <trkpt lat="43.05847" lon="0.30522">
        <ele>624.26</ele>
        <time>2026-05-24T06:39:24.000Z</time>
      </trkpt>
      <trkpt lat="43.05841" lon="0.30547">
        <ele>624.3</ele>
        <time>2026-05-24T06:39:32.000Z</time>
      </trkpt>
      <trkpt lat="43.05832" lon="0.30569">
        <ele>625.53</ele>
        <time>2026-05-24T06:39:42.000Z</time>
      </trkpt>
      <trkpt lat="43.05824" lon="0.30591">
        <ele>627.11</ele>
        <time>2026-05-24T06:39:51.000Z</time>
      </trkpt>
      <trkpt lat="43.05813" lon="0.30615">
        <ele>631.37</ele>
        <time>2026-05-24T06:40:00.000Z</time>
      </trkpt>
      <trkpt lat="43.05799" lon="0.30633">
        <ele>629.83</ele>
        <time>2026-05-24T06:40:06.000Z</time>
      </trkpt>
      <trkpt lat="43.05785" lon="0.30654">
        <ele>629.18</ele>
        <time>2026-05-24T06:40:11.000Z</time>
      </trkpt>
      <trkpt lat="43.05767" lon="0.30659">
        <ele>627.17</ele>
        <time>2026-05-24T06:40:17.000Z</time>
      </trkpt>
      <trkpt lat="43.05752" lon="0.30676">
        <ele>625.36</ele>
        <time>2026-05-24T06:40:21.000Z</time>
      </trkpt>
      <trkpt lat="43.05737" lon="0.30703">
        <ele>622.58</ele>
        <time>2026-05-24T06:40:25.000Z</time>
      </trkpt>
      <trkpt lat="43.05723" lon="0.30728">
        <ele>620.51</ele>
        <time>2026-05-24T06:40:28.000Z</time>
      </trkpt>
      <trkpt lat="43.05709" lon="0.30752">
        <ele>618.95</ele>
        <time>2026-05-24T06:40:31.000Z</time>
      </trkpt>
      <trkpt lat="43.05696" lon="0.30776">
        <ele>618.15</ele>
        <time>2026-05-24T06:40:34.000Z</time>
      </trkpt>
      <trkpt lat="43.05683" lon="0.30801">
        <ele>616.53</ele>
        <time>2026-05-24T06:40:37.000Z</time>
      </trkpt>
      <trkpt lat="43.0567" lon="0.30825">
        <ele>615.74</ele>
        <time>2026-05-24T06:40:40.000Z</time>
      </trkpt>
      <trkpt lat="43.05657" lon="0.30847">
        <ele>615.12</ele>
        <time>2026-05-24T06:40:43.000Z</time>
      </trkpt>
      <trkpt lat="43.05645" lon="0.30868">
        <ele>613.35</ele>
        <time>2026-05-24T06:40:46.000Z</time>
      </trkpt>
      <trkpt lat="43.05633" lon="0.30891">
        <ele>611.7</ele>
        <time>2026-05-24T06:40:50.000Z</time>
      </trkpt>
      <trkpt lat="43.05622" lon="0.30913">
        <ele>609.63</ele>
        <time>2026-05-24T06:40:54.000Z</time>
      </trkpt>
      <trkpt lat="43.05607" lon="0.30936">
        <ele>605.96</ele>
        <time>2026-05-24T06:40:58.000Z</time>
      </trkpt>
      <trkpt lat="43.05589" lon="0.30952">
        <ele>604</ele>
        <time>2026-05-24T06:41:02.000Z</time>
      </trkpt>
      <trkpt lat="43.05582" lon="0.30926">
        <ele>604.44</ele>
        <time>2026-05-24T06:44:54.000Z</time>
      </trkpt>
      <trkpt lat="43.05567" lon="0.30908">
        <ele>601.7</ele>
        <time>2026-05-24T06:44:59.000Z</time>
      </trkpt>
      <trkpt lat="43.05545" lon="0.30911">
        <ele>598.56</ele>
        <time>2026-05-24T06:45:02.000Z</time>
      </trkpt>
      <trkpt lat="43.0552" lon="0.30919">
        <ele>594.67</ele>
        <time>2026-05-24T06:45:05.000Z</time>
      </trkpt>
      <trkpt lat="43.05497" lon="0.30938">
        <ele>589.81</ele>
        <time>2026-05-24T06:45:08.000Z</time>
      </trkpt>
      <trkpt lat="43.05474" lon="0.30955">
        <ele>585.4</ele>
        <time>2026-05-24T06:45:11.000Z</time>
      </trkpt>
      <trkpt lat="43.05453" lon="0.30965">
        <ele>585.12</ele>
        <time>2026-05-24T06:45:14.000Z</time>
      </trkpt>
      <trkpt lat="43.05432" lon="0.30965">
        <ele>585.7</ele>
        <time>2026-05-24T06:45:19.000Z</time>
      </trkpt>
      <trkpt lat="43.05416" lon="0.30953">
        <ele>588.3</ele>
        <time>2026-05-24T06:45:29.000Z</time>
      </trkpt>
      <trkpt lat="43.05405" lon="0.30937">
        <ele>591.2</ele>
        <time>2026-05-24T06:45:35.000Z</time>
      </trkpt>
      <trkpt lat="43.05398" lon="0.3091">
        <ele>589.2</ele>
        <time>2026-05-24T06:45:42.000Z</time>
      </trkpt>
      <trkpt lat="43.05395" lon="0.30885">
        <ele>586.1</ele>
        <time>2026-05-24T06:45:47.000Z</time>
      </trkpt>
      <trkpt lat="43.05387" lon="0.30856">
        <ele>585</ele>
        <time>2026-05-24T06:45:53.000Z</time>
      </trkpt>
      <trkpt lat="43.05386" lon="0.30833">
        <ele>580.4</ele>
        <time>2026-05-24T06:45:59.000Z</time>
      </trkpt>
      <trkpt lat="43.05374" lon="0.30806">
        <ele>592.16</ele>
        <time>2026-05-24T06:46:04.000Z</time>
      </trkpt>
      <trkpt lat="43.05358" lon="0.30793">
        <ele>589.52</ele>
        <time>2026-05-24T06:46:10.000Z</time>
      </trkpt>
      <trkpt lat="43.05341" lon="0.30779">
        <ele>582.5</ele>
        <time>2026-05-24T06:46:16.000Z</time>
      </trkpt>
      <trkpt lat="43.05325" lon="0.3076">
        <ele>582.7</ele>
        <time>2026-05-24T06:46:22.000Z</time>
      </trkpt>
      <trkpt lat="43.0532" lon="0.30737">
        <ele>581</ele>
        <time>2026-05-24T06:46:27.000Z</time>
      </trkpt>
      <trkpt lat="43.0531" lon="0.3071">
        <ele>581.1</ele>
        <time>2026-05-24T06:46:31.000Z</time>
      </trkpt>
      <trkpt lat="43.05303" lon="0.30687">
        <ele>580.2</ele>
        <time>2026-05-24T06:46:35.000Z</time>
      </trkpt>
      <trkpt lat="43.05289" lon="0.30665">
        <ele>592.09</ele>
        <time>2026-05-24T06:46:40.000Z</time>
      </trkpt>
      <trkpt lat="43.0527" lon="0.30649">
        <ele>593.37</ele>
        <time>2026-05-24T06:46:44.000Z</time>
      </trkpt>
      <trkpt lat="43.05253" lon="0.3064">
        <ele>592.4</ele>
        <time>2026-05-24T06:46:49.000Z</time>
      </trkpt>
      <trkpt lat="43.05235" lon="0.30635">
        <ele>592.52</ele>
        <time>2026-05-24T06:46:54.000Z</time>
      </trkpt>
      <trkpt lat="43.05214" lon="0.30636">
        <ele>590.74</ele>
        <time>2026-05-24T06:47:01.000Z</time>
      </trkpt>
      <trkpt lat="43.05197" lon="0.30649">
        <ele>590.87</ele>
        <time>2026-05-24T06:47:07.000Z</time>
      </trkpt>
      <trkpt lat="43.05181" lon="0.30664">
        <ele>590.98</ele>
        <time>2026-05-24T06:47:11.000Z</time>
      </trkpt>
      <trkpt lat="43.05167" lon="0.30682">
        <ele>589.6</ele>
        <time>2026-05-24T06:47:16.000Z</time>
      </trkpt>
      <trkpt lat="43.05156" lon="0.30703">
        <ele>586.27</ele>
        <time>2026-05-24T06:47:21.000Z</time>
      </trkpt>
      <trkpt lat="43.05145" lon="0.30725">
        <ele>586.26</ele>
        <time>2026-05-24T06:47:27.000Z</time>
      </trkpt>
      <trkpt lat="43.05132" lon="0.30746">
        <ele>584.44</ele>
        <time>2026-05-24T06:47:34.000Z</time>
      </trkpt>
      <trkpt lat="43.05123" lon="0.30767">
        <ele>586.99</ele>
        <time>2026-05-24T06:47:43.000Z</time>
      </trkpt>
      <trkpt lat="43.05114" lon="0.30789">
        <ele>585.77</ele>
        <time>2026-05-24T06:47:49.000Z</time>
      </trkpt>
      <trkpt lat="43.05101" lon="0.30806">
        <ele>587.86</ele>
        <time>2026-05-24T06:47:57.000Z</time>
      </trkpt>
      <trkpt lat="43.05091" lon="0.30827">
        <ele>596.43</ele>
        <time>2026-05-24T06:48:08.000Z</time>
      </trkpt>
      <trkpt lat="43.05082" lon="0.30852">
        <ele>599.91</ele>
        <time>2026-05-24T06:48:17.000Z</time>
      </trkpt>
      <trkpt lat="43.05085" lon="0.30903">
        <ele>593.4</ele>
        <time>2026-05-24T06:48:24.000Z</time>
      </trkpt>
      <trkpt lat="43.05089" lon="0.30921">
        <ele>596</ele>
        <time>2026-05-24T06:48:31.000Z</time>
      </trkpt>
      <trkpt lat="43.05094" lon="0.3094">
        <ele>598.1</ele>
        <time>2026-05-24T06:48:37.000Z</time>
      </trkpt>
      <trkpt lat="43.05106" lon="0.30964">
        <ele>600</ele>
        <time>2026-05-24T06:48:46.000Z</time>
      </trkpt>
      <trkpt lat="43.05114" lon="0.30987">
        <ele>598.5</ele>
        <time>2026-05-24T06:48:54.000Z</time>
      </trkpt>
      <trkpt lat="43.05123" lon="0.31003">
        <ele>599.3</ele>
        <time>2026-05-24T06:49:02.000Z</time>
      </trkpt>
      <trkpt lat="43.05131" lon="0.31025">
        <ele>598.8</ele>
        <time>2026-05-24T06:49:12.000Z</time>
      </trkpt>
      <trkpt lat="43.0513" lon="0.31052">
        <ele>597.6</ele>
        <time>2026-05-24T06:49:17.000Z</time>
      </trkpt>
      <trkpt lat="43.0512" lon="0.31077">
        <ele>595.6</ele>
        <time>2026-05-24T06:49:23.000Z</time>
      </trkpt>
      <trkpt lat="43.05109" lon="0.31096">
        <ele>593.1</ele>
        <time>2026-05-24T06:49:28.000Z</time>
      </trkpt>
      <trkpt lat="43.05092" lon="0.31116">
        <ele>590.7</ele>
        <time>2026-05-24T06:49:31.000Z</time>
      </trkpt>
      <trkpt lat="43.05069" lon="0.31134">
        <ele>588.6</ele>
        <time>2026-05-24T06:49:34.000Z</time>
      </trkpt>
      <trkpt lat="43.05057" lon="0.31146">
        <ele>589.5</ele>
        <time>2026-05-24T06:49:37.000Z</time>
      </trkpt>
      <trkpt lat="43.0504" lon="0.31156">
        <ele>588</ele>
        <time>2026-05-24T06:49:40.000Z</time>
      </trkpt>
      <trkpt lat="43.0502" lon="0.31166">
        <ele>601.46</ele>
        <time>2026-05-24T06:49:43.000Z</time>
      </trkpt>
      <trkpt lat="43.04999" lon="0.31181">
        <ele>600.28</ele>
        <time>2026-05-24T06:49:47.000Z</time>
      </trkpt>
      <trkpt lat="43.04985" lon="0.31196">
        <ele>597.3</ele>
        <time>2026-05-24T06:49:50.000Z</time>
      </trkpt>
      <trkpt lat="43.04972" lon="0.31215">
        <ele>593.71</ele>
        <time>2026-05-24T06:49:54.000Z</time>
      </trkpt>
      <trkpt lat="43.04957" lon="0.31237">
        <ele>594.28</ele>
        <time>2026-05-24T06:50:00.000Z</time>
      </trkpt>
      <trkpt lat="43.04954" lon="0.31262">
        <ele>599.77</ele>
        <time>2026-05-24T06:50:07.000Z</time>
      </trkpt>
      <trkpt lat="43.04955" lon="0.31289">
        <ele>588.4</ele>
        <time>2026-05-24T06:50:17.000Z</time>
      </trkpt>
      <trkpt lat="43.04956" lon="0.31314">
        <ele>590.9</ele>
        <time>2026-05-24T06:50:25.000Z</time>
      </trkpt>
      <trkpt lat="43.04956" lon="0.3134">
        <ele>592.7</ele>
        <time>2026-05-24T06:50:34.000Z</time>
      </trkpt>
      <trkpt lat="43.04955" lon="0.31366">
        <ele>595.4</ele>
        <time>2026-05-24T06:50:45.000Z</time>
      </trkpt>
      <trkpt lat="43.04953" lon="0.31394">
        <ele>599</ele>
        <time>2026-05-24T06:51:10.000Z</time>
      </trkpt>
      <trkpt lat="43.04947" lon="0.31414">
        <ele>614.24</ele>
        <time>2026-05-24T06:51:28.000Z</time>
      </trkpt>
      <trkpt lat="43.04941" lon="0.31438">
        <ele>613.36</ele>
        <time>2026-05-24T06:51:44.000Z</time>
      </trkpt>
      <trkpt lat="43.04929" lon="0.31458">
        <ele>613.65</ele>
        <time>2026-05-24T06:51:56.000Z</time>
      </trkpt>
      <trkpt lat="43.04911" lon="0.31449">
        <ele>608.38</ele>
        <time>2026-05-24T06:52:10.000Z</time>
      </trkpt>
      <trkpt lat="43.04901" lon="0.31471">
        <ele>611.07</ele>
        <time>2026-05-24T06:52:35.000Z</time>
      </trkpt>
      <trkpt lat="43.04894" lon="0.31497">
        <ele>610.39</ele>
        <time>2026-05-24T06:52:45.000Z</time>
      </trkpt>
      <trkpt lat="43.04882" lon="0.31516">
        <ele>616.53</ele>
        <time>2026-05-24T06:52:55.000Z</time>
      </trkpt>
      <trkpt lat="43.04875" lon="0.31547">
        <ele>612.7</ele>
        <time>2026-05-24T06:53:07.000Z</time>
      </trkpt>
      <trkpt lat="43.04871" lon="0.31576">
        <ele>611.8</ele>
        <time>2026-05-24T06:53:19.000Z</time>
      </trkpt>
      <trkpt lat="43.04865" lon="0.31598">
        <ele>614</ele>
        <time>2026-05-24T06:53:29.000Z</time>
      </trkpt>
      <trkpt lat="43.04859" lon="0.31619">
        <ele>616.1</ele>
        <time>2026-05-24T06:53:39.000Z</time>
      </trkpt>
      <trkpt lat="43.04855" lon="0.31638">
        <ele>633.27</ele>
        <time>2026-05-24T06:53:46.000Z</time>
      </trkpt>
      <trkpt lat="43.04855" lon="0.31663">
        <ele>638.84</ele>
        <time>2026-05-24T06:53:56.000Z</time>
      </trkpt>
      <trkpt lat="43.04856" lon="0.31689">
        <ele>641.36</ele>
        <time>2026-05-24T06:54:05.000Z</time>
      </trkpt>
      <trkpt lat="43.04862" lon="0.31718">
        <ele>622.3</ele>
        <time>2026-05-24T06:54:15.000Z</time>
      </trkpt>
      <trkpt lat="43.04865" lon="0.31758">
        <ele>622.7</ele>
        <time>2026-05-24T06:54:24.000Z</time>
      </trkpt>
      <trkpt lat="43.04862" lon="0.31791">
        <ele>623.2</ele>
        <time>2026-05-24T06:54:32.000Z</time>
      </trkpt>
      <trkpt lat="43.04851" lon="0.31821">
        <ele>625.5</ele>
        <time>2026-05-24T06:54:39.000Z</time>
      </trkpt>
      <trkpt lat="43.04845" lon="0.31835">
        <ele>626.7</ele>
        <time>2026-05-24T06:54:46.000Z</time>
      </trkpt>
      <trkpt lat="43.04838" lon="0.31853">
        <ele>627.6</ele>
        <time>2026-05-24T06:54:53.000Z</time>
      </trkpt>
      <trkpt lat="43.04829" lon="0.3187">
        <ele>630</ele>
        <time>2026-05-24T06:55:00.000Z</time>
      </trkpt>
      <trkpt lat="43.04819" lon="0.31892">
        <ele>631.5</ele>
        <time>2026-05-24T06:55:07.000Z</time>
      </trkpt>
      <trkpt lat="43.04811" lon="0.31911">
        <ele>649.42</ele>
        <time>2026-05-24T06:55:23.000Z</time>
      </trkpt>
      <trkpt lat="43.04799" lon="0.31934">
        <ele>649.8</ele>
        <time>2026-05-24T06:55:31.000Z</time>
      </trkpt>
      <trkpt lat="43.04787" lon="0.31953">
        <ele>649.65</ele>
        <time>2026-05-24T06:55:38.000Z</time>
      </trkpt>
      <trkpt lat="43.04777" lon="0.31976">
        <ele>647.88</ele>
        <time>2026-05-24T06:55:45.000Z</time>
      </trkpt>
      <trkpt lat="43.04766" lon="0.31998">
        <ele>649.62</ele>
        <time>2026-05-24T06:55:52.000Z</time>
      </trkpt>
      <trkpt lat="43.04756" lon="0.32021">
        <ele>649.1</ele>
        <time>2026-05-24T06:55:59.000Z</time>
      </trkpt>
      <trkpt lat="43.04742" lon="0.3204">
        <ele>648.56</ele>
        <time>2026-05-24T06:56:06.000Z</time>
      </trkpt>
      <trkpt lat="43.04729" lon="0.32062">
        <ele>651.9</ele>
        <time>2026-05-24T06:56:13.000Z</time>
      </trkpt>
      <trkpt lat="43.0472" lon="0.32088">
        <ele>654.16</ele>
        <time>2026-05-24T06:56:20.000Z</time>
      </trkpt>
      <trkpt lat="43.04714" lon="0.32112">
        <ele>655.28</ele>
        <time>2026-05-24T06:56:26.000Z</time>
      </trkpt>
      <trkpt lat="43.04709" lon="0.32138">
        <ele>656.08</ele>
        <time>2026-05-24T06:56:33.000Z</time>
      </trkpt>
      <trkpt lat="43.04706" lon="0.3217">
        <ele>639.3</ele>
        <time>2026-05-24T06:56:40.000Z</time>
      </trkpt>
      <trkpt lat="43.04707" lon="0.32195">
        <ele>639.8</ele>
        <time>2026-05-24T06:56:47.000Z</time>
      </trkpt>
      <trkpt lat="43.04706" lon="0.32217">
        <ele>654.48</ele>
        <time>2026-05-24T06:56:54.000Z</time>
      </trkpt>
      <trkpt lat="43.04711" lon="0.32244">
        <ele>652.86</ele>
        <time>2026-05-24T06:57:00.000Z</time>
      </trkpt>
      <trkpt lat="43.04717" lon="0.32269">
        <ele>649.12</ele>
        <time>2026-05-24T06:57:06.000Z</time>
      </trkpt>
      <trkpt lat="43.04726" lon="0.32294">
        <ele>647.8</ele>
        <time>2026-05-24T06:57:13.000Z</time>
      </trkpt>
      <trkpt lat="43.04733" lon="0.32318">
        <ele>652.67</ele>
        <time>2026-05-24T06:57:21.000Z</time>
      </trkpt>
      <trkpt lat="43.04738" lon="0.32343">
        <ele>651.13</ele>
        <time>2026-05-24T06:57:28.000Z</time>
      </trkpt>
      <trkpt lat="43.0474" lon="0.32369">
        <ele>652.76</ele>
        <time>2026-05-24T06:57:35.000Z</time>
      </trkpt>
      <trkpt lat="43.04741" lon="0.32399">
        <ele>654.06</ele>
        <time>2026-05-24T06:57:41.000Z</time>
      </trkpt>
      <trkpt lat="43.04742" lon="0.32426">
        <ele>653.34</ele>
        <time>2026-05-24T06:57:45.000Z</time>
      </trkpt>
      <trkpt lat="43.04742" lon="0.32456">
        <ele>650.48</ele>
        <time>2026-05-24T06:57:49.000Z</time>
      </trkpt>
      <trkpt lat="43.04738" lon="0.32481">
        <ele>652.83</ele>
        <time>2026-05-24T06:57:53.000Z</time>
      </trkpt>
      <trkpt lat="43.04735" lon="0.32513">
        <ele>650.92</ele>
        <time>2026-05-24T06:57:57.000Z</time>
      </trkpt>
      <trkpt lat="43.04734" lon="0.32539">
        <ele>648.82</ele>
        <time>2026-05-24T06:58:00.000Z</time>
      </trkpt>
      <trkpt lat="43.04735" lon="0.32567">
        <ele>646.83</ele>
        <time>2026-05-24T06:58:03.000Z</time>
      </trkpt>
      <trkpt lat="43.04736" lon="0.32597">
        <ele>645.98</ele>
        <time>2026-05-24T06:58:06.000Z</time>
      </trkpt>
      <trkpt lat="43.04742" lon="0.32624">
        <ele>646.09</ele>
        <time>2026-05-24T06:58:09.000Z</time>
      </trkpt>
      <trkpt lat="43.04757" lon="0.32638">
        <ele>646.97</ele>
        <time>2026-05-24T06:58:12.000Z</time>
      </trkpt>
      <trkpt lat="43.04776" lon="0.32647">
        <ele>647.59</ele>
        <time>2026-05-24T06:58:16.000Z</time>
      </trkpt>
      <trkpt lat="43.04796" lon="0.32658">
        <ele>649.84</ele>
        <time>2026-05-24T06:58:21.000Z</time>
      </trkpt>
      <trkpt lat="43.04814" lon="0.32667">
        <ele>651.04</ele>
        <time>2026-05-24T06:58:25.000Z</time>
      </trkpt>
      <trkpt lat="43.04839" lon="0.32675">
        <ele>636.1</ele>
        <time>2026-05-24T06:58:31.000Z</time>
      </trkpt>
      <trkpt lat="43.04861" lon="0.32693">
        <ele>635.8</ele>
        <time>2026-05-24T06:58:37.000Z</time>
      </trkpt>
      <trkpt lat="43.04872" lon="0.3273">
        <ele>634.2</ele>
        <time>2026-05-24T06:58:41.000Z</time>
      </trkpt>
      <trkpt lat="43.04869" lon="0.32766">
        <ele>634.4</ele>
        <time>2026-05-24T06:58:45.000Z</time>
      </trkpt>
      <trkpt lat="43.04864" lon="0.32792">
        <ele>635.8</ele>
        <time>2026-05-24T06:58:50.000Z</time>
      </trkpt>
      <trkpt lat="43.04857" lon="0.32819">
        <ele>637.2</ele>
        <time>2026-05-24T06:58:55.000Z</time>
      </trkpt>
      <trkpt lat="43.04852" lon="0.32843">
        <ele>637.3</ele>
        <time>2026-05-24T06:59:00.000Z</time>
      </trkpt>
      <trkpt lat="43.04848" lon="0.32869">
        <ele>637.5</ele>
        <time>2026-05-24T06:59:04.000Z</time>
      </trkpt>
      <trkpt lat="43.04849" lon="0.32896">
        <ele>636.3</ele>
        <time>2026-05-24T06:59:08.000Z</time>
      </trkpt>
      <trkpt lat="43.0485" lon="0.32917">
        <ele>635.9</ele>
        <time>2026-05-24T06:59:11.000Z</time>
      </trkpt>
      <trkpt lat="43.0485" lon="0.32944">
        <ele>648.91</ele>
        <time>2026-05-24T06:59:15.000Z</time>
      </trkpt>
      <trkpt lat="43.04857" lon="0.32971">
        <ele>649.47</ele>
        <time>2026-05-24T06:59:19.000Z</time>
      </trkpt>
      <trkpt lat="43.0486" lon="0.32996">
        <ele>651.75</ele>
        <time>2026-05-24T06:59:23.000Z</time>
      </trkpt>
      <trkpt lat="43.04863" lon="0.33024">
        <ele>654.85</ele>
        <time>2026-05-24T06:59:28.000Z</time>
      </trkpt>
      <trkpt lat="43.04866" lon="0.33051">
        <ele>655.83</ele>
        <time>2026-05-24T06:59:32.000Z</time>
      </trkpt>
      <trkpt lat="43.04866" lon="0.33081">
        <ele>655.81</ele>
        <time>2026-05-24T06:59:37.000Z</time>
      </trkpt>
      <trkpt lat="43.04865" lon="0.33108">
        <ele>655.75</ele>
        <time>2026-05-24T06:59:43.000Z</time>
      </trkpt>
      <trkpt lat="43.04861" lon="0.33135">
        <ele>651.75</ele>
        <time>2026-05-24T06:59:48.000Z</time>
      </trkpt>
      <trkpt lat="43.04857" lon="0.33165">
        <ele>651.19</ele>
        <time>2026-05-24T06:59:55.000Z</time>
      </trkpt>
      <trkpt lat="43.04857" lon="0.33192">
        <ele>651.18</ele>
        <time>2026-05-24T07:00:01.000Z</time>
      </trkpt>
      <trkpt lat="43.04855" lon="0.3322">
        <ele>647.03</ele>
        <time>2026-05-24T07:00:06.000Z</time>
      </trkpt>
      <trkpt lat="43.0485" lon="0.33248">
        <ele>647.39</ele>
        <time>2026-05-24T07:00:09.000Z</time>
      </trkpt>
      <trkpt lat="43.04849" lon="0.33274">
        <ele>645.01</ele>
        <time>2026-05-24T07:00:12.000Z</time>
      </trkpt>
      <trkpt lat="43.04852" lon="0.33302">
        <ele>639.93</ele>
        <time>2026-05-24T07:00:15.000Z</time>
      </trkpt>
      <trkpt lat="43.04854" lon="0.3333">
        <ele>637.98</ele>
        <time>2026-05-24T07:00:18.000Z</time>
      </trkpt>
      <trkpt lat="43.04854" lon="0.33359">
        <ele>636.73</ele>
        <time>2026-05-24T07:00:22.000Z</time>
      </trkpt>
      <trkpt lat="43.04853" lon="0.3339">
        <ele>634.81</ele>
        <time>2026-05-24T07:00:26.000Z</time>
      </trkpt>
      <trkpt lat="43.04854" lon="0.33417">
        <ele>632.58</ele>
        <time>2026-05-24T07:00:29.000Z</time>
      </trkpt>
      <trkpt lat="43.04853" lon="0.33444">
        <ele>632.48</ele>
        <time>2026-05-24T07:00:32.000Z</time>
      </trkpt>
      <trkpt lat="43.04852" lon="0.33474">
        <ele>634.76</ele>
        <time>2026-05-24T07:00:35.000Z</time>
      </trkpt>
      <trkpt lat="43.04852" lon="0.33502">
        <ele>633.58</ele>
        <time>2026-05-24T07:00:38.000Z</time>
      </trkpt>
      <trkpt lat="43.04852" lon="0.33529">
        <ele>633.92</ele>
        <time>2026-05-24T07:00:41.000Z</time>
      </trkpt>
      <trkpt lat="43.04851" lon="0.33554">
        <ele>635.05</ele>
        <time>2026-05-24T07:00:44.000Z</time>
      </trkpt>
      <trkpt lat="43.04849" lon="0.3358">
        <ele>633.67</ele>
        <time>2026-05-24T07:00:47.000Z</time>
      </trkpt>
      <trkpt lat="43.04855" lon="0.33607">
        <ele>633.98</ele>
        <time>2026-05-24T07:00:52.000Z</time>
      </trkpt>
      <trkpt lat="43.04875" lon="0.33617">
        <ele>634.37</ele>
        <time>2026-05-24T07:00:57.000Z</time>
      </trkpt>
      <trkpt lat="43.04892" lon="0.33628">
        <ele>633.28</ele>
        <time>2026-05-24T07:02:01.000Z</time>
      </trkpt>
      <trkpt lat="43.04909" lon="0.33638">
        <ele>632.84</ele>
        <time>2026-05-24T07:02:06.000Z</time>
      </trkpt>
      <trkpt lat="43.0493" lon="0.33632">
        <ele>631.88</ele>
        <time>2026-05-24T07:02:10.000Z</time>
      </trkpt>
      <trkpt lat="43.0494" lon="0.33608">
        <ele>630.28</ele>
        <time>2026-05-24T07:02:15.000Z</time>
      </trkpt>
      <trkpt lat="43.04949" lon="0.33583">
        <ele>629.96</ele>
        <time>2026-05-24T07:02:20.000Z</time>
      </trkpt>
      <trkpt lat="43.04958" lon="0.3356">
        <ele>629.61</ele>
        <time>2026-05-24T07:02:26.000Z</time>
      </trkpt>
      <trkpt lat="43.04978" lon="0.33558">
        <ele>631.13</ele>
        <time>2026-05-24T07:02:33.000Z</time>
      </trkpt>
      <trkpt lat="43.04999" lon="0.33555">
        <ele>630.9</ele>
        <time>2026-05-24T07:02:36.000Z</time>
      </trkpt>
      <trkpt lat="43.05021" lon="0.33554">
        <ele>635.05</ele>
        <time>2026-05-24T07:02:41.000Z</time>
      </trkpt>
      <trkpt lat="43.05041" lon="0.33551">
        <ele>634.63</ele>
        <time>2026-05-24T07:02:45.000Z</time>
      </trkpt>
      <trkpt lat="43.05059" lon="0.33546">
        <ele>634.36</ele>
        <time>2026-05-24T07:02:49.000Z</time>
      </trkpt>
      <trkpt lat="43.05079" lon="0.33542">
        <ele>633.83</ele>
        <time>2026-05-24T07:02:53.000Z</time>
      </trkpt>
      <trkpt lat="43.05099" lon="0.33538">
        <ele>634.66</ele>
        <time>2026-05-24T07:02:58.000Z</time>
      </trkpt>
      <trkpt lat="43.0512" lon="0.33525">
        <ele>633.67</ele>
        <time>2026-05-24T07:03:02.000Z</time>
      </trkpt>
      <trkpt lat="43.05135" lon="0.33508">
        <ele>633.25</ele>
        <time>2026-05-24T07:03:05.000Z</time>
      </trkpt>
      <trkpt lat="43.05154" lon="0.33497">
        <ele>632.87</ele>
        <time>2026-05-24T07:03:08.000Z</time>
      </trkpt>
      <trkpt lat="43.05177" lon="0.3349">
        <ele>632.91</ele>
        <time>2026-05-24T07:03:12.000Z</time>
      </trkpt>
      <trkpt lat="43.05197" lon="0.33488">
        <ele>633.33</ele>
        <time>2026-05-24T07:03:17.000Z</time>
      </trkpt>
      <trkpt lat="43.0522" lon="0.33485">
        <ele>633.18</ele>
        <time>2026-05-24T07:03:21.000Z</time>
      </trkpt>
      <trkpt lat="43.05239" lon="0.33484">
        <ele>631.33</ele>
        <time>2026-05-24T07:03:24.000Z</time>
      </trkpt>
      <trkpt lat="43.05259" lon="0.33484">
        <ele>631.06</ele>
        <time>2026-05-24T07:03:27.000Z</time>
      </trkpt>
      <trkpt lat="43.05277" lon="0.33487">
        <ele>630.64</ele>
        <time>2026-05-24T07:03:30.000Z</time>
      </trkpt>
      <trkpt lat="43.05295" lon="0.33489">
        <ele>629.65</ele>
        <time>2026-05-24T07:03:33.000Z</time>
      </trkpt>
      <trkpt lat="43.05315" lon="0.33497">
        <ele>628.03</ele>
        <time>2026-05-24T07:03:36.000Z</time>
      </trkpt>
      <trkpt lat="43.05332" lon="0.33519">
        <ele>626.42</ele>
        <time>2026-05-24T07:03:39.000Z</time>
      </trkpt>
      <trkpt lat="43.0535" lon="0.33547">
        <ele>625.79</ele>
        <time>2026-05-24T07:03:42.000Z</time>
      </trkpt>
      <trkpt lat="43.05363" lon="0.33565">
        <ele>626.13</ele>
        <time>2026-05-24T07:03:44.000Z</time>
      </trkpt>
      <trkpt lat="43.05374" lon="0.33585">
        <ele>623.37</ele>
        <time>2026-05-24T07:03:46.000Z</time>
      </trkpt>
      <trkpt lat="43.05387" lon="0.33611">
        <ele>622.27</ele>
        <time>2026-05-24T07:03:49.000Z</time>
      </trkpt>
      <trkpt lat="43.05401" lon="0.33629">
        <ele>620.75</ele>
        <time>2026-05-24T07:03:53.000Z</time>
      </trkpt>
      <trkpt lat="43.05419" lon="0.33648">
        <ele>620.42</ele>
        <time>2026-05-24T07:03:58.000Z</time>
      </trkpt>
      <trkpt lat="43.05435" lon="0.33669">
        <ele>617.65</ele>
        <time>2026-05-24T07:04:02.000Z</time>
      </trkpt>
      <trkpt lat="43.05449" lon="0.33691">
        <ele>617.03</ele>
        <time>2026-05-24T07:04:06.000Z</time>
      </trkpt>
      <trkpt lat="43.05465" lon="0.33704">
        <ele>614.62</ele>
        <time>2026-05-24T07:04:09.000Z</time>
      </trkpt>
      <trkpt lat="43.0548" lon="0.33718">
        <ele>614.37</ele>
        <time>2026-05-24T07:04:12.000Z</time>
      </trkpt>
      <trkpt lat="43.05498" lon="0.33733">
        <ele>615.13</ele>
        <time>2026-05-24T07:04:15.000Z</time>
      </trkpt>
      <trkpt lat="43.05516" lon="0.33753">
        <ele>615.84</ele>
        <time>2026-05-24T07:04:18.000Z</time>
      </trkpt>
      <trkpt lat="43.05537" lon="0.33762">
        <ele>614.17</ele>
        <time>2026-05-24T07:04:20.000Z</time>
      </trkpt>
      <trkpt lat="43.05559" lon="0.33772">
        <ele>613.63</ele>
        <time>2026-05-24T07:04:22.000Z</time>
      </trkpt>
      <trkpt lat="43.0558" lon="0.33775">
        <ele>610.53</ele>
        <time>2026-05-24T07:04:24.000Z</time>
      </trkpt>
      <trkpt lat="43.056" lon="0.33782">
        <ele>608.61</ele>
        <time>2026-05-24T07:04:26.000Z</time>
      </trkpt>
      <trkpt lat="43.05616" lon="0.33799">
        <ele>608.42</ele>
        <time>2026-05-24T07:04:28.000Z</time>
      </trkpt>
      <trkpt lat="43.05627" lon="0.33821">
        <ele>608.8</ele>
        <time>2026-05-24T07:04:30.000Z</time>
      </trkpt>
      <trkpt lat="43.05646" lon="0.33843">
        <ele>607.13</ele>
        <time>2026-05-24T07:04:33.000Z</time>
      </trkpt>
      <trkpt lat="43.05669" lon="0.33852">
        <ele>605.73</ele>
        <time>2026-05-24T07:04:36.000Z</time>
      </trkpt>
      <trkpt lat="43.05689" lon="0.33856">
        <ele>605.91</ele>
        <time>2026-05-24T07:04:39.000Z</time>
      </trkpt>
      <trkpt lat="43.05707" lon="0.33871">
        <ele>605.03</ele>
        <time>2026-05-24T07:04:42.000Z</time>
      </trkpt>
      <trkpt lat="43.05721" lon="0.33888">
        <ele>606.79</ele>
        <time>2026-05-24T07:04:45.000Z</time>
      </trkpt>
      <trkpt lat="43.05732" lon="0.33911">
        <ele>609.14</ele>
        <time>2026-05-24T07:04:50.000Z</time>
      </trkpt>
      <trkpt lat="43.05739" lon="0.33933">
        <ele>614.09</ele>
        <time>2026-05-24T07:04:58.000Z</time>
      </trkpt>
      <trkpt lat="43.05749" lon="0.33955">
        <ele>613.91</ele>
        <time>2026-05-24T07:05:11.000Z</time>
      </trkpt>
      <trkpt lat="43.05765" lon="0.33971">
        <ele>617.83</ele>
        <time>2026-05-24T07:05:25.000Z</time>
      </trkpt>
      <trkpt lat="43.0578" lon="0.33985">
        <ele>618.41</ele>
        <time>2026-05-24T07:05:36.000Z</time>
      </trkpt>
      <trkpt lat="43.05796" lon="0.33999">
        <ele>614.5</ele>
        <time>2026-05-24T07:05:45.000Z</time>
      </trkpt>
      <trkpt lat="43.05812" lon="0.34014">
        <ele>613.58</ele>
        <time>2026-05-24T07:05:52.000Z</time>
      </trkpt>
      <trkpt lat="43.05829" lon="0.34027">
        <ele>613.97</ele>
        <time>2026-05-24T07:05:57.000Z</time>
      </trkpt>
      <trkpt lat="43.05846" lon="0.34042">
        <ele>613.59</ele>
        <time>2026-05-24T07:06:01.000Z</time>
      </trkpt>
      <trkpt lat="43.05862" lon="0.34059">
        <ele>611.67</ele>
        <time>2026-05-24T07:06:04.000Z</time>
      </trkpt>
      <trkpt lat="43.05876" lon="0.34083">
        <ele>611.34</ele>
        <time>2026-05-24T07:06:07.000Z</time>
      </trkpt>
      <trkpt lat="43.05891" lon="0.34108">
        <ele>611.25</ele>
        <time>2026-05-24T07:06:10.000Z</time>
      </trkpt>
      <trkpt lat="43.05906" lon="0.34128">
        <ele>611.97</ele>
        <time>2026-05-24T07:06:13.000Z</time>
      </trkpt>
      <trkpt lat="43.05928" lon="0.34124">
        <ele>614.67</ele>
        <time>2026-05-24T07:06:17.000Z</time>
      </trkpt>
      <trkpt lat="43.05941" lon="0.34101">
        <ele>615.14</ele>
        <time>2026-05-24T07:06:21.000Z</time>
      </trkpt>
      <trkpt lat="43.05945" lon="0.34076">
        <ele>615</ele>
        <time>2026-05-24T07:06:26.000Z</time>
      </trkpt>
      <trkpt lat="43.0595" lon="0.34051">
        <ele>614.25</ele>
        <time>2026-05-24T07:06:33.000Z</time>
      </trkpt>
      <trkpt lat="43.05955" lon="0.34026">
        <ele>620.58</ele>
        <time>2026-05-24T07:06:43.000Z</time>
      </trkpt>
      <trkpt lat="43.0596" lon="0.34003">
        <ele>628.95</ele>
        <time>2026-05-24T07:06:54.000Z</time>
      </trkpt>
      <trkpt lat="43.05967" lon="0.33978">
        <ele>629.84</ele>
        <time>2026-05-24T07:07:05.000Z</time>
      </trkpt>
      <trkpt lat="43.05974" lon="0.33955">
        <ele>630.64</ele>
        <time>2026-05-24T07:07:15.000Z</time>
      </trkpt>
      <trkpt lat="43.05983" lon="0.33931">
        <ele>627.95</ele>
        <time>2026-05-24T07:07:25.000Z</time>
      </trkpt>
      <trkpt lat="43.0599" lon="0.33909">
        <ele>630.75</ele>
        <time>2026-05-24T07:07:35.000Z</time>
      </trkpt>
      <trkpt lat="43.05998" lon="0.33885">
        <ele>634</ele>
        <time>2026-05-24T07:07:46.000Z</time>
      </trkpt>
      <trkpt lat="43.06007" lon="0.33863">
        <ele>634.28</ele>
        <time>2026-05-24T07:07:56.000Z</time>
      </trkpt>
      <trkpt lat="43.06017" lon="0.33842">
        <ele>635.69</ele>
        <time>2026-05-24T07:08:04.000Z</time>
      </trkpt>
      <trkpt lat="43.06026" lon="0.33821">
        <ele>636.48</ele>
        <time>2026-05-24T07:08:12.000Z</time>
      </trkpt>
      <trkpt lat="43.06036" lon="0.338">
        <ele>633.52</ele>
        <time>2026-05-24T07:08:19.000Z</time>
      </trkpt>
      <trkpt lat="43.06047" lon="0.33778">
        <ele>633.82</ele>
        <time>2026-05-24T07:08:27.000Z</time>
      </trkpt>
      <trkpt lat="43.06057" lon="0.33755">
        <ele>636.42</ele>
        <time>2026-05-24T07:08:35.000Z</time>
      </trkpt>
      <trkpt lat="43.06066" lon="0.33733">
        <ele>638.04</ele>
        <time>2026-05-24T07:08:42.000Z</time>
      </trkpt>
      <trkpt lat="43.06076" lon="0.3371">
        <ele>638.81</ele>
        <time>2026-05-24T07:08:49.000Z</time>
      </trkpt>
      <trkpt lat="43.06091" lon="0.33689">
        <ele>636.25</ele>
        <time>2026-05-24T07:08:55.000Z</time>
      </trkpt>
      <trkpt lat="43.06113" lon="0.33692">
        <ele>633.98</ele>
        <time>2026-05-24T07:09:00.000Z</time>
      </trkpt>
      <trkpt lat="43.06124" lon="0.33714">
        <ele>632.35</ele>
        <time>2026-05-24T07:09:03.000Z</time>
      </trkpt>
      <trkpt lat="43.06133" lon="0.33743">
        <ele>631.33</ele>
        <time>2026-05-24T07:09:06.000Z</time>
      </trkpt>
      <trkpt lat="43.06144" lon="0.33773">
        <ele>632.87</ele>
        <time>2026-05-24T07:09:09.000Z</time>
      </trkpt>
      <trkpt lat="43.06162" lon="0.33797">
        <ele>630.23</ele>
        <time>2026-05-24T07:09:12.000Z</time>
      </trkpt>
      <trkpt lat="43.06181" lon="0.33811">
        <ele>630.03</ele>
        <time>2026-05-24T07:09:15.000Z</time>
      </trkpt>
      <trkpt lat="43.06198" lon="0.33827">
        <ele>632.18</ele>
        <time>2026-05-24T07:09:19.000Z</time>
      </trkpt>
      <trkpt lat="43.06216" lon="0.3384">
        <ele>627.9</ele>
        <time>2026-05-24T07:09:22.000Z</time>
      </trkpt>
      <trkpt lat="43.06234" lon="0.33862">
        <ele>628.66</ele>
        <time>2026-05-24T07:09:26.000Z</time>
      </trkpt>
      <trkpt lat="43.06247" lon="0.33881">
        <ele>627.68</ele>
        <time>2026-05-24T07:09:29.000Z</time>
      </trkpt>
      <trkpt lat="43.06265" lon="0.33898">
        <ele>625.68</ele>
        <time>2026-05-24T07:09:32.000Z</time>
      </trkpt>
      <trkpt lat="43.06285" lon="0.33893">
        <ele>626.54</ele>
        <time>2026-05-24T07:09:35.000Z</time>
      </trkpt>
      <trkpt lat="43.06301" lon="0.33874">
        <ele>626.03</ele>
        <time>2026-05-24T07:09:39.000Z</time>
      </trkpt>
      <trkpt lat="43.0631" lon="0.33846">
        <ele>623.75</ele>
        <time>2026-05-24T07:09:45.000Z</time>
      </trkpt>
      <trkpt lat="43.06313" lon="0.33818">
        <ele>623.59</ele>
        <time>2026-05-24T07:09:49.000Z</time>
      </trkpt>
      <trkpt lat="43.06321" lon="0.33792">
        <ele>620.33</ele>
        <time>2026-05-24T07:09:52.000Z</time>
      </trkpt>
      <trkpt lat="43.06328" lon="0.33762">
        <ele>618.14</ele>
        <time>2026-05-24T07:09:55.000Z</time>
      </trkpt>
      <trkpt lat="43.06344" lon="0.33735">
        <ele>616.18</ele>
        <time>2026-05-24T07:09:58.000Z</time>
      </trkpt>
      <trkpt lat="43.06361" lon="0.3371">
        <ele>614.3</ele>
        <time>2026-05-24T07:10:01.000Z</time>
      </trkpt>
      <trkpt lat="43.06381" lon="0.33685">
        <ele>613.1</ele>
        <time>2026-05-24T07:10:04.000Z</time>
      </trkpt>
      <trkpt lat="43.06396" lon="0.33673">
        <ele>613.37</ele>
        <time>2026-05-24T07:10:06.000Z</time>
      </trkpt>
      <trkpt lat="43.06414" lon="0.33663">
        <ele>612.78</ele>
        <time>2026-05-24T07:10:08.000Z</time>
      </trkpt>
      <trkpt lat="43.0644" lon="0.33655">
        <ele>611.2</ele>
        <time>2026-05-24T07:10:11.000Z</time>
      </trkpt>
      <trkpt lat="43.06458" lon="0.33662">
        <ele>610.09</ele>
        <time>2026-05-24T07:10:13.000Z</time>
      </trkpt>
      <trkpt lat="43.06472" lon="0.33681">
        <ele>608.06</ele>
        <time>2026-05-24T07:10:15.000Z</time>
      </trkpt>
      <trkpt lat="43.06492" lon="0.33697">
        <ele>607.51</ele>
        <time>2026-05-24T07:10:18.000Z</time>
      </trkpt>
      <trkpt lat="43.06512" lon="0.33712">
        <ele>608.31</ele>
        <time>2026-05-24T07:10:21.000Z</time>
      </trkpt>
      <trkpt lat="43.0653" lon="0.33721">
        <ele>609.82</ele>
        <time>2026-05-24T07:10:24.000Z</time>
      </trkpt>
      <trkpt lat="43.06546" lon="0.33733">
        <ele>617.01</ele>
        <time>2026-05-24T07:10:32.000Z</time>
      </trkpt>
      <trkpt lat="43.06561" lon="0.33747">
        <ele>617.83</ele>
        <time>2026-05-24T07:10:37.000Z</time>
      </trkpt>
      <trkpt lat="43.06583" lon="0.33754">
        <ele>612.98</ele>
        <time>2026-05-24T07:10:41.000Z</time>
      </trkpt>
      <trkpt lat="43.06601" lon="0.33754">
        <ele>613.05</ele>
        <time>2026-05-24T07:10:44.000Z</time>
      </trkpt>
      <trkpt lat="43.06621" lon="0.33763">
        <ele>612.7</ele>
        <time>2026-05-24T07:10:48.000Z</time>
      </trkpt>
      <trkpt lat="43.06644" lon="0.33755">
        <ele>610.6</ele>
        <time>2026-05-24T07:10:53.000Z</time>
      </trkpt>
      <trkpt lat="43.06655" lon="0.33736">
        <ele>608.87</ele>
        <time>2026-05-24T07:10:58.000Z</time>
      </trkpt>
      <trkpt lat="43.06672" lon="0.33721">
        <ele>610.05</ele>
        <time>2026-05-24T07:11:05.000Z</time>
      </trkpt>
      <trkpt lat="43.0669" lon="0.33707">
        <ele>614.11</ele>
        <time>2026-05-24T07:11:13.000Z</time>
      </trkpt>
      <trkpt lat="43.06705" lon="0.33692">
        <ele>617.4</ele>
        <time>2026-05-24T07:11:22.000Z</time>
      </trkpt>
      <trkpt lat="43.0672" lon="0.33679">
        <ele>620.12</ele>
        <time>2026-05-24T07:11:33.000Z</time>
      </trkpt>
      <trkpt lat="43.06734" lon="0.33662">
        <ele>619.79</ele>
        <time>2026-05-24T07:13:06.000Z</time>
      </trkpt>
      <trkpt lat="43.06746" lon="0.33642">
        <ele>620.71</ele>
        <time>2026-05-24T07:13:25.000Z</time>
      </trkpt>
      <trkpt lat="43.06756" lon="0.3362">
        <ele>623.26</ele>
        <time>2026-05-24T07:13:37.000Z</time>
      </trkpt>
      <trkpt lat="43.06767" lon="0.33599">
        <ele>626.9</ele>
        <time>2026-05-24T07:13:51.000Z</time>
      </trkpt>
      <trkpt lat="43.06777" lon="0.33577">
        <ele>632.36</ele>
        <time>2026-05-24T07:14:07.000Z</time>
      </trkpt>
      <trkpt lat="43.06788" lon="0.33557">
        <ele>634.7</ele>
        <time>2026-05-24T07:14:21.000Z</time>
      </trkpt>
      <trkpt lat="43.06798" lon="0.33536">
        <ele>637.6</ele>
        <time>2026-05-24T07:14:34.000Z</time>
      </trkpt>
      <trkpt lat="43.06807" lon="0.33514">
        <ele>639.84</ele>
        <time>2026-05-24T07:14:46.000Z</time>
      </trkpt>
      <trkpt lat="43.06825" lon="0.33505">
        <ele>641.8</ele>
        <time>2026-05-24T07:15:00.000Z</time>
      </trkpt>
      <trkpt lat="43.06843" lon="0.33498">
        <ele>647.31</ele>
        <time>2026-05-24T07:15:16.000Z</time>
      </trkpt>
      <trkpt lat="43.06861" lon="0.33492">
        <ele>651.94</ele>
        <time>2026-05-24T07:15:29.000Z</time>
      </trkpt>
      <trkpt lat="43.0688" lon="0.33486">
        <ele>655.07</ele>
        <time>2026-05-24T07:15:39.000Z</time>
      </trkpt>
      <trkpt lat="43.06898" lon="0.33483">
        <ele>654.2</ele>
        <time>2026-05-24T07:15:46.000Z</time>
      </trkpt>
      <trkpt lat="43.06916" lon="0.33475">
        <ele>653.08</ele>
        <time>2026-05-24T07:15:52.000Z</time>
      </trkpt>
      <trkpt lat="43.06934" lon="0.33468">
        <ele>652.09</ele>
        <time>2026-05-24T07:15:59.000Z</time>
      </trkpt>
      <trkpt lat="43.06952" lon="0.33459">
        <ele>651.39</ele>
        <time>2026-05-24T07:16:05.000Z</time>
      </trkpt>
      <trkpt lat="43.0697" lon="0.33443">
        <ele>651.13</ele>
        <time>2026-05-24T07:16:11.000Z</time>
      </trkpt>
      <trkpt lat="43.06986" lon="0.3343">
        <ele>650.36</ele>
        <time>2026-05-24T07:16:16.000Z</time>
      </trkpt>
      <trkpt lat="43.07003" lon="0.33415">
        <ele>649.19</ele>
        <time>2026-05-24T07:16:20.000Z</time>
      </trkpt>
      <trkpt lat="43.07023" lon="0.33405">
        <ele>648.55</ele>
        <time>2026-05-24T07:16:24.000Z</time>
      </trkpt>
      <trkpt lat="43.07044" lon="0.33401">
        <ele>648.4</ele>
        <time>2026-05-24T07:16:28.000Z</time>
      </trkpt>
      <trkpt lat="43.07061" lon="0.33394">
        <ele>648.44</ele>
        <time>2026-05-24T07:16:32.000Z</time>
      </trkpt>
      <trkpt lat="43.07079" lon="0.33374">
        <ele>647.75</ele>
        <time>2026-05-24T07:16:37.000Z</time>
      </trkpt>
      <trkpt lat="43.07089" lon="0.33347">
        <ele>646.61</ele>
        <time>2026-05-24T07:16:41.000Z</time>
      </trkpt>
      <trkpt lat="43.07096" lon="0.3332">
        <ele>646.3</ele>
        <time>2026-05-24T07:16:45.000Z</time>
      </trkpt>
      <trkpt lat="43.07106" lon="0.33296">
        <ele>643.72</ele>
        <time>2026-05-24T07:16:49.000Z</time>
      </trkpt>
      <trkpt lat="43.07118" lon="0.33275">
        <ele>641.96</ele>
        <time>2026-05-24T07:16:52.000Z</time>
      </trkpt>
      <trkpt lat="43.07127" lon="0.33253">
        <ele>640</ele>
        <time>2026-05-24T07:16:55.000Z</time>
      </trkpt>
      <trkpt lat="43.07137" lon="0.3323">
        <ele>639.77</ele>
        <time>2026-05-24T07:16:58.000Z</time>
      </trkpt>
      <trkpt lat="43.07146" lon="0.332">
        <ele>638.5</ele>
        <time>2026-05-24T07:17:02.000Z</time>
      </trkpt>
      <trkpt lat="43.07154" lon="0.33175">
        <ele>637.76</ele>
        <time>2026-05-24T07:17:05.000Z</time>
      </trkpt>
      <trkpt lat="43.07164" lon="0.33148">
        <ele>640.15</ele>
        <time>2026-05-24T07:17:08.000Z</time>
      </trkpt>
      <trkpt lat="43.07176" lon="0.33125">
        <ele>640.38</ele>
        <time>2026-05-24T07:17:11.000Z</time>
      </trkpt>
      <trkpt lat="43.07192" lon="0.33103">
        <ele>638.05</ele>
        <time>2026-05-24T07:17:14.000Z</time>
      </trkpt>
      <trkpt lat="43.07213" lon="0.33086">
        <ele>634.29</ele>
        <time>2026-05-24T07:17:17.000Z</time>
      </trkpt>
      <trkpt lat="43.07235" lon="0.33075">
        <ele>633.79</ele>
        <time>2026-05-24T07:17:20.000Z</time>
      </trkpt>
      <trkpt lat="43.07255" lon="0.33071">
        <ele>632.67</ele>
        <time>2026-05-24T07:17:22.000Z</time>
      </trkpt>
      <trkpt lat="43.07275" lon="0.33071">
        <ele>631.23</ele>
        <time>2026-05-24T07:17:24.000Z</time>
      </trkpt>
      <trkpt lat="43.07295" lon="0.3307">
        <ele>628.59</ele>
        <time>2026-05-24T07:17:26.000Z</time>
      </trkpt>
      <trkpt lat="43.07317" lon="0.33074">
        <ele>626.99</ele>
        <time>2026-05-24T07:17:28.000Z</time>
      </trkpt>
      <trkpt lat="43.0734" lon="0.33079">
        <ele>625.43</ele>
        <time>2026-05-24T07:17:30.000Z</time>
      </trkpt>
      <trkpt lat="43.07364" lon="0.33084">
        <ele>623</ele>
        <time>2026-05-24T07:17:32.000Z</time>
      </trkpt>
      <trkpt lat="43.07384" lon="0.33089">
        <ele>621.85</ele>
        <time>2026-05-24T07:17:34.000Z</time>
      </trkpt>
      <trkpt lat="43.07409" lon="0.33088">
        <ele>620.68</ele>
        <time>2026-05-24T07:17:37.000Z</time>
      </trkpt>
      <trkpt lat="43.07433" lon="0.33082">
        <ele>619.19</ele>
        <time>2026-05-24T07:17:40.000Z</time>
      </trkpt>
      <trkpt lat="43.07456" lon="0.33068">
        <ele>617.74</ele>
        <time>2026-05-24T07:17:43.000Z</time>
      </trkpt>
      <trkpt lat="43.07479" lon="0.33052">
        <ele>615.26</ele>
        <time>2026-05-24T07:17:46.000Z</time>
      </trkpt>
      <trkpt lat="43.07505" lon="0.33035">
        <ele>613.41</ele>
        <time>2026-05-24T07:17:49.000Z</time>
      </trkpt>
      <trkpt lat="43.07521" lon="0.33024">
        <ele>612.33</ele>
        <time>2026-05-24T07:17:51.000Z</time>
      </trkpt>
      <trkpt lat="43.0754" lon="0.33011">
        <ele>608.72</ele>
        <time>2026-05-24T07:17:53.000Z</time>
      </trkpt>
      <trkpt lat="43.07558" lon="0.32993">
        <ele>605.72</ele>
        <time>2026-05-24T07:17:55.000Z</time>
      </trkpt>
      <trkpt lat="43.07576" lon="0.32974">
        <ele>602.53</ele>
        <time>2026-05-24T07:17:57.000Z</time>
      </trkpt>
      <trkpt lat="43.07596" lon="0.32962">
        <ele>599.41</ele>
        <time>2026-05-24T07:17:59.000Z</time>
      </trkpt>
      <trkpt lat="43.07613" lon="0.32949">
        <ele>598.04</ele>
        <time>2026-05-24T07:18:01.000Z</time>
      </trkpt>
      <trkpt lat="43.07628" lon="0.32932">
        <ele>597.67</ele>
        <time>2026-05-24T07:18:03.000Z</time>
      </trkpt>
      <trkpt lat="43.07645" lon="0.32912">
        <ele>596.5</ele>
        <time>2026-05-24T07:18:05.000Z</time>
      </trkpt>
      <trkpt lat="43.07662" lon="0.32892">
        <ele>593.27</ele>
        <time>2026-05-24T07:18:07.000Z</time>
      </trkpt>
      <trkpt lat="43.07677" lon="0.32871">
        <ele>590.22</ele>
        <time>2026-05-24T07:18:09.000Z</time>
      </trkpt>
      <trkpt lat="43.07694" lon="0.3285">
        <ele>587.26</ele>
        <time>2026-05-24T07:18:12.000Z</time>
      </trkpt>
      <trkpt lat="43.07709" lon="0.32828">
        <ele>583.03</ele>
        <time>2026-05-24T07:18:17.000Z</time>
      </trkpt>
      <trkpt lat="43.07721" lon="0.3281">
        <ele>580.25</ele>
        <time>2026-05-24T07:18:26.000Z</time>
      </trkpt>
      <trkpt lat="43.07736" lon="0.32788">
        <ele>579.41</ele>
        <time>2026-05-24T07:22:14.000Z</time>
      </trkpt>
      <trkpt lat="43.07746" lon="0.3276">
        <ele>577.41</ele>
        <time>2026-05-24T07:22:18.000Z</time>
      </trkpt>
      <trkpt lat="43.07753" lon="0.3273">
        <ele>572.73</ele>
        <time>2026-05-24T07:22:21.000Z</time>
      </trkpt>
      <trkpt lat="43.0776" lon="0.32701">
        <ele>568.91</ele>
        <time>2026-05-24T07:22:24.000Z</time>
      </trkpt>
      <trkpt lat="43.0777" lon="0.32675">
        <ele>565.62</ele>
        <time>2026-05-24T07:22:27.000Z</time>
      </trkpt>
      <trkpt lat="43.07781" lon="0.32643">
        <ele>564.07</ele>
        <time>2026-05-24T07:22:30.000Z</time>
      </trkpt>
      <trkpt lat="43.07788" lon="0.3262">
        <ele>563.49</ele>
        <time>2026-05-24T07:22:32.000Z</time>
      </trkpt>
      <trkpt lat="43.07798" lon="0.32597">
        <ele>562.13</ele>
        <time>2026-05-24T07:22:34.000Z</time>
      </trkpt>
      <trkpt lat="43.07808" lon="0.32576">
        <ele>560.41</ele>
        <time>2026-05-24T07:22:36.000Z</time>
      </trkpt>
      <trkpt lat="43.07819" lon="0.32555">
        <ele>558.88</ele>
        <time>2026-05-24T07:22:38.000Z</time>
      </trkpt>
      <trkpt lat="43.07831" lon="0.32535">
        <ele>557.1</ele>
        <time>2026-05-24T07:22:40.000Z</time>
      </trkpt>
      <trkpt lat="43.07852" lon="0.32513">
        <ele>554.66</ele>
        <time>2026-05-24T07:22:43.000Z</time>
      </trkpt>
      <trkpt lat="43.07869" lon="0.32502">
        <ele>552.74</ele>
        <time>2026-05-24T07:22:45.000Z</time>
      </trkpt>
      <trkpt lat="43.07884" lon="0.3249">
        <ele>551.85</ele>
        <time>2026-05-24T07:22:47.000Z</time>
      </trkpt>
      <trkpt lat="43.07904" lon="0.32478">
        <ele>552.97</ele>
        <time>2026-05-24T07:22:50.000Z</time>
      </trkpt>
      <trkpt lat="43.07919" lon="0.32462">
        <ele>551.34</ele>
        <time>2026-05-24T07:22:52.000Z</time>
      </trkpt>
      <trkpt lat="43.07931" lon="0.32445">
        <ele>550.43</ele>
        <time>2026-05-24T07:22:56.000Z</time>
      </trkpt>
      <trkpt lat="43.07943" lon="0.32424">
        <ele>551.1</ele>
        <time>2026-05-24T07:23:00.000Z</time>
      </trkpt>
      <trkpt lat="43.07961" lon="0.32402">
        <ele>548.59</ele>
        <time>2026-05-24T07:23:04.000Z</time>
      </trkpt>
      <trkpt lat="43.07978" lon="0.3239">
        <ele>547.46</ele>
        <time>2026-05-24T07:23:07.000Z</time>
      </trkpt>
      <trkpt lat="43.07997" lon="0.32372">
        <ele>543.7</ele>
        <time>2026-05-24T07:23:10.000Z</time>
      </trkpt>
      <trkpt lat="43.08012" lon="0.32348">
        <ele>543.29</ele>
        <time>2026-05-24T07:23:13.000Z</time>
      </trkpt>
      <trkpt lat="43.0802" lon="0.32317">
        <ele>538.14</ele>
        <time>2026-05-24T07:23:16.000Z</time>
      </trkpt>
      <trkpt lat="43.08026" lon="0.32286">
        <ele>537.37</ele>
        <time>2026-05-24T07:23:19.000Z</time>
      </trkpt>
      <trkpt lat="43.08032" lon="0.32258">
        <ele>535.86</ele>
        <time>2026-05-24T07:23:22.000Z</time>
      </trkpt>
      <trkpt lat="43.08035" lon="0.32227">
        <ele>535.56</ele>
        <time>2026-05-24T07:23:25.000Z</time>
      </trkpt>
      <trkpt lat="43.0804" lon="0.32203">
        <ele>532.01</ele>
        <time>2026-05-24T07:23:27.000Z</time>
      </trkpt>
      <trkpt lat="43.08046" lon="0.32171">
        <ele>531.13</ele>
        <time>2026-05-24T07:23:30.000Z</time>
      </trkpt>
      <trkpt lat="43.08048" lon="0.32134">
        <ele>530.51</ele>
        <time>2026-05-24T07:23:33.000Z</time>
      </trkpt>
      <trkpt lat="43.08044" lon="0.32099">
        <ele>527.99</ele>
        <time>2026-05-24T07:23:36.000Z</time>
      </trkpt>
      <trkpt lat="43.08044" lon="0.32064">
        <ele>527.56</ele>
        <time>2026-05-24T07:23:39.000Z</time>
      </trkpt>
      <trkpt lat="43.08042" lon="0.32039">
        <ele>525.1</ele>
        <time>2026-05-24T07:23:41.000Z</time>
      </trkpt>
      <trkpt lat="43.08041" lon="0.32004">
        <ele>524.09</ele>
        <time>2026-05-24T07:23:44.000Z</time>
      </trkpt>
      <trkpt lat="43.08037" lon="0.31969">
        <ele>524.69</ele>
        <time>2026-05-24T07:23:47.000Z</time>
      </trkpt>
      <trkpt lat="43.08033" lon="0.31935">
        <ele>520.07</ele>
        <time>2026-05-24T07:23:50.000Z</time>
      </trkpt>
      <trkpt lat="43.0803" lon="0.3191">
        <ele>520.22</ele>
        <time>2026-05-24T07:23:52.000Z</time>
      </trkpt>
      <trkpt lat="43.08025" lon="0.31875">
        <ele>519.93</ele>
        <time>2026-05-24T07:23:55.000Z</time>
      </trkpt>
      <trkpt lat="43.08019" lon="0.31846">
        <ele>521.44</ele>
        <time>2026-05-24T07:23:58.000Z</time>
      </trkpt>
      <trkpt lat="43.08015" lon="0.31818">
        <ele>521.1</ele>
        <time>2026-05-24T07:24:02.000Z</time>
      </trkpt>
      <trkpt lat="43.08013" lon="0.31785">
        <ele>520.44</ele>
        <time>2026-05-24T07:24:06.000Z</time>
      </trkpt>
      <trkpt lat="43.08011" lon="0.31752">
        <ele>515.45</ele>
        <time>2026-05-24T07:24:09.000Z</time>
      </trkpt>
      <trkpt lat="43.08005" lon="0.31721">
        <ele>516.03</ele>
        <time>2026-05-24T07:24:12.000Z</time>
      </trkpt>
      <trkpt lat="43.07997" lon="0.31686">
        <ele>510.2</ele>
        <time>2026-05-24T07:24:15.000Z</time>
      </trkpt>
      <trkpt lat="43.07992" lon="0.31658">
        <ele>511.42</ele>
        <time>2026-05-24T07:24:18.000Z</time>
      </trkpt>
      <trkpt lat="43.0799" lon="0.31628">
        <ele>515.67</ele>
        <time>2026-05-24T07:24:22.000Z</time>
      </trkpt>
      <trkpt lat="43.07987" lon="0.31602">
        <ele>519.29</ele>
        <time>2026-05-24T07:24:26.000Z</time>
      </trkpt>
      <trkpt lat="43.0798" lon="0.31575">
        <ele>517.29</ele>
        <time>2026-05-24T07:24:31.000Z</time>
      </trkpt>
      <trkpt lat="43.07973" lon="0.31548">
        <ele>521.69</ele>
        <time>2026-05-24T07:24:38.000Z</time>
      </trkpt>
      <trkpt lat="43.07966" lon="0.31522">
        <ele>526.9</ele>
        <time>2026-05-24T07:24:46.000Z</time>
      </trkpt>
      <trkpt lat="43.07957" lon="0.31497">
        <ele>527.95</ele>
        <time>2026-05-24T07:24:53.000Z</time>
      </trkpt>
      <trkpt lat="43.07954" lon="0.31471">
        <ele>525.76</ele>
        <time>2026-05-24T07:24:58.000Z</time>
      </trkpt>
      <trkpt lat="43.07951" lon="0.31446">
        <ele>522</ele>
        <time>2026-05-24T07:25:01.000Z</time>
      </trkpt>
      <trkpt lat="43.07941" lon="0.31417">
        <ele>518.11</ele>
        <time>2026-05-24T07:25:04.000Z</time>
      </trkpt>
      <trkpt lat="43.07933" lon="0.31386">
        <ele>515.24</ele>
        <time>2026-05-24T07:25:07.000Z</time>
      </trkpt>
      <trkpt lat="43.07925" lon="0.31352">
        <ele>513.86</ele>
        <time>2026-05-24T07:25:10.000Z</time>
      </trkpt>
      <trkpt lat="43.07919" lon="0.31329">
        <ele>512.65</ele>
        <time>2026-05-24T07:25:12.000Z</time>
      </trkpt>
      <trkpt lat="43.07913" lon="0.31305">
        <ele>511.33</ele>
        <time>2026-05-24T07:25:14.000Z</time>
      </trkpt>
      <trkpt lat="43.07908" lon="0.3128">
        <ele>509.59</ele>
        <time>2026-05-24T07:25:16.000Z</time>
      </trkpt>
      <trkpt lat="43.07906" lon="0.31255">
        <ele>508.32</ele>
        <time>2026-05-24T07:25:18.000Z</time>
      </trkpt>
      <trkpt lat="43.07904" lon="0.3123">
        <ele>507.33</ele>
        <time>2026-05-24T07:25:20.000Z</time>
      </trkpt>
      <trkpt lat="43.07897" lon="0.31198">
        <ele>504.07</ele>
        <time>2026-05-24T07:25:23.000Z</time>
      </trkpt>
      <trkpt lat="43.07895" lon="0.31171">
        <ele>501.7</ele>
        <time>2026-05-24T07:25:27.000Z</time>
      </trkpt>
      <trkpt lat="43.07894" lon="0.31147">
        <ele>500.71</ele>
        <time>2026-05-24T07:25:33.000Z</time>
      </trkpt>
      <trkpt lat="43.079" lon="0.31121">
        <ele>500.85</ele>
        <time>2026-05-24T07:25:37.000Z</time>
      </trkpt>
      <trkpt lat="43.07908" lon="0.31096">
        <ele>501.25</ele>
        <time>2026-05-24T07:25:41.000Z</time>
      </trkpt>
      <trkpt lat="43.07925" lon="0.31115">
        <ele>493.66</ele>
        <time>2026-05-24T07:25:48.000Z</time>
      </trkpt>
      <trkpt lat="43.07938" lon="0.31134">
        <ele>491.14</ele>
        <time>2026-05-24T07:25:52.000Z</time>
      </trkpt>
      <trkpt lat="43.07949" lon="0.31159">
        <ele>488.48</ele>
        <time>2026-05-24T07:25:56.000Z</time>
      </trkpt>
      <trkpt lat="43.07959" lon="0.31185">
        <ele>484.77</ele>
        <time>2026-05-24T07:26:00.000Z</time>
      </trkpt>
      <trkpt lat="43.07968" lon="0.3121">
        <ele>486.19</ele>
        <time>2026-05-24T07:26:04.000Z</time>
      </trkpt>
      <trkpt lat="43.07979" lon="0.31236">
        <ele>479.93</ele>
        <time>2026-05-24T07:26:07.000Z</time>
      </trkpt>
      <trkpt lat="43.07989" lon="0.31259">
        <ele>477.78</ele>
        <time>2026-05-24T07:26:10.000Z</time>
      </trkpt>
      <trkpt lat="43.08005" lon="0.31286">
        <ele>475.37</ele>
        <time>2026-05-24T07:26:13.000Z</time>
      </trkpt>
      <trkpt lat="43.08017" lon="0.31306">
        <ele>475.82</ele>
        <time>2026-05-24T07:26:16.000Z</time>
      </trkpt>
      <trkpt lat="43.08032" lon="0.31329">
        <ele>471.68</ele>
        <time>2026-05-24T07:26:20.000Z</time>
      </trkpt>
      <trkpt lat="43.08052" lon="0.31349">
        <ele>469.25</ele>
        <time>2026-05-24T07:26:24.000Z</time>
      </trkpt>
      <trkpt lat="43.08072" lon="0.31357">
        <ele>470.66</ele>
        <time>2026-05-24T07:26:28.000Z</time>
      </trkpt>
      <trkpt lat="43.08089" lon="0.31367">
        <ele>468.75</ele>
        <time>2026-05-24T07:26:31.000Z</time>
      </trkpt>
      <trkpt lat="43.08107" lon="0.31378">
        <ele>468.05</ele>
        <time>2026-05-24T07:26:35.000Z</time>
      </trkpt>
      <trkpt lat="43.08127" lon="0.31385">
        <ele>466.72</ele>
        <time>2026-05-24T07:26:38.000Z</time>
      </trkpt>
      <trkpt lat="43.08143" lon="0.31402">
        <ele>463.72</ele>
        <time>2026-05-24T07:26:41.000Z</time>
      </trkpt>
      <trkpt lat="43.08156" lon="0.31421">
        <ele>459.47</ele>
        <time>2026-05-24T07:26:44.000Z</time>
      </trkpt>
      <trkpt lat="43.0817" lon="0.31446">
        <ele>458.27</ele>
        <time>2026-05-24T07:26:48.000Z</time>
      </trkpt>
      <trkpt lat="43.08182" lon="0.31467">
        <ele>457.1</ele>
        <time>2026-05-24T07:26:52.000Z</time>
      </trkpt>
      <trkpt lat="43.08189" lon="0.31489">
        <ele>445.3</ele>
        <time>2026-05-24T07:26:57.000Z</time>
      </trkpt>
      <trkpt lat="43.08189" lon="0.31514">
        <ele>447</ele>
        <time>2026-05-24T07:27:02.000Z</time>
      </trkpt>
      <trkpt lat="43.08199" lon="0.31533">
        <ele>455.94</ele>
        <time>2026-05-24T07:27:14.000Z</time>
      </trkpt>
      <trkpt lat="43.08212" lon="0.31556">
        <ele>446.1</ele>
        <time>2026-05-24T07:27:24.000Z</time>
      </trkpt>
      <trkpt lat="43.08219" lon="0.31586">
        <ele>447</ele>
        <time>2026-05-24T07:27:34.000Z</time>
      </trkpt>
      <trkpt lat="43.08218" lon="0.31609">
        <ele>463.47</ele>
        <time>2026-05-24T07:27:43.000Z</time>
      </trkpt>
      <trkpt lat="43.08218" lon="0.31642">
        <ele>449.7</ele>
        <time>2026-05-24T07:27:55.000Z</time>
      </trkpt>
      <trkpt lat="43.08215" lon="0.31666">
        <ele>450.8</ele>
        <time>2026-05-24T07:28:02.000Z</time>
      </trkpt>
      <trkpt lat="43.08215" lon="0.31687">
        <ele>451.3</ele>
        <time>2026-05-24T07:28:09.000Z</time>
      </trkpt>
      <trkpt lat="43.08213" lon="0.31711">
        <ele>479.11</ele>
        <time>2026-05-24T07:28:15.000Z</time>
      </trkpt>
      <trkpt lat="43.08215" lon="0.31738">
        <ele>480.45</ele>
        <time>2026-05-24T07:28:21.000Z</time>
      </trkpt>
      <trkpt lat="43.08221" lon="0.31764">
        <ele>482.2</ele>
        <time>2026-05-24T07:28:27.000Z</time>
      </trkpt>
      <trkpt lat="43.08228" lon="0.31791">
        <ele>479.1</ele>
        <time>2026-05-24T07:28:33.000Z</time>
      </trkpt>
      <trkpt lat="43.08235" lon="0.31818">
        <ele>452.6</ele>
        <time>2026-05-24T07:28:40.000Z</time>
      </trkpt>
      <trkpt lat="43.08238" lon="0.31848">
        <ele>454.5</ele>
        <time>2026-05-24T07:28:46.000Z</time>
      </trkpt>
      <trkpt lat="43.08237" lon="0.31874">
        <ele>456.1</ele>
        <time>2026-05-24T07:28:53.000Z</time>
      </trkpt>
      <trkpt lat="43.08241" lon="0.319">
        <ele>475.53</ele>
        <time>2026-05-24T07:28:59.000Z</time>
      </trkpt>
      <trkpt lat="43.08247" lon="0.31924">
        <ele>473.42</ele>
        <time>2026-05-24T07:29:05.000Z</time>
      </trkpt>
      <trkpt lat="43.0825" lon="0.31951">
        <ele>471.38</ele>
        <time>2026-05-24T07:29:10.000Z</time>
      </trkpt>
      <trkpt lat="43.08254" lon="0.31976">
        <ele>473.13</ele>
        <time>2026-05-24T07:29:15.000Z</time>
      </trkpt>
      <trkpt lat="43.0826" lon="0.32003">
        <ele>471.5</ele>
        <time>2026-05-24T07:29:20.000Z</time>
      </trkpt>
      <trkpt lat="43.08268" lon="0.32031">
        <ele>467.82</ele>
        <time>2026-05-24T07:29:25.000Z</time>
      </trkpt>
      <trkpt lat="43.08275" lon="0.32054">
        <ele>466.89</ele>
        <time>2026-05-24T07:29:30.000Z</time>
      </trkpt>
      <trkpt lat="43.08273" lon="0.3208">
        <ele>468.79</ele>
        <time>2026-05-24T07:29:36.000Z</time>
      </trkpt>
      <trkpt lat="43.08273" lon="0.32106">
        <ele>474.18</ele>
        <time>2026-05-24T07:29:42.000Z</time>
      </trkpt>
      <trkpt lat="43.08273" lon="0.32132">
        <ele>473.91</ele>
        <time>2026-05-24T07:29:48.000Z</time>
      </trkpt>
      <trkpt lat="43.08275" lon="0.32158">
        <ele>476.97</ele>
        <time>2026-05-24T07:29:54.000Z</time>
      </trkpt>
      <trkpt lat="43.08276" lon="0.32183">
        <ele>481.29</ele>
        <time>2026-05-24T07:30:00.000Z</time>
      </trkpt>
      <trkpt lat="43.08277" lon="0.32208">
        <ele>483.88</ele>
        <time>2026-05-24T07:30:05.000Z</time>
      </trkpt>
      <trkpt lat="43.08274" lon="0.32236">
        <ele>483.82</ele>
        <time>2026-05-24T07:30:11.000Z</time>
      </trkpt>
      <trkpt lat="43.0827" lon="0.32261">
        <ele>481.63</ele>
        <time>2026-05-24T07:30:16.000Z</time>
      </trkpt>
      <trkpt lat="43.08269" lon="0.32289">
        <ele>484.85</ele>
        <time>2026-05-24T07:30:23.000Z</time>
      </trkpt>
      <trkpt lat="43.08269" lon="0.32315">
        <ele>484.88</ele>
        <time>2026-05-24T07:30:31.000Z</time>
      </trkpt>
      <trkpt lat="43.08265" lon="0.3234">
        <ele>484.85</ele>
        <time>2026-05-24T07:30:39.000Z</time>
      </trkpt>
      <trkpt lat="43.08257" lon="0.32363">
        <ele>482.26</ele>
        <time>2026-05-24T07:30:44.000Z</time>
      </trkpt>
      <trkpt lat="43.08246" lon="0.32385">
        <ele>478.82</ele>
        <time>2026-05-24T07:30:50.000Z</time>
      </trkpt>
      <trkpt lat="43.08235" lon="0.32408">
        <ele>479.76</ele>
        <time>2026-05-24T07:30:56.000Z</time>
      </trkpt>
      <trkpt lat="43.08228" lon="0.32431">
        <ele>483.64</ele>
        <time>2026-05-24T07:31:02.000Z</time>
      </trkpt>
      <trkpt lat="43.0822" lon="0.32455">
        <ele>489.41</ele>
        <time>2026-05-24T07:31:09.000Z</time>
      </trkpt>
      <trkpt lat="43.08215" lon="0.32482">
        <ele>486.5</ele>
        <time>2026-05-24T07:31:15.000Z</time>
      </trkpt>
      <trkpt lat="43.08209" lon="0.32507">
        <ele>482.63</ele>
        <time>2026-05-24T07:31:21.000Z</time>
      </trkpt>
      <trkpt lat="43.08198" lon="0.32542">
        <ele>467</ele>
        <time>2026-05-24T07:31:27.000Z</time>
      </trkpt>
      <trkpt lat="43.08185" lon="0.32559">
        <ele>468.2</ele>
        <time>2026-05-24T07:31:33.000Z</time>
      </trkpt>
      <trkpt lat="43.08177" lon="0.32574">
        <ele>491.35</ele>
        <time>2026-05-24T07:31:39.000Z</time>
      </trkpt>
      <trkpt lat="43.08175" lon="0.32601">
        <ele>489.72</ele>
        <time>2026-05-24T07:31:46.000Z</time>
      </trkpt>
      <trkpt lat="43.08171" lon="0.32626">
        <ele>489.84</ele>
        <time>2026-05-24T07:31:53.000Z</time>
      </trkpt>
      <trkpt lat="43.08163" lon="0.32652">
        <ele>493.07</ele>
        <time>2026-05-24T07:32:00.000Z</time>
      </trkpt>
      <trkpt lat="43.08156" lon="0.32678">
        <ele>493.76</ele>
        <time>2026-05-24T07:32:07.000Z</time>
      </trkpt>
      <trkpt lat="43.08148" lon="0.32703">
        <ele>494.25</ele>
        <time>2026-05-24T07:32:14.000Z</time>
      </trkpt>
      <trkpt lat="43.08141" lon="0.32726">
        <ele>496.05</ele>
        <time>2026-05-24T07:32:20.000Z</time>
      </trkpt>
      <trkpt lat="43.08136" lon="0.32757">
        <ele>501.18</ele>
        <time>2026-05-24T07:32:28.000Z</time>
      </trkpt>
      <trkpt lat="43.08129" lon="0.32782">
        <ele>500.03</ele>
        <time>2026-05-24T07:32:36.000Z</time>
      </trkpt>
      <trkpt lat="43.08129" lon="0.3281">
        <ele>501.88</ele>
        <time>2026-05-24T07:32:45.000Z</time>
      </trkpt>
      <trkpt lat="43.08129" lon="0.32835">
        <ele>504.21</ele>
        <time>2026-05-24T07:32:52.000Z</time>
      </trkpt>
      <trkpt lat="43.08126" lon="0.32864">
        <ele>504.67</ele>
        <time>2026-05-24T07:32:58.000Z</time>
      </trkpt>
      <trkpt lat="43.0812" lon="0.32891">
        <ele>506.81</ele>
        <time>2026-05-24T07:33:05.000Z</time>
      </trkpt>
      <trkpt lat="43.08114" lon="0.32916">
        <ele>512.22</ele>
        <time>2026-05-24T07:33:12.000Z</time>
      </trkpt>
      <trkpt lat="43.0811" lon="0.32942">
        <ele>512.33</ele>
        <time>2026-05-24T07:33:18.000Z</time>
      </trkpt>
      <trkpt lat="43.08109" lon="0.32967">
        <ele>510.14</ele>
        <time>2026-05-24T07:33:24.000Z</time>
      </trkpt>
      <trkpt lat="43.08106" lon="0.32993">
        <ele>510.77</ele>
        <time>2026-05-24T07:33:30.000Z</time>
      </trkpt>
      <trkpt lat="43.08101" lon="0.33021">
        <ele>507.63</ele>
        <time>2026-05-24T07:33:36.000Z</time>
      </trkpt>
      <trkpt lat="43.08096" lon="0.33048">
        <ele>506.51</ele>
        <time>2026-05-24T07:33:42.000Z</time>
      </trkpt>
      <trkpt lat="43.08091" lon="0.33074">
        <ele>506.41</ele>
        <time>2026-05-24T07:33:47.000Z</time>
      </trkpt>
      <trkpt lat="43.08085" lon="0.33101">
        <ele>507.47</ele>
        <time>2026-05-24T07:33:54.000Z</time>
      </trkpt>
      <trkpt lat="43.08082" lon="0.33125">
        <ele>507.42</ele>
        <time>2026-05-24T07:34:01.000Z</time>
      </trkpt>
      <trkpt lat="43.08074" lon="0.3315">
        <ele>507.95</ele>
        <time>2026-05-24T07:34:11.000Z</time>
      </trkpt>
      <trkpt lat="43.08062" lon="0.3317">
        <ele>511.78</ele>
        <time>2026-05-24T07:34:23.000Z</time>
      </trkpt>
      <trkpt lat="43.08053" lon="0.33193">
        <ele>511.34</ele>
        <time>2026-05-24T07:34:34.000Z</time>
      </trkpt>
      <trkpt lat="43.08044" lon="0.33218">
        <ele>515.12</ele>
        <time>2026-05-24T07:34:44.000Z</time>
      </trkpt>
      <trkpt lat="43.08031" lon="0.33236">
        <ele>516.44</ele>
        <time>2026-05-24T07:34:53.000Z</time>
      </trkpt>
      <trkpt lat="43.08016" lon="0.33254">
        <ele>519.85</ele>
        <time>2026-05-24T07:35:04.000Z</time>
      </trkpt>
      <trkpt lat="43.08002" lon="0.33271">
        <ele>517.34</ele>
        <time>2026-05-24T07:35:11.000Z</time>
      </trkpt>
      <trkpt lat="43.07987" lon="0.33287">
        <ele>518.12</ele>
        <time>2026-05-24T07:35:19.000Z</time>
      </trkpt>
      <trkpt lat="43.07971" lon="0.33298">
        <ele>520.47</ele>
        <time>2026-05-24T07:35:26.000Z</time>
      </trkpt>
      <trkpt lat="43.07954" lon="0.33314">
        <ele>524.55</ele>
        <time>2026-05-24T07:35:33.000Z</time>
      </trkpt>
      <trkpt lat="43.07938" lon="0.33327">
        <ele>528.51</ele>
        <time>2026-05-24T07:35:40.000Z</time>
      </trkpt>
      <trkpt lat="43.07925" lon="0.33344">
        <ele>525.45</ele>
        <time>2026-05-24T07:35:46.000Z</time>
      </trkpt>
      <trkpt lat="43.07919" lon="0.33371">
        <ele>521.52</ele>
        <time>2026-05-24T07:35:53.000Z</time>
      </trkpt>
      <trkpt lat="43.07912" lon="0.33404">
        <ele>496.2</ele>
        <time>2026-05-24T07:36:01.000Z</time>
      </trkpt>
      <trkpt lat="43.07896" lon="0.33424">
        <ele>499.7</ele>
        <time>2026-05-24T07:36:14.000Z</time>
      </trkpt>
      <trkpt lat="43.0788" lon="0.33434">
        <ele>502.5</ele>
        <time>2026-05-24T07:36:21.000Z</time>
      </trkpt>
      <trkpt lat="43.07867" lon="0.33451">
        <ele>502.7</ele>
        <time>2026-05-24T07:36:31.000Z</time>
      </trkpt>
      <trkpt lat="43.07852" lon="0.33466">
        <ele>535.35</ele>
        <time>2026-05-24T07:36:41.000Z</time>
      </trkpt>
      <trkpt lat="43.07839" lon="0.33486">
        <ele>536.74</ele>
        <time>2026-05-24T07:36:53.000Z</time>
      </trkpt>
      <trkpt lat="43.07827" lon="0.33506">
        <ele>538.85</ele>
        <time>2026-05-24T07:37:04.000Z</time>
      </trkpt>
      <trkpt lat="43.07814" lon="0.33525">
        <ele>536.63</ele>
        <time>2026-05-24T07:37:13.000Z</time>
      </trkpt>
      <trkpt lat="43.07801" lon="0.33543">
        <ele>508.4</ele>
        <time>2026-05-24T07:37:21.000Z</time>
      </trkpt>
      <trkpt lat="43.07778" lon="0.33529">
        <ele>535.65</ele>
        <time>2026-05-24T07:37:32.000Z</time>
      </trkpt>
      <trkpt lat="43.07759" lon="0.33527">
        <ele>538.77</ele>
        <time>2026-05-24T07:37:39.000Z</time>
      </trkpt>
      <trkpt lat="43.07741" lon="0.3353">
        <ele>513.3</ele>
      </trkpt>
      <trkpt lat="43.0774" lon="0.33552">
        <ele>512.9</ele>
        <time>2026-05-24T07:37:45.000Z</time>
      </trkpt>
      <trkpt lat="43.0776" lon="0.33569">
        <ele>530.5</ele>
        <time>2026-05-24T07:37:53.000Z</time>
      </trkpt>
      <trkpt lat="43.07771" lon="0.33592">
        <ele>531.25</ele>
        <time>2026-05-24T07:38:00.000Z</time>
      </trkpt>
      <trkpt lat="43.07783" lon="0.33616">
        <ele>530.25</ele>
        <time>2026-05-24T07:38:06.000Z</time>
      </trkpt>
      <trkpt lat="43.07786" lon="0.3364">
        <ele>530.66</ele>
        <time>2026-05-24T07:38:12.000Z</time>
      </trkpt>
      <trkpt lat="43.07783" lon="0.33671">
        <ele>512.2</ele>
        <time>2026-05-24T07:38:18.000Z</time>
      </trkpt>
      <trkpt lat="43.07783" lon="0.33705">
        <ele>509.9</ele>
        <time>2026-05-24T07:38:23.000Z</time>
      </trkpt>
      <trkpt lat="43.07768" lon="0.33719">
        <ele>510.4</ele>
        <time>2026-05-24T07:38:28.000Z</time>
      </trkpt>
      <trkpt lat="43.07746" lon="0.3372">
        <ele>512.9</ele>
        <time>2026-05-24T07:38:33.000Z</time>
      </trkpt>
      <trkpt lat="43.07727" lon="0.33721">
        <ele>512.4</ele>
        <time>2026-05-24T07:38:40.000Z</time>
      </trkpt>
      <trkpt lat="43.07706" lon="0.3372">
        <ele>513.2</ele>
        <time>2026-05-24T07:38:46.000Z</time>
      </trkpt>
      <trkpt lat="43.07703" lon="0.33722">
        <ele>512</ele>
      </trkpt>
      <trkpt lat="43.07687" lon="0.3372">
        <ele>512.6</ele>
        <time>2026-05-24T07:38:51.000Z</time>
      </trkpt>
      <trkpt lat="43.07667" lon="0.3372">
        <ele>511.9</ele>
        <time>2026-05-24T07:38:56.000Z</time>
      </trkpt>
      <trkpt lat="43.07649" lon="0.33715">
        <ele>512.9</ele>
        <time>2026-05-24T07:39:02.000Z</time>
      </trkpt>
      <trkpt lat="43.0763" lon="0.33705">
        <ele>515.5</ele>
        <time>2026-05-24T07:39:07.000Z</time>
      </trkpt>
      <trkpt lat="43.07606" lon="0.33695">
        <ele>544.65</ele>
        <time>2026-05-24T07:39:12.000Z</time>
      </trkpt>
      <trkpt lat="43.07587" lon="0.33689">
        <ele>545.04</ele>
        <time>2026-05-24T07:39:16.000Z</time>
      </trkpt>
      <trkpt lat="43.07567" lon="0.33681">
        <ele>543.62</ele>
        <time>2026-05-24T07:39:20.000Z</time>
      </trkpt>
      <trkpt lat="43.07544" lon="0.33675">
        <ele>538.27</ele>
        <time>2026-05-24T07:39:25.000Z</time>
      </trkpt>
      <trkpt lat="43.07524" lon="0.33664">
        <ele>535.68</ele>
        <time>2026-05-24T07:39:31.000Z</time>
      </trkpt>
      <trkpt lat="43.07506" lon="0.33661">
        <ele>536.91</ele>
        <time>2026-05-24T07:39:36.000Z</time>
      </trkpt>
      <trkpt lat="43.07485" lon="0.33666">
        <ele>538.24</ele>
        <time>2026-05-24T07:39:45.000Z</time>
      </trkpt>
      <trkpt lat="43.07465" lon="0.33667">
        <ele>542.57</ele>
        <time>2026-05-24T07:39:51.000Z</time>
      </trkpt>
      <trkpt lat="43.07446" lon="0.33665">
        <ele>542.81</ele>
        <time>2026-05-24T07:39:57.000Z</time>
      </trkpt>
      <trkpt lat="43.07426" lon="0.33664">
        <ele>543.35</ele>
        <time>2026-05-24T07:40:05.000Z</time>
      </trkpt>
      <trkpt lat="43.07406" lon="0.33669">
        <ele>543.08</ele>
        <time>2026-05-24T07:40:11.000Z</time>
      </trkpt>
      <trkpt lat="43.07389" lon="0.33682">
        <ele>543.52</ele>
        <time>2026-05-24T07:40:17.000Z</time>
      </trkpt>
      <trkpt lat="43.07371" lon="0.33693">
        <ele>540.64</ele>
        <time>2026-05-24T07:40:24.000Z</time>
      </trkpt>
      <trkpt lat="43.07354" lon="0.33707">
        <ele>541.89</ele>
        <time>2026-05-24T07:40:31.000Z</time>
      </trkpt>
      <trkpt lat="43.07344" lon="0.3373">
        <ele>542.78</ele>
        <time>2026-05-24T07:40:37.000Z</time>
      </trkpt>
      <trkpt lat="43.07331" lon="0.33748">
        <ele>540.37</ele>
        <time>2026-05-24T07:40:43.000Z</time>
      </trkpt>
      <trkpt lat="43.07316" lon="0.33766">
        <ele>547.05</ele>
        <time>2026-05-24T07:40:52.000Z</time>
      </trkpt>
      <trkpt lat="43.07299" lon="0.33781">
        <ele>550.79</ele>
        <time>2026-05-24T07:41:00.000Z</time>
      </trkpt>
      <trkpt lat="43.07283" lon="0.33797">
        <ele>553.45</ele>
        <time>2026-05-24T07:41:07.000Z</time>
      </trkpt>
      <trkpt lat="43.07269" lon="0.33817">
        <ele>557.65</ele>
        <time>2026-05-24T07:41:15.000Z</time>
      </trkpt>
      <trkpt lat="43.07258" lon="0.33838">
        <ele>558.78</ele>
        <time>2026-05-24T07:41:21.000Z</time>
      </trkpt>
      <trkpt lat="43.07244" lon="0.33858">
        <ele>528.9</ele>
        <time>2026-05-24T07:41:28.000Z</time>
      </trkpt>
      <trkpt lat="43.07234" lon="0.3388">
        <ele>529.1</ele>
        <time>2026-05-24T07:41:36.000Z</time>
      </trkpt>
      <trkpt lat="43.07233" lon="0.33885">
        <ele>528.1</ele>
      </trkpt>
      <trkpt lat="43.07219" lon="0.3391">
        <ele>528.9</ele>
        <time>2026-05-24T07:41:44.000Z</time>
      </trkpt>
      <trkpt lat="43.072" lon="0.33905">
        <ele>535.1</ele>
        <time>2026-05-24T07:41:55.000Z</time>
      </trkpt>
      <trkpt lat="43.07182" lon="0.33899">
        <ele>555.59</ele>
        <time>2026-05-24T07:42:05.000Z</time>
      </trkpt>
      <trkpt lat="43.07165" lon="0.33907">
        <ele>563.19</ele>
        <time>2026-05-24T07:42:15.000Z</time>
      </trkpt>
      <trkpt lat="43.07148" lon="0.33923">
        <ele>567.59</ele>
        <time>2026-05-24T07:42:24.000Z</time>
      </trkpt>
      <trkpt lat="43.07131" lon="0.33937">
        <ele>568.39</ele>
        <time>2026-05-24T07:42:30.000Z</time>
      </trkpt>
      <trkpt lat="43.07116" lon="0.33951">
        <ele>566.44</ele>
        <time>2026-05-24T07:42:37.000Z</time>
      </trkpt>
      <trkpt lat="43.07098" lon="0.33958">
        <ele>562.92</ele>
        <time>2026-05-24T07:42:43.000Z</time>
      </trkpt>
      <trkpt lat="43.07079" lon="0.33966">
        <ele>563.73</ele>
        <time>2026-05-24T07:42:51.000Z</time>
      </trkpt>
      <trkpt lat="43.07059" lon="0.33964">
        <ele>565.02</ele>
        <time>2026-05-24T07:42:57.000Z</time>
      </trkpt>
      <trkpt lat="43.07041" lon="0.33963">
        <ele>563.47</ele>
        <time>2026-05-24T07:43:02.000Z</time>
      </trkpt>
      <trkpt lat="43.07018" lon="0.33962">
        <ele>555.56</ele>
        <time>2026-05-24T07:43:07.000Z</time>
      </trkpt>
      <trkpt lat="43.06999" lon="0.33963">
        <ele>554.83</ele>
        <time>2026-05-24T07:43:11.000Z</time>
      </trkpt>
      <trkpt lat="43.06979" lon="0.3397">
        <ele>556.18</ele>
        <time>2026-05-24T07:43:15.000Z</time>
      </trkpt>
      <trkpt lat="43.06957" lon="0.33969">
        <ele>555.81</ele>
        <time>2026-05-24T07:43:20.000Z</time>
      </trkpt>
      <trkpt lat="43.06941" lon="0.33982">
        <ele>556.82</ele>
        <time>2026-05-24T07:43:25.000Z</time>
      </trkpt>
      <trkpt lat="43.06931" lon="0.34003">
        <ele>557.51</ele>
        <time>2026-05-24T07:43:33.000Z</time>
      </trkpt>
      <trkpt lat="43.06921" lon="0.34026">
        <ele>562.51</ele>
        <time>2026-05-24T07:43:43.000Z</time>
      </trkpt>
      <trkpt lat="43.06907" lon="0.34044">
        <ele>563.86</ele>
        <time>2026-05-24T07:43:50.000Z</time>
      </trkpt>
      <trkpt lat="43.0689" lon="0.34059">
        <ele>551</ele>
        <time>2026-05-24T07:43:55.000Z</time>
      </trkpt>
      <trkpt lat="43.06874" lon="0.34082">
        <ele>554.4</ele>
        <time>2026-05-24T07:44:16.000Z</time>
      </trkpt>
      <trkpt lat="43.06863" lon="0.3409">
        <ele>576.52</ele>
        <time>2026-05-24T07:44:33.000Z</time>
      </trkpt>
      <trkpt lat="43.06847" lon="0.34104">
        <ele>577.5</ele>
        <time>2026-05-24T07:44:44.000Z</time>
      </trkpt>
      <trkpt lat="43.0683" lon="0.34111">
        <ele>581.96</ele>
        <time>2026-05-24T07:44:57.000Z</time>
      </trkpt>
      <trkpt lat="43.06812" lon="0.34119">
        <ele>585.42</ele>
        <time>2026-05-24T07:45:12.000Z</time>
      </trkpt>
      <trkpt lat="43.06795" lon="0.34129">
        <ele>586.96</ele>
        <time>2026-05-24T07:45:23.000Z</time>
      </trkpt>
      <trkpt lat="43.06777" lon="0.34134">
        <ele>583.63</ele>
        <time>2026-05-24T07:45:32.000Z</time>
      </trkpt>
      <trkpt lat="43.06759" lon="0.34137">
        <ele>583.18</ele>
        <time>2026-05-24T07:45:40.000Z</time>
      </trkpt>
      <trkpt lat="43.06734" lon="0.34129">
        <ele>567.7</ele>
        <time>2026-05-24T07:45:50.000Z</time>
      </trkpt>
      <trkpt lat="43.06731" lon="0.34139">
        <ele>567.6</ele>
      </trkpt>
      <trkpt lat="43.06743" lon="0.34152">
        <ele>566.9</ele>
        <time>2026-05-24T07:47:05.000Z</time>
      </trkpt>
      <trkpt lat="43.06772" lon="0.34161">
        <ele>573.45</ele>
        <time>2026-05-24T07:47:09.000Z</time>
      </trkpt>
      <trkpt lat="43.06791" lon="0.34164">
        <ele>571.95</ele>
        <time>2026-05-24T07:47:12.000Z</time>
      </trkpt>
      <trkpt lat="43.06816" lon="0.34165">
        <ele>567.52</ele>
        <time>2026-05-24T07:47:15.000Z</time>
      </trkpt>
      <trkpt lat="43.06833" lon="0.34172">
        <ele>565.86</ele>
        <time>2026-05-24T07:47:18.000Z</time>
      </trkpt>
      <trkpt lat="43.06839" lon="0.34202">
        <ele>565.13</ele>
        <time>2026-05-24T07:47:21.000Z</time>
      </trkpt>
      <trkpt lat="43.06845" lon="0.34239">
        <ele>564.05</ele>
        <time>2026-05-24T07:47:24.000Z</time>
      </trkpt>
      <trkpt lat="43.06848" lon="0.34273">
        <ele>561.12</ele>
        <time>2026-05-24T07:47:27.000Z</time>
      </trkpt>
      <trkpt lat="43.06845" lon="0.343">
        <ele>560.72</ele>
        <time>2026-05-24T07:47:30.000Z</time>
      </trkpt>
      <trkpt lat="43.06832" lon="0.34328">
        <ele>555.84</ele>
        <time>2026-05-24T07:47:33.000Z</time>
      </trkpt>
      <trkpt lat="43.06824" lon="0.34359">
        <ele>555.19</ele>
        <time>2026-05-24T07:47:36.000Z</time>
      </trkpt>
      <trkpt lat="43.0682" lon="0.34386">
        <ele>553.51</ele>
        <time>2026-05-24T07:47:40.000Z</time>
      </trkpt>
      <trkpt lat="43.06834" lon="0.34404">
        <ele>555.32</ele>
        <time>2026-05-24T07:47:51.000Z</time>
      </trkpt>
      <trkpt lat="43.06852" lon="0.34405">
        <ele>560.06</ele>
        <time>2026-05-24T07:48:09.000Z</time>
      </trkpt>
      <trkpt lat="43.06871" lon="0.34405">
        <ele>564.96</ele>
        <time>2026-05-24T07:48:26.000Z</time>
      </trkpt>
      <trkpt lat="43.0689" lon="0.344">
        <ele>570.01</ele>
        <time>2026-05-24T07:48:41.000Z</time>
      </trkpt>
      <trkpt lat="43.06906" lon="0.34386">
        <ele>572.08</ele>
        <time>2026-05-24T07:48:51.000Z</time>
      </trkpt>
      <trkpt lat="43.06922" lon="0.34371">
        <ele>573.02</ele>
        <time>2026-05-24T07:49:03.000Z</time>
      </trkpt>
      <trkpt lat="43.06936" lon="0.34355">
        <ele>572.28</ele>
        <time>2026-05-24T07:49:13.000Z</time>
      </trkpt>
      <trkpt lat="43.0695" lon="0.34337">
        <ele>577.57</ele>
        <time>2026-05-24T07:49:23.000Z</time>
      </trkpt>
      <trkpt lat="43.06963" lon="0.34314">
        <ele>571.01</ele>
        <time>2026-05-24T07:50:34.000Z</time>
      </trkpt>
      <trkpt lat="43.06965" lon="0.34285">
        <ele>571.66</ele>
        <time>2026-05-24T07:50:38.000Z</time>
      </trkpt>
      <trkpt lat="43.06968" lon="0.34256">
        <ele>568.54</ele>
        <time>2026-05-24T07:50:41.000Z</time>
      </trkpt>
      <trkpt lat="43.06974" lon="0.34232">
        <ele>564.09</ele>
        <time>2026-05-24T07:50:45.000Z</time>
      </trkpt>
      <trkpt lat="43.06986" lon="0.34204">
        <ele>551.3</ele>
        <time>2026-05-24T07:50:50.000Z</time>
      </trkpt>
      <trkpt lat="43.07005" lon="0.34192">
        <ele>551.9</ele>
        <time>2026-05-24T07:50:56.000Z</time>
      </trkpt>
      <trkpt lat="43.0702" lon="0.34185">
        <ele>561.21</ele>
        <time>2026-05-24T07:51:02.000Z</time>
      </trkpt>
      <trkpt lat="43.07037" lon="0.34176">
        <ele>560.72</ele>
        <time>2026-05-24T07:51:09.000Z</time>
      </trkpt>
      <trkpt lat="43.07057" lon="0.34163">
        <ele>559.63</ele>
        <time>2026-05-24T07:51:15.000Z</time>
      </trkpt>
      <trkpt lat="43.07075" lon="0.34152">
        <ele>556.84</ele>
        <time>2026-05-24T07:51:20.000Z</time>
      </trkpt>
      <trkpt lat="43.07093" lon="0.34144">
        <ele>557.5</ele>
        <time>2026-05-24T07:51:26.000Z</time>
      </trkpt>
      <trkpt lat="43.07108" lon="0.3413">
        <ele>554.9</ele>
        <time>2026-05-24T07:51:33.000Z</time>
      </trkpt>
      <trkpt lat="43.07127" lon="0.34125">
        <ele>555.3</ele>
        <time>2026-05-24T07:51:41.000Z</time>
      </trkpt>
      <trkpt lat="43.07146" lon="0.34115">
        <ele>554.9</ele>
        <time>2026-05-24T07:51:48.000Z</time>
      </trkpt>
      <trkpt lat="43.07166" lon="0.34111">
        <ele>568.64</ele>
        <time>2026-05-24T07:51:52.000Z</time>
      </trkpt>
      <trkpt lat="43.07184" lon="0.34101">
        <ele>568.92</ele>
        <time>2026-05-24T07:51:57.000Z</time>
      </trkpt>
      <trkpt lat="43.07204" lon="0.34099">
        <ele>568.57</ele>
        <time>2026-05-24T07:52:04.000Z</time>
      </trkpt>
      <trkpt lat="43.07222" lon="0.34095">
        <ele>568.17</ele>
        <time>2026-05-24T07:52:09.000Z</time>
      </trkpt>
      <trkpt lat="43.07237" lon="0.34078">
        <ele>569.71</ele>
        <time>2026-05-24T07:52:13.000Z</time>
      </trkpt>
      <trkpt lat="43.07254" lon="0.34066">
        <ele>568.57</ele>
        <time>2026-05-24T07:52:19.000Z</time>
      </trkpt>
      <trkpt lat="43.07274" lon="0.34052">
        <ele>570.58</ele>
        <time>2026-05-24T07:52:25.000Z</time>
      </trkpt>
      <trkpt lat="43.07289" lon="0.34035">
        <ele>571.68</ele>
        <time>2026-05-24T07:52:29.000Z</time>
      </trkpt>
      <trkpt lat="43.07303" lon="0.34019">
        <ele>570.46</ele>
        <time>2026-05-24T07:52:33.000Z</time>
      </trkpt>
      <trkpt lat="43.07319" lon="0.34005">
        <ele>570.1</ele>
        <time>2026-05-24T07:52:37.000Z</time>
      </trkpt>
      <trkpt lat="43.07333" lon="0.33986">
        <ele>566.53</ele>
        <time>2026-05-24T07:52:42.000Z</time>
      </trkpt>
      <trkpt lat="43.07347" lon="0.33967">
        <ele>569</ele>
        <time>2026-05-24T07:52:48.000Z</time>
      </trkpt>
      <trkpt lat="43.07365" lon="0.33951">
        <ele>567.33</ele>
        <time>2026-05-24T07:52:52.000Z</time>
      </trkpt>
      <trkpt lat="43.07384" lon="0.3394">
        <ele>565.62</ele>
        <time>2026-05-24T07:52:57.000Z</time>
      </trkpt>
      <trkpt lat="43.07404" lon="0.33931">
        <ele>564.38</ele>
        <time>2026-05-24T07:53:01.000Z</time>
      </trkpt>
      <trkpt lat="43.07425" lon="0.33925">
        <ele>563.57</ele>
        <time>2026-05-24T07:53:05.000Z</time>
      </trkpt>
      <trkpt lat="43.07444" lon="0.33922">
        <ele>562.8</ele>
        <time>2026-05-24T07:53:09.000Z</time>
      </trkpt>
      <trkpt lat="43.07465" lon="0.33918">
        <ele>561.44</ele>
        <time>2026-05-24T07:53:15.000Z</time>
      </trkpt>
      <trkpt lat="43.07487" lon="0.33916">
        <ele>560.98</ele>
        <time>2026-05-24T07:53:20.000Z</time>
      </trkpt>
      <trkpt lat="43.0751" lon="0.33913">
        <ele>559.42</ele>
        <time>2026-05-24T07:53:25.000Z</time>
      </trkpt>
      <trkpt lat="43.07529" lon="0.33915">
        <ele>560.64</ele>
        <time>2026-05-24T07:53:30.000Z</time>
      </trkpt>
      <trkpt lat="43.07549" lon="0.33918">
        <ele>562.11</ele>
        <time>2026-05-24T07:53:37.000Z</time>
      </trkpt>
      <trkpt lat="43.07569" lon="0.33921">
        <ele>546.2</ele>
        <time>2026-05-24T07:53:43.000Z</time>
      </trkpt>
      <trkpt lat="43.07588" lon="0.33923">
        <ele>560.94</ele>
        <time>2026-05-24T07:53:48.000Z</time>
      </trkpt>
      <trkpt lat="43.07606" lon="0.33924">
        <ele>562.57</ele>
        <time>2026-05-24T07:53:52.000Z</time>
      </trkpt>
      <trkpt lat="43.07624" lon="0.3392">
        <ele>561.35</ele>
        <time>2026-05-24T07:53:55.000Z</time>
      </trkpt>
      <trkpt lat="43.07644" lon="0.33913">
        <ele>561.96</ele>
        <time>2026-05-24T07:53:59.000Z</time>
      </trkpt>
      <trkpt lat="43.07664" lon="0.33911">
        <ele>563.09</ele>
        <time>2026-05-24T07:54:03.000Z</time>
      </trkpt>
      <trkpt lat="43.07682" lon="0.33905">
        <ele>562.52</ele>
        <time>2026-05-24T07:54:06.000Z</time>
      </trkpt>
      <trkpt lat="43.07706" lon="0.33909">
        <ele>558.16</ele>
        <time>2026-05-24T07:54:10.000Z</time>
      </trkpt>
      <trkpt lat="43.07726" lon="0.33912">
        <ele>556.58</ele>
        <time>2026-05-24T07:54:14.000Z</time>
      </trkpt>
      <trkpt lat="43.07747" lon="0.33904">
        <ele>558.66</ele>
        <time>2026-05-24T07:54:18.000Z</time>
      </trkpt>
      <trkpt lat="43.07765" lon="0.33907">
        <ele>559.25</ele>
        <time>2026-05-24T07:54:22.000Z</time>
      </trkpt>
      <trkpt lat="43.0779" lon="0.33899">
        <ele>555.43</ele>
        <time>2026-05-24T07:54:26.000Z</time>
      </trkpt>
      <trkpt lat="43.07809" lon="0.33882">
        <ele>554.45</ele>
        <time>2026-05-24T07:54:30.000Z</time>
      </trkpt>
      <trkpt lat="43.07829" lon="0.33871">
        <ele>550.59</ele>
        <time>2026-05-24T07:54:34.000Z</time>
      </trkpt>
      <trkpt lat="43.07847" lon="0.33856">
        <ele>546.98</ele>
        <time>2026-05-24T07:54:37.000Z</time>
      </trkpt>
      <trkpt lat="43.07873" lon="0.33828">
        <ele>526.7</ele>
        <time>2026-05-24T07:54:41.000Z</time>
      </trkpt>
      <trkpt lat="43.07887" lon="0.33831">
        <ele>526.5</ele>
        <time>2026-05-24T07:54:45.000Z</time>
      </trkpt>
      <trkpt lat="43.07906" lon="0.33839">
        <ele>524.5</ele>
        <time>2026-05-24T07:54:49.000Z</time>
      </trkpt>
      <trkpt lat="43.07929" lon="0.33858">
        <ele>524.1</ele>
        <time>2026-05-24T07:54:53.000Z</time>
      </trkpt>
      <trkpt lat="43.07944" lon="0.33868">
        <ele>523.3</ele>
        <time>2026-05-24T07:54:57.000Z</time>
      </trkpt>
      <trkpt lat="43.07962" lon="0.33867">
        <ele>533.45</ele>
        <time>2026-05-24T07:55:01.000Z</time>
      </trkpt>
      <trkpt lat="43.07972" lon="0.33842">
        <ele>531.28</ele>
        <time>2026-05-24T07:55:05.000Z</time>
      </trkpt>
      <trkpt lat="43.07975" lon="0.33816">
        <ele>533.69</ele>
        <time>2026-05-24T07:55:13.000Z</time>
      </trkpt>
      <trkpt lat="43.07972" lon="0.33789">
        <ele>536.96</ele>
        <time>2026-05-24T07:55:24.000Z</time>
      </trkpt>
      <trkpt lat="43.07964" lon="0.33767">
        <ele>544.27</ele>
        <time>2026-05-24T07:55:35.000Z</time>
      </trkpt>
      <trkpt lat="43.07962" lon="0.3374">
        <ele>546.23</ele>
        <time>2026-05-24T07:55:49.000Z</time>
      </trkpt>
      <trkpt lat="43.07972" lon="0.33719">
        <ele>543.35</ele>
        <time>2026-05-24T07:56:02.000Z</time>
      </trkpt>
      <trkpt lat="43.07981" lon="0.33697">
        <ele>546.23</ele>
        <time>2026-05-24T07:56:14.000Z</time>
      </trkpt>
      <trkpt lat="43.07995" lon="0.33679">
        <ele>546.37</ele>
        <time>2026-05-24T07:56:25.000Z</time>
      </trkpt>
      <trkpt lat="43.08008" lon="0.33661">
        <ele>550.23</ele>
        <time>2026-05-24T07:56:35.000Z</time>
      </trkpt>
      <trkpt lat="43.08021" lon="0.33645">
        <ele>550.28</ele>
        <time>2026-05-24T07:56:43.000Z</time>
      </trkpt>
      <trkpt lat="43.08036" lon="0.33628">
        <ele>552.51</ele>
        <time>2026-05-24T07:56:51.000Z</time>
      </trkpt>
      <trkpt lat="43.08053" lon="0.33617">
        <ele>552.26</ele>
        <time>2026-05-24T07:56:59.000Z</time>
      </trkpt>
      <trkpt lat="43.08071" lon="0.33604">
        <ele>535</ele>
        <time>2026-05-24T07:57:10.000Z</time>
      </trkpt>
      <trkpt lat="43.08088" lon="0.33594">
        <ele>536.6</ele>
        <time>2026-05-24T07:57:19.000Z</time>
      </trkpt>
      <trkpt lat="43.08106" lon="0.3359">
        <ele>538.6</ele>
        <time>2026-05-24T07:57:28.000Z</time>
      </trkpt>
      <trkpt lat="43.08125" lon="0.33581">
        <ele>538.3</ele>
        <time>2026-05-24T07:57:37.000Z</time>
      </trkpt>
      <trkpt lat="43.08143" lon="0.33574">
        <ele>537.6</ele>
        <time>2026-05-24T07:57:46.000Z</time>
      </trkpt>
      <trkpt lat="43.08166" lon="0.33585">
        <ele>558.52</ele>
        <time>2026-05-24T07:57:53.000Z</time>
      </trkpt>
      <trkpt lat="43.08183" lon="0.33574">
        <ele>553.99</ele>
        <time>2026-05-24T07:57:56.000Z</time>
      </trkpt>
      <trkpt lat="43.08193" lon="0.33547">
        <ele>551.85</ele>
        <time>2026-05-24T07:57:59.000Z</time>
      </trkpt>
      <trkpt lat="43.08187" lon="0.33519">
        <ele>549.93</ele>
        <time>2026-05-24T07:58:03.000Z</time>
      </trkpt>
      <trkpt lat="43.08177" lon="0.33493">
        <ele>550.39</ele>
        <time>2026-05-24T07:58:08.000Z</time>
      </trkpt>
      <trkpt lat="43.08192" lon="0.3348">
        <ele>550.94</ele>
        <time>2026-05-24T07:58:12.000Z</time>
      </trkpt>
      <trkpt lat="43.08202" lon="0.33456">
        <ele>551.49</ele>
        <time>2026-05-24T07:58:18.000Z</time>
      </trkpt>
      <trkpt lat="43.0821" lon="0.33432">
        <ele>554.44</ele>
        <time>2026-05-24T07:58:24.000Z</time>
      </trkpt>
      <trkpt lat="43.08211" lon="0.33405">
        <ele>557.48</ele>
        <time>2026-05-24T07:58:31.000Z</time>
      </trkpt>
      <trkpt lat="43.08209" lon="0.3338">
        <ele>561.91</ele>
        <time>2026-05-24T07:58:39.000Z</time>
      </trkpt>
      <trkpt lat="43.08206" lon="0.33354">
        <ele>563.57</ele>
        <time>2026-05-24T07:58:47.000Z</time>
      </trkpt>
      <trkpt lat="43.0821" lon="0.33329">
        <ele>565.52</ele>
        <time>2026-05-24T07:58:55.000Z</time>
      </trkpt>
      <trkpt lat="43.08219" lon="0.33305">
        <ele>561.89</ele>
        <time>2026-05-24T07:59:01.000Z</time>
      </trkpt>
      <trkpt lat="43.08231" lon="0.33283">
        <ele>560.31</ele>
        <time>2026-05-24T07:59:07.000Z</time>
      </trkpt>
      <trkpt lat="43.08245" lon="0.33265">
        <ele>558.01</ele>
        <time>2026-05-24T07:59:12.000Z</time>
      </trkpt>
      <trkpt lat="43.08263" lon="0.33251">
        <ele>554.58</ele>
        <time>2026-05-24T07:59:17.000Z</time>
      </trkpt>
      <trkpt lat="43.08278" lon="0.33237">
        <ele>557.34</ele>
        <time>2026-05-24T07:59:23.000Z</time>
      </trkpt>
      <trkpt lat="43.08296" lon="0.33225">
        <ele>557.86</ele>
        <time>2026-05-24T07:59:29.000Z</time>
      </trkpt>
      <trkpt lat="43.0831" lon="0.33208">
        <ele>556.86</ele>
        <time>2026-05-24T07:59:34.000Z</time>
      </trkpt>
      <trkpt lat="43.08317" lon="0.33183">
        <ele>556</ele>
        <time>2026-05-24T07:59:40.000Z</time>
      </trkpt>
      <trkpt lat="43.0832" lon="0.33158">
        <ele>557.2</ele>
        <time>2026-05-24T07:59:46.000Z</time>
      </trkpt>
      <trkpt lat="43.08315" lon="0.33134">
        <ele>558.99</ele>
        <time>2026-05-24T07:59:54.000Z</time>
      </trkpt>
      <trkpt lat="43.0831" lon="0.33106">
        <ele>563.62</ele>
        <time>2026-05-24T08:00:01.000Z</time>
      </trkpt>
      <trkpt lat="43.08303" lon="0.33081">
        <ele>564.03</ele>
        <time>2026-05-24T08:00:06.000Z</time>
      </trkpt>
      <trkpt lat="43.083" lon="0.33056">
        <ele>567.39</ele>
        <time>2026-05-24T08:00:12.000Z</time>
      </trkpt>
      <trkpt lat="43.08299" lon="0.33026">
        <ele>564.86</ele>
        <time>2026-05-24T08:00:18.000Z</time>
      </trkpt>
      <trkpt lat="43.08302" lon="0.32998">
        <ele>562.3</ele>
        <time>2026-05-24T08:00:23.000Z</time>
      </trkpt>
      <trkpt lat="43.08307" lon="0.32974">
        <ele>559.1</ele>
        <time>2026-05-24T08:00:28.000Z</time>
      </trkpt>
      <trkpt lat="43.08323" lon="0.32961">
        <ele>557.16</ele>
        <time>2026-05-24T08:00:35.000Z</time>
      </trkpt>
      <trkpt lat="43.08341" lon="0.32961">
        <ele>553.93</ele>
        <time>2026-05-24T08:00:40.000Z</time>
      </trkpt>
      <trkpt lat="43.0836" lon="0.32964">
        <ele>558.82</ele>
        <time>2026-05-24T08:01:01.000Z</time>
      </trkpt>
      <trkpt lat="43.08381" lon="0.32959">
        <ele>557.86</ele>
        <time>2026-05-24T08:01:04.000Z</time>
      </trkpt>
      <trkpt lat="43.084" lon="0.32957">
        <ele>557.18</ele>
        <time>2026-05-24T08:01:07.000Z</time>
      </trkpt>
      <trkpt lat="43.08414" lon="0.32942">
        <ele>553.67</ele>
        <time>2026-05-24T08:01:09.000Z</time>
      </trkpt>
      <trkpt lat="43.0842" lon="0.32914">
        <ele>548.96</ele>
        <time>2026-05-24T08:01:12.000Z</time>
      </trkpt>
      <trkpt lat="43.08418" lon="0.32888">
        <ele>545.59</ele>
        <time>2026-05-24T08:01:15.000Z</time>
      </trkpt>
      <trkpt lat="43.08414" lon="0.32859">
        <ele>546.71</ele>
        <time>2026-05-24T08:01:19.000Z</time>
      </trkpt>
      <trkpt lat="43.0841" lon="0.32834">
        <ele>549.5</ele>
        <time>2026-05-24T08:01:24.000Z</time>
      </trkpt>
      <trkpt lat="43.08398" lon="0.32813">
        <ele>551.65</ele>
        <time>2026-05-24T08:01:32.000Z</time>
      </trkpt>
      <trkpt lat="43.08397" lon="0.32788">
        <ele>552.61</ele>
        <time>2026-05-24T08:01:42.000Z</time>
      </trkpt>
      <trkpt lat="43.08397" lon="0.32761">
        <ele>553.5</ele>
        <time>2026-05-24T08:01:51.000Z</time>
      </trkpt>
      <trkpt lat="43.08388" lon="0.32738">
        <ele>550.44</ele>
        <time>2026-05-24T08:02:01.000Z</time>
      </trkpt>
      <trkpt lat="43.08377" lon="0.32718">
        <ele>553.93</ele>
        <time>2026-05-24T08:02:12.000Z</time>
      </trkpt>
      <trkpt lat="43.08386" lon="0.32696">
        <ele>553.88</ele>
        <time>2026-05-24T08:02:26.000Z</time>
      </trkpt>
      <trkpt lat="43.08402" lon="0.32684">
        <ele>554.76</ele>
        <time>2026-05-24T08:02:37.000Z</time>
      </trkpt>
      <trkpt lat="43.08418" lon="0.32673">
        <ele>555.57</ele>
        <time>2026-05-24T08:02:50.000Z</time>
      </trkpt>
      <trkpt lat="43.08436" lon="0.32664">
        <ele>558.61</ele>
        <time>2026-05-24T08:03:01.000Z</time>
      </trkpt>
      <trkpt lat="43.0845" lon="0.32647">
        <ele>561.8</ele>
        <time>2026-05-24T08:03:24.000Z</time>
      </trkpt>
      <trkpt lat="43.08462" lon="0.32626">
        <ele>564.41</ele>
        <time>2026-05-24T08:04:21.000Z</time>
      </trkpt>
      <trkpt lat="43.08469" lon="0.32603">
        <ele>564.23</ele>
        <time>2026-05-24T08:04:28.000Z</time>
      </trkpt>
      <trkpt lat="43.0847" lon="0.32578">
        <ele>565.51</ele>
        <time>2026-05-24T08:04:35.000Z</time>
      </trkpt>
      <trkpt lat="43.08474" lon="0.32552">
        <ele>566.38</ele>
        <time>2026-05-24T08:04:44.000Z</time>
      </trkpt>
      <trkpt lat="43.08489" lon="0.32535">
        <ele>569.84</ele>
        <time>2026-05-24T08:04:51.000Z</time>
      </trkpt>
      <trkpt lat="43.08507" lon="0.32526">
        <ele>570.28</ele>
        <time>2026-05-24T08:04:57.000Z</time>
      </trkpt>
      <trkpt lat="43.08521" lon="0.32506">
        <ele>573.94</ele>
        <time>2026-05-24T08:05:03.000Z</time>
      </trkpt>
      <trkpt lat="43.08529" lon="0.32478">
        <ele>574.34</ele>
        <time>2026-05-24T08:05:08.000Z</time>
      </trkpt>
      <trkpt lat="43.08534" lon="0.32451">
        <ele>573.66</ele>
        <time>2026-05-24T08:05:12.000Z</time>
      </trkpt>
      <trkpt lat="43.08539" lon="0.32425">
        <ele>574.96</ele>
        <time>2026-05-24T08:05:17.000Z</time>
      </trkpt>
      <trkpt lat="43.08543" lon="0.32399">
        <ele>574.41</ele>
        <time>2026-05-24T08:05:22.000Z</time>
      </trkpt>
      <trkpt lat="43.08548" lon="0.32372">
        <ele>574.35</ele>
        <time>2026-05-24T08:05:28.000Z</time>
      </trkpt>
      <trkpt lat="43.08554" lon="0.32346">
        <ele>572.19</ele>
        <time>2026-05-24T08:05:34.000Z</time>
      </trkpt>
      <trkpt lat="43.08561" lon="0.32323">
        <ele>570</ele>
        <time>2026-05-24T08:05:39.000Z</time>
      </trkpt>
      <trkpt lat="43.08568" lon="0.32298">
        <ele>567.48</ele>
        <time>2026-05-24T08:05:43.000Z</time>
      </trkpt>
      <trkpt lat="43.08576" lon="0.32273">
        <ele>565.48</ele>
        <time>2026-05-24T08:05:47.000Z</time>
      </trkpt>
      <trkpt lat="43.08585" lon="0.3225">
        <ele>563.99</ele>
        <time>2026-05-24T08:05:51.000Z</time>
      </trkpt>
      <trkpt lat="43.08594" lon="0.32225">
        <ele>561.49</ele>
        <time>2026-05-24T08:05:55.000Z</time>
      </trkpt>
      <trkpt lat="43.08599" lon="0.322">
        <ele>556.04</ele>
        <time>2026-05-24T08:05:59.000Z</time>
      </trkpt>
      <trkpt lat="43.08605" lon="0.32175">
        <ele>557.1</ele>
        <time>2026-05-24T08:06:04.000Z</time>
      </trkpt>
      <trkpt lat="43.08608" lon="0.3215">
        <ele>558.71</ele>
        <time>2026-05-24T08:06:08.000Z</time>
      </trkpt>
      <trkpt lat="43.08612" lon="0.32121">
        <ele>560.43</ele>
        <time>2026-05-24T08:06:13.000Z</time>
      </trkpt>
      <trkpt lat="43.08612" lon="0.32094">
        <ele>558.75</ele>
        <time>2026-05-24T08:06:17.000Z</time>
      </trkpt>
      <trkpt lat="43.08611" lon="0.32067">
        <ele>556.04</ele>
        <time>2026-05-24T08:06:21.000Z</time>
      </trkpt>
      <trkpt lat="43.08613" lon="0.32037">
        <ele>553.71</ele>
        <time>2026-05-24T08:06:25.000Z</time>
      </trkpt>
      <trkpt lat="43.08613" lon="0.32012">
        <ele>556.18</ele>
        <time>2026-05-24T08:06:29.000Z</time>
      </trkpt>
      <trkpt lat="43.08615" lon="0.31985">
        <ele>555.75</ele>
        <time>2026-05-24T08:06:35.000Z</time>
      </trkpt>
      <trkpt lat="43.08615" lon="0.31959">
        <ele>559.71</ele>
        <time>2026-05-24T08:06:43.000Z</time>
      </trkpt>
      <trkpt lat="43.08614" lon="0.31933">
        <ele>563.66</ele>
        <time>2026-05-24T08:06:50.000Z</time>
      </trkpt>
      <trkpt lat="43.08614" lon="0.31908">
        <ele>567.91</ele>
        <time>2026-05-24T08:06:57.000Z</time>
      </trkpt>
      <trkpt lat="43.08617" lon="0.31883">
        <ele>562.28</ele>
        <time>2026-05-24T08:07:03.000Z</time>
      </trkpt>
      <trkpt lat="43.08631" lon="0.31866">
        <ele>562.73</ele>
        <time>2026-05-24T08:07:10.000Z</time>
      </trkpt>
      <trkpt lat="43.0865" lon="0.31874">
        <ele>563.23</ele>
        <time>2026-05-24T08:07:16.000Z</time>
      </trkpt>
      <trkpt lat="43.08668" lon="0.31883">
        <ele>563.39</ele>
        <time>2026-05-24T08:07:22.000Z</time>
      </trkpt>
      <trkpt lat="43.08688" lon="0.31888">
        <ele>564.32</ele>
        <time>2026-05-24T08:07:29.000Z</time>
      </trkpt>
      <trkpt lat="43.08706" lon="0.31881">
        <ele>568.9</ele>
        <time>2026-05-24T08:07:41.000Z</time>
      </trkpt>
      <trkpt lat="43.08717" lon="0.31861">
        <ele>567.49</ele>
        <time>2026-05-24T08:07:55.000Z</time>
      </trkpt>
      <trkpt lat="43.08723" lon="0.31838">
        <ele>575.29</ele>
        <time>2026-05-24T08:09:05.000Z</time>
      </trkpt>
      <trkpt lat="43.08731" lon="0.31814">
        <ele>575.18</ele>
        <time>2026-05-24T08:09:14.000Z</time>
      </trkpt>
      <trkpt lat="43.08741" lon="0.31792">
        <ele>575.01</ele>
        <time>2026-05-24T08:09:23.000Z</time>
      </trkpt>
      <trkpt lat="43.08749" lon="0.31769">
        <ele>580.06</ele>
        <time>2026-05-24T08:09:33.000Z</time>
      </trkpt>
      <trkpt lat="43.08758" lon="0.31741">
        <ele>581.93</ele>
        <time>2026-05-24T08:09:41.000Z</time>
      </trkpt>
      <trkpt lat="43.08767" lon="0.31718">
        <ele>581.09</ele>
        <time>2026-05-24T08:09:49.000Z</time>
      </trkpt>
      <trkpt lat="43.08775" lon="0.31693">
        <ele>579.93</ele>
        <time>2026-05-24T08:09:57.000Z</time>
      </trkpt>
      <trkpt lat="43.08782" lon="0.3167">
        <ele>579.92</ele>
        <time>2026-05-24T08:10:04.000Z</time>
      </trkpt>
      <trkpt lat="43.0879" lon="0.31644">
        <ele>581.28</ele>
        <time>2026-05-24T08:10:12.000Z</time>
      </trkpt>
      <trkpt lat="43.08799" lon="0.3162">
        <ele>580.36</ele>
        <time>2026-05-24T08:10:19.000Z</time>
      </trkpt>
      <trkpt lat="43.08808" lon="0.31598">
        <ele>579.98</ele>
        <time>2026-05-24T08:10:25.000Z</time>
      </trkpt>
      <trkpt lat="43.08816" lon="0.31575">
        <ele>581.66</ele>
        <time>2026-05-24T08:10:32.000Z</time>
      </trkpt>
      <trkpt lat="43.08823" lon="0.31549">
        <ele>582.48</ele>
        <time>2026-05-24T08:10:40.000Z</time>
      </trkpt>
      <trkpt lat="43.0883" lon="0.31522">
        <ele>581.45</ele>
        <time>2026-05-24T08:11:45.000Z</time>
      </trkpt>
      <trkpt lat="43.08832" lon="0.31495">
        <ele>580.89</ele>
        <time>2026-05-24T08:11:49.000Z</time>
      </trkpt>
      <trkpt lat="43.08835" lon="0.31463">
        <ele>579.06</ele>
        <time>2026-05-24T08:11:53.000Z</time>
      </trkpt>
      <trkpt lat="43.08835" lon="0.31435">
        <ele>577.17</ele>
        <time>2026-05-24T08:11:56.000Z</time>
      </trkpt>
      <trkpt lat="43.08836" lon="0.31404">
        <ele>576.55</ele>
        <time>2026-05-24T08:11:59.000Z</time>
      </trkpt>
      <trkpt lat="43.08836" lon="0.31374">
        <ele>575.3</ele>
        <time>2026-05-24T08:12:02.000Z</time>
      </trkpt>
      <trkpt lat="43.08834" lon="0.31343">
        <ele>573.69</ele>
        <time>2026-05-24T08:12:05.000Z</time>
      </trkpt>
      <trkpt lat="43.08827" lon="0.31292">
        <ele>568.4</ele>
        <time>2026-05-24T08:12:08.000Z</time>
      </trkpt>
      <trkpt lat="43.08846" lon="0.31292">
        <ele>572.86</ele>
        <time>2026-05-24T08:12:17.000Z</time>
      </trkpt>
      <trkpt lat="43.08865" lon="0.31309">
        <ele>571.97</ele>
        <time>2026-05-24T08:12:22.000Z</time>
      </trkpt>
      <trkpt lat="43.08886" lon="0.31323">
        <ele>564</ele>
        <time>2026-05-24T08:12:26.000Z</time>
      </trkpt>
      <trkpt lat="43.08894" lon="0.31364">
        <ele>567.44</ele>
        <time>2026-05-24T08:12:29.000Z</time>
      </trkpt>
      <trkpt lat="43.08902" lon="0.31394">
        <ele>567.86</ele>
        <time>2026-05-24T08:12:32.000Z</time>
      </trkpt>
      <trkpt lat="43.08917" lon="0.31427">
        <ele>565.21</ele>
        <time>2026-05-24T08:12:35.000Z</time>
      </trkpt>
      <trkpt lat="43.08924" lon="0.31452">
        <ele>564.2</ele>
        <time>2026-05-24T08:12:37.000Z</time>
      </trkpt>
      <trkpt lat="43.08929" lon="0.31477">
        <ele>564.22</ele>
        <time>2026-05-24T08:12:39.000Z</time>
      </trkpt>
      <trkpt lat="43.08934" lon="0.31505">
        <ele>562.34</ele>
        <time>2026-05-24T08:12:41.000Z</time>
      </trkpt>
      <trkpt lat="43.08939" lon="0.31534">
        <ele>560.4</ele>
        <time>2026-05-24T08:12:43.000Z</time>
      </trkpt>
      <trkpt lat="43.08943" lon="0.31563">
        <ele>557.58</ele>
        <time>2026-05-24T08:12:45.000Z</time>
      </trkpt>
      <trkpt lat="43.08949" lon="0.31591">
        <ele>556.71</ele>
        <time>2026-05-24T08:12:47.000Z</time>
      </trkpt>
      <trkpt lat="43.08958" lon="0.3162">
        <ele>554.29</ele>
        <time>2026-05-24T08:12:49.000Z</time>
      </trkpt>
      <trkpt lat="43.0897" lon="0.31646">
        <ele>550.67</ele>
        <time>2026-05-24T08:12:51.000Z</time>
      </trkpt>
      <trkpt lat="43.08982" lon="0.31674">
        <ele>549.14</ele>
        <time>2026-05-24T08:12:53.000Z</time>
      </trkpt>
      <trkpt lat="43.08994" lon="0.317">
        <ele>548.03</ele>
        <time>2026-05-24T08:12:55.000Z</time>
      </trkpt>
      <trkpt lat="43.09006" lon="0.31725">
        <ele>546.75</ele>
        <time>2026-05-24T08:12:57.000Z</time>
      </trkpt>
      <trkpt lat="43.09018" lon="0.31749">
        <ele>545.64</ele>
        <time>2026-05-24T08:12:59.000Z</time>
      </trkpt>
      <trkpt lat="43.09034" lon="0.31769">
        <ele>543.88</ele>
        <time>2026-05-24T08:13:02.000Z</time>
      </trkpt>
      <trkpt lat="43.09045" lon="0.31748">
        <ele>545.28</ele>
        <time>2026-05-24T08:13:06.000Z</time>
      </trkpt>
      <trkpt lat="43.09053" lon="0.31722">
        <ele>546.82</ele>
        <time>2026-05-24T08:13:13.000Z</time>
      </trkpt>
      <trkpt lat="43.09064" lon="0.317">
        <ele>547.16</ele>
        <time>2026-05-24T08:13:23.000Z</time>
      </trkpt>
      <trkpt lat="43.09074" lon="0.31679">
        <ele>552.13</ele>
        <time>2026-05-24T08:13:35.000Z</time>
      </trkpt>
      <trkpt lat="43.09087" lon="0.31658">
        <ele>552.96</ele>
        <time>2026-05-24T08:13:44.000Z</time>
      </trkpt>
      <trkpt lat="43.091" lon="0.31637">
        <ele>551.91</ele>
        <time>2026-05-24T08:13:53.000Z</time>
      </trkpt>
      <trkpt lat="43.09112" lon="0.31615">
        <ele>554.27</ele>
        <time>2026-05-24T08:14:02.000Z</time>
      </trkpt>
      <trkpt lat="43.09125" lon="0.31598">
        <ele>553.55</ele>
        <time>2026-05-24T08:14:10.000Z</time>
      </trkpt>
      <trkpt lat="43.0914" lon="0.31581">
        <ele>554.6</ele>
        <time>2026-05-24T08:14:18.000Z</time>
      </trkpt>
      <trkpt lat="43.09155" lon="0.31564">
        <ele>555.37</ele>
        <time>2026-05-24T08:14:24.000Z</time>
      </trkpt>
      <trkpt lat="43.09171" lon="0.31548">
        <ele>557.21</ele>
        <time>2026-05-24T08:14:30.000Z</time>
      </trkpt>
      <trkpt lat="43.09184" lon="0.31529">
        <ele>558.26</ele>
        <time>2026-05-24T08:14:36.000Z</time>
      </trkpt>
      <trkpt lat="43.09193" lon="0.31507">
        <ele>559.39</ele>
        <time>2026-05-24T08:14:42.000Z</time>
      </trkpt>
      <trkpt lat="43.09198" lon="0.31483">
        <ele>560.32</ele>
        <time>2026-05-24T08:14:48.000Z</time>
      </trkpt>
      <trkpt lat="43.09204" lon="0.31459">
        <ele>565.6</ele>
        <time>2026-05-24T08:14:59.000Z</time>
      </trkpt>
      <trkpt lat="43.0921" lon="0.31429">
        <ele>566.1</ele>
        <time>2026-05-24T08:15:07.000Z</time>
      </trkpt>
      <trkpt lat="43.09216" lon="0.31381">
        <ele>562.18</ele>
        <time>2026-05-24T08:15:09.000Z</time>
      </trkpt>
      <trkpt lat="43.09224" lon="0.31355">
        <ele>559.97</ele>
        <time>2026-05-24T08:15:14.000Z</time>
      </trkpt>
      <trkpt lat="43.09234" lon="0.31332">
        <ele>559.19</ele>
        <time>2026-05-24T08:15:18.000Z</time>
      </trkpt>
      <trkpt lat="43.09243" lon="0.31304">
        <ele>558.52</ele>
        <time>2026-05-24T08:15:22.000Z</time>
      </trkpt>
      <trkpt lat="43.09253" lon="0.3128">
        <ele>557.66</ele>
        <time>2026-05-24T08:15:25.000Z</time>
      </trkpt>
      <trkpt lat="43.09267" lon="0.31253">
        <ele>556.08</ele>
        <time>2026-05-24T08:15:28.000Z</time>
      </trkpt>
      <trkpt lat="43.0928" lon="0.31228">
        <ele>555.35</ele>
        <time>2026-05-24T08:15:31.000Z</time>
      </trkpt>
      <trkpt lat="43.09291" lon="0.31206">
        <ele>554.42</ele>
        <time>2026-05-24T08:15:34.000Z</time>
      </trkpt>
      <trkpt lat="43.09304" lon="0.31187">
        <ele>554.49</ele>
        <time>2026-05-24T08:15:37.000Z</time>
      </trkpt>
      <trkpt lat="43.09317" lon="0.31167">
        <ele>553.35</ele>
        <time>2026-05-24T08:15:40.000Z</time>
      </trkpt>
      <trkpt lat="43.09331" lon="0.31147">
        <ele>552.25</ele>
        <time>2026-05-24T08:15:43.000Z</time>
      </trkpt>
      <trkpt lat="43.09344" lon="0.31124">
        <ele>550.83</ele>
        <time>2026-05-24T08:15:46.000Z</time>
      </trkpt>
      <trkpt lat="43.09357" lon="0.31098">
        <ele>548.52</ele>
        <time>2026-05-24T08:15:49.000Z</time>
      </trkpt>
      <trkpt lat="43.09366" lon="0.31076">
        <ele>545.99</ele>
        <time>2026-05-24T08:15:51.000Z</time>
      </trkpt>
      <trkpt lat="43.09382" lon="0.31048">
        <ele>544.41</ele>
        <time>2026-05-24T08:15:54.000Z</time>
      </trkpt>
      <trkpt lat="43.09393" lon="0.31028">
        <ele>543.57</ele>
        <time>2026-05-24T08:15:56.000Z</time>
      </trkpt>
      <trkpt lat="43.09407" lon="0.31001">
        <ele>543.21</ele>
        <time>2026-05-24T08:15:59.000Z</time>
      </trkpt>
      <trkpt lat="43.09416" lon="0.30977">
        <ele>543.86</ele>
        <time>2026-05-24T08:16:02.000Z</time>
      </trkpt>
      <trkpt lat="43.09427" lon="0.30952">
        <ele>545.31</ele>
        <time>2026-05-24T08:16:06.000Z</time>
      </trkpt>
      <trkpt lat="43.09437" lon="0.30924">
        <ele>545.81</ele>
        <time>2026-05-24T08:16:11.000Z</time>
      </trkpt>
      <trkpt lat="43.09446" lon="0.30901">
        <ele>548.24</ele>
        <time>2026-05-24T08:16:16.000Z</time>
      </trkpt>
      <trkpt lat="43.09452" lon="0.30878">
        <ele>551.62</ele>
        <time>2026-05-24T08:16:21.000Z</time>
      </trkpt>
      <trkpt lat="43.0946" lon="0.30854">
        <ele>553.62</ele>
        <time>2026-05-24T08:16:27.000Z</time>
      </trkpt>
      <trkpt lat="43.0947" lon="0.3083">
        <ele>556.9</ele>
        <time>2026-05-24T08:16:34.000Z</time>
      </trkpt>
      <trkpt lat="43.09479" lon="0.30808">
        <ele>560.16</ele>
        <time>2026-05-24T08:16:40.000Z</time>
      </trkpt>
      <trkpt lat="43.0949" lon="0.30783">
        <ele>563.56</ele>
        <time>2026-05-24T08:16:47.000Z</time>
      </trkpt>
      <trkpt lat="43.09502" lon="0.30763">
        <ele>564.23</ele>
        <time>2026-05-24T08:16:53.000Z</time>
      </trkpt>
      <trkpt lat="43.09515" lon="0.30743">
        <ele>563.51</ele>
        <time>2026-05-24T08:16:57.000Z</time>
      </trkpt>
      <trkpt lat="43.09526" lon="0.3072">
        <ele>562.1</ele>
        <time>2026-05-24T08:17:02.000Z</time>
      </trkpt>
      <trkpt lat="43.09537" lon="0.30699">
        <ele>560.06</ele>
        <time>2026-05-24T08:17:06.000Z</time>
      </trkpt>
      <trkpt lat="43.09549" lon="0.30678">
        <ele>559.98</ele>
        <time>2026-05-24T08:17:11.000Z</time>
      </trkpt>
      <trkpt lat="43.09562" lon="0.30655">
        <ele>561.34</ele>
        <time>2026-05-24T08:17:17.000Z</time>
      </trkpt>
      <trkpt lat="43.09575" lon="0.30628">
        <ele>558.8</ele>
        <time>2026-05-24T08:17:21.000Z</time>
      </trkpt>
      <trkpt lat="43.0959" lon="0.30602">
        <ele>557.2</ele>
        <time>2026-05-24T08:17:25.000Z</time>
      </trkpt>
      <trkpt lat="43.09602" lon="0.30576">
        <ele>556.12</ele>
        <time>2026-05-24T08:17:29.000Z</time>
      </trkpt>
      <trkpt lat="43.09618" lon="0.3056">
        <ele>553.25</ele>
        <time>2026-05-24T08:17:33.000Z</time>
      </trkpt>
      <trkpt lat="43.09638" lon="0.30548">
        <ele>550.81</ele>
        <time>2026-05-24T08:17:37.000Z</time>
      </trkpt>
      <trkpt lat="43.09655" lon="0.30532">
        <ele>546.29</ele>
        <time>2026-05-24T08:17:40.000Z</time>
      </trkpt>
      <trkpt lat="43.09665" lon="0.30512">
        <ele>543.14</ele>
        <time>2026-05-24T08:17:44.000Z</time>
      </trkpt>
      <trkpt lat="43.09667" lon="0.30505">
        <ele>535.5</ele>
        <time>2026-05-24T08:17:53.000Z</time>
      </trkpt>
      <trkpt lat="43.09668" lon="0.30516">
        <ele>542.72</ele>
        <time>2026-05-24T08:19:52.000Z</time>
      </trkpt>
      <trkpt lat="43.09666" lon="0.30543">
        <ele>543.54</ele>
        <time>2026-05-24T08:20:03.000Z</time>
      </trkpt>
      <trkpt lat="43.09667" lon="0.30568">
        <ele>543.3</ele>
        <time>2026-05-24T08:20:14.000Z</time>
      </trkpt>
      <trkpt lat="43.09667" lon="0.30594">
        <ele>542.61</ele>
        <time>2026-05-24T08:20:26.000Z</time>
      </trkpt>
      <trkpt lat="43.09667" lon="0.30619">
        <ele>545.35</ele>
        <time>2026-05-24T08:20:38.000Z</time>
      </trkpt>
      <trkpt lat="43.09659" lon="0.30641">
        <ele>548.52</ele>
        <time>2026-05-24T08:20:51.000Z</time>
      </trkpt>
      <trkpt lat="43.09641" lon="0.30631">
        <ele>547.56</ele>
        <time>2026-05-24T08:21:03.000Z</time>
      </trkpt>
      <trkpt lat="43.09631" lon="0.3061">
        <ele>550.74</ele>
        <time>2026-05-24T08:21:12.000Z</time>
      </trkpt>
      <trkpt lat="43.09613" lon="0.306">
        <ele>553.02</ele>
        <time>2026-05-24T08:21:21.000Z</time>
      </trkpt>
      <trkpt lat="43.09601" lon="0.30619">
        <ele>555.64</ele>
        <time>2026-05-24T08:21:28.000Z</time>
      </trkpt>
      <trkpt lat="43.09606" lon="0.30644">
        <ele>558.7</ele>
        <time>2026-05-24T08:21:38.000Z</time>
      </trkpt>
      <trkpt lat="43.09605" lon="0.30669">
        <ele>565.37</ele>
        <time>2026-05-24T08:21:54.000Z</time>
      </trkpt>
      <trkpt lat="43.09602" lon="0.30694">
        <ele>568.3</ele>
        <time>2026-05-24T08:22:07.000Z</time>
      </trkpt>
      <trkpt lat="43.09599" lon="0.3072">
        <ele>571.1</ele>
        <time>2026-05-24T08:22:20.000Z</time>
      </trkpt>
      <trkpt lat="43.09596" lon="0.30747">
        <ele>572.44</ele>
        <time>2026-05-24T08:22:31.000Z</time>
      </trkpt>
      <trkpt lat="43.09592" lon="0.30773">
        <ele>573.92</ele>
        <time>2026-05-24T08:22:40.000Z</time>
      </trkpt>
      <trkpt lat="43.09589" lon="0.30799">
        <ele>574.03</ele>
        <time>2026-05-24T08:22:48.000Z</time>
      </trkpt>
      <trkpt lat="43.09586" lon="0.30824">
        <ele>575.2</ele>
        <time>2026-05-24T08:22:56.000Z</time>
      </trkpt>
      <trkpt lat="43.09583" lon="0.3085">
        <ele>575.33</ele>
        <time>2026-05-24T08:23:04.000Z</time>
      </trkpt>
      <trkpt lat="43.09579" lon="0.30875">
        <ele>577.23</ele>
        <time>2026-05-24T08:23:12.000Z</time>
      </trkpt>
      <trkpt lat="43.09578" lon="0.30903">
        <ele>578.34</ele>
        <time>2026-05-24T08:23:21.000Z</time>
      </trkpt>
      <trkpt lat="43.09577" lon="0.30931">
        <ele>579.47</ele>
        <time>2026-05-24T08:23:31.000Z</time>
      </trkpt>
      <trkpt lat="43.09576" lon="0.30956">
        <ele>580.62</ele>
        <time>2026-05-24T08:23:40.000Z</time>
      </trkpt>
      <trkpt lat="43.09574" lon="0.30983">
        <ele>582.71</ele>
        <time>2026-05-24T08:23:50.000Z</time>
      </trkpt>
      <trkpt lat="43.09572" lon="0.31007">
        <ele>584.51</ele>
        <time>2026-05-24T08:23:59.000Z</time>
      </trkpt>
      <trkpt lat="43.0957" lon="0.31032">
        <ele>587.24</ele>
        <time>2026-05-24T08:24:09.000Z</time>
      </trkpt>
      <trkpt lat="43.09567" lon="0.31059">
        <ele>587.78</ele>
        <time>2026-05-24T08:24:18.000Z</time>
      </trkpt>
      <trkpt lat="43.09564" lon="0.31084">
        <ele>590.34</ele>
        <time>2026-05-24T08:24:26.000Z</time>
      </trkpt>
      <trkpt lat="43.09563" lon="0.31109">
        <ele>592.04</ele>
        <time>2026-05-24T08:24:33.000Z</time>
      </trkpt>
      <trkpt lat="43.09562" lon="0.31133">
        <ele>593.39</ele>
        <time>2026-05-24T08:24:40.000Z</time>
      </trkpt>
      <trkpt lat="43.09562" lon="0.31159">
        <ele>594.53</ele>
        <time>2026-05-24T08:24:47.000Z</time>
      </trkpt>
      <trkpt lat="43.0956" lon="0.31184">
        <ele>594.98</ele>
        <time>2026-05-24T08:24:54.000Z</time>
      </trkpt>
      <trkpt lat="43.0956" lon="0.3121">
        <ele>596.01</ele>
        <time>2026-05-24T08:25:01.000Z</time>
      </trkpt>
      <trkpt lat="43.09556" lon="0.31236">
        <ele>601.32</ele>
        <time>2026-05-24T08:25:09.000Z</time>
      </trkpt>
      <trkpt lat="43.09555" lon="0.31264">
        <ele>600.94</ele>
        <time>2026-05-24T08:25:16.000Z</time>
      </trkpt>
      <trkpt lat="43.09554" lon="0.31291">
        <ele>600.82</ele>
        <time>2026-05-24T08:25:22.000Z</time>
      </trkpt>
      <trkpt lat="43.09554" lon="0.31318">
        <ele>601.66</ele>
        <time>2026-05-24T08:25:28.000Z</time>
      </trkpt>
      <trkpt lat="43.09552" lon="0.31344">
        <ele>602.38</ele>
        <time>2026-05-24T08:25:34.000Z</time>
      </trkpt>
      <trkpt lat="43.09551" lon="0.31372">
        <ele>603.01</ele>
        <time>2026-05-24T08:25:41.000Z</time>
      </trkpt>
      <trkpt lat="43.09544" lon="0.31398">
        <ele>604.41</ele>
        <time>2026-05-24T08:25:49.000Z</time>
      </trkpt>
      <trkpt lat="43.09534" lon="0.31422">
        <ele>604.9</ele>
        <time>2026-05-24T08:25:58.000Z</time>
      </trkpt>
      <trkpt lat="43.09525" lon="0.31444">
        <ele>605.8</ele>
        <time>2026-05-24T08:26:06.000Z</time>
      </trkpt>
      <trkpt lat="43.09517" lon="0.31468">
        <ele>608.14</ele>
        <time>2026-05-24T08:26:14.000Z</time>
      </trkpt>
      <trkpt lat="43.0951" lon="0.31491">
        <ele>609.88</ele>
        <time>2026-05-24T08:26:22.000Z</time>
      </trkpt>
      <trkpt lat="43.09503" lon="0.31516">
        <ele>612.29</ele>
        <time>2026-05-24T08:26:30.000Z</time>
      </trkpt>
      <trkpt lat="43.09498" lon="0.3154">
        <ele>614.22</ele>
        <time>2026-05-24T08:26:37.000Z</time>
      </trkpt>
      <trkpt lat="43.09493" lon="0.31565">
        <ele>615.95</ele>
        <time>2026-05-24T08:26:44.000Z</time>
      </trkpt>
      <trkpt lat="43.0949" lon="0.3159">
        <ele>616.45</ele>
        <time>2026-05-24T08:26:51.000Z</time>
      </trkpt>
      <trkpt lat="43.09485" lon="0.31617">
        <ele>617.42</ele>
        <time>2026-05-24T08:26:59.000Z</time>
      </trkpt>
      <trkpt lat="43.0948" lon="0.31643">
        <ele>617.12</ele>
        <time>2026-05-24T08:27:06.000Z</time>
      </trkpt>
      <trkpt lat="43.09477" lon="0.31679">
        <ele>612.4</ele>
        <time>2026-05-24T08:27:13.000Z</time>
      </trkpt>
      <trkpt lat="43.09495" lon="0.31684">
        <ele>618.35</ele>
        <time>2026-05-24T08:27:46.000Z</time>
      </trkpt>
      <trkpt lat="43.09513" lon="0.31676">
        <ele>618.27</ele>
        <time>2026-05-24T08:27:50.000Z</time>
      </trkpt>
      <trkpt lat="43.09536" lon="0.31668">
        <ele>616.36</ele>
        <time>2026-05-24T08:27:54.000Z</time>
      </trkpt>
      <trkpt lat="43.09557" lon="0.31657">
        <ele>616.11</ele>
        <time>2026-05-24T08:27:57.000Z</time>
      </trkpt>
      <trkpt lat="43.09577" lon="0.31644">
        <ele>616.01</ele>
        <time>2026-05-24T08:28:00.000Z</time>
      </trkpt>
      <trkpt lat="43.09597" lon="0.31626">
        <ele>614.6</ele>
        <time>2026-05-24T08:28:03.000Z</time>
      </trkpt>
      <trkpt lat="43.09618" lon="0.31611">
        <ele>614.45</ele>
        <time>2026-05-24T08:28:06.000Z</time>
      </trkpt>
      <trkpt lat="43.09641" lon="0.31595">
        <ele>614.21</ele>
        <time>2026-05-24T08:28:09.000Z</time>
      </trkpt>
      <trkpt lat="43.09663" lon="0.31578">
        <ele>612.55</ele>
        <time>2026-05-24T08:28:12.000Z</time>
      </trkpt>
      <trkpt lat="43.09683" lon="0.31562">
        <ele>611.51</ele>
        <time>2026-05-24T08:28:15.000Z</time>
      </trkpt>
      <trkpt lat="43.09704" lon="0.31546">
        <ele>610.25</ele>
        <time>2026-05-24T08:28:18.000Z</time>
      </trkpt>
      <trkpt lat="43.09721" lon="0.31528">
        <ele>609.19</ele>
        <time>2026-05-24T08:28:21.000Z</time>
      </trkpt>
      <trkpt lat="43.0974" lon="0.31512">
        <ele>609.74</ele>
        <time>2026-05-24T08:28:24.000Z</time>
      </trkpt>
      <trkpt lat="43.09758" lon="0.31499">
        <ele>610.68</ele>
        <time>2026-05-24T08:28:27.000Z</time>
      </trkpt>
      <trkpt lat="43.09775" lon="0.31486">
        <ele>611.67</ele>
        <time>2026-05-24T08:28:30.000Z</time>
      </trkpt>
      <trkpt lat="43.0979" lon="0.31471">
        <ele>611.76</ele>
        <time>2026-05-24T08:28:33.000Z</time>
      </trkpt>
      <trkpt lat="43.09806" lon="0.31456">
        <ele>612.12</ele>
        <time>2026-05-24T08:28:36.000Z</time>
      </trkpt>
      <trkpt lat="43.09826" lon="0.3144">
        <ele>612.71</ele>
        <time>2026-05-24T08:28:40.000Z</time>
      </trkpt>
      <trkpt lat="43.09846" lon="0.31427">
        <ele>612.82</ele>
        <time>2026-05-24T08:28:44.000Z</time>
      </trkpt>
      <trkpt lat="43.09864" lon="0.3141">
        <ele>612.33</ele>
        <time>2026-05-24T08:28:48.000Z</time>
      </trkpt>
      <trkpt lat="43.0988" lon="0.31398">
        <ele>612.45</ele>
        <time>2026-05-24T08:28:51.000Z</time>
      </trkpt>
      <trkpt lat="43.099" lon="0.31381">
        <ele>613.63</ele>
        <time>2026-05-24T08:28:55.000Z</time>
      </trkpt>
      <trkpt lat="43.0992" lon="0.31366">
        <ele>614.64</ele>
        <time>2026-05-24T08:28:59.000Z</time>
      </trkpt>
      <trkpt lat="43.0994" lon="0.31351">
        <ele>616.03</ele>
        <time>2026-05-24T08:29:03.000Z</time>
      </trkpt>
      <trkpt lat="43.09961" lon="0.31335">
        <ele>616.88</ele>
        <time>2026-05-24T08:29:07.000Z</time>
      </trkpt>
      <trkpt lat="43.0998" lon="0.31319">
        <ele>615.93</ele>
        <time>2026-05-24T08:29:11.000Z</time>
      </trkpt>
      <trkpt lat="43.09996" lon="0.31306">
        <ele>615.68</ele>
        <time>2026-05-24T08:29:14.000Z</time>
      </trkpt>
      <trkpt lat="43.10015" lon="0.31291">
        <ele>614.87</ele>
        <time>2026-05-24T08:29:18.000Z</time>
      </trkpt>
      <trkpt lat="43.10035" lon="0.31281">
        <ele>615.33</ele>
        <time>2026-05-24T08:29:22.000Z</time>
      </trkpt>
      <trkpt lat="43.10053" lon="0.31274">
        <ele>615.98</ele>
        <time>2026-05-24T08:29:25.000Z</time>
      </trkpt>
      <trkpt lat="43.10074" lon="0.31264">
        <ele>614.85</ele>
        <time>2026-05-24T08:29:29.000Z</time>
      </trkpt>
      <trkpt lat="43.10096" lon="0.31257">
        <ele>613.95</ele>
        <time>2026-05-24T08:29:33.000Z</time>
      </trkpt>
      <trkpt lat="43.10114" lon="0.31253">
        <ele>613.68</ele>
        <time>2026-05-24T08:29:36.000Z</time>
      </trkpt>
      <trkpt lat="43.10134" lon="0.31246">
        <ele>613.44</ele>
        <time>2026-05-24T08:29:39.000Z</time>
      </trkpt>
      <trkpt lat="43.10153" lon="0.31238">
        <ele>613.33</ele>
        <time>2026-05-24T08:29:42.000Z</time>
      </trkpt>
      <trkpt lat="43.10171" lon="0.31228">
        <ele>611.46</ele>
        <time>2026-05-24T08:29:45.000Z</time>
      </trkpt>
      <trkpt lat="43.1019" lon="0.3122">
        <ele>611.91</ele>
        <time>2026-05-24T08:29:48.000Z</time>
      </trkpt>
      <trkpt lat="43.10212" lon="0.31212">
        <ele>612.03</ele>
        <time>2026-05-24T08:29:52.000Z</time>
      </trkpt>
      <trkpt lat="43.10231" lon="0.31207">
        <ele>612.16</ele>
        <time>2026-05-24T08:29:56.000Z</time>
      </trkpt>
      <trkpt lat="43.10252" lon="0.31201">
        <ele>616.04</ele>
        <time>2026-05-24T08:30:01.000Z</time>
      </trkpt>
      <trkpt lat="43.1027" lon="0.31195">
        <ele>615.26</ele>
        <time>2026-05-24T08:30:05.000Z</time>
      </trkpt>
      <trkpt lat="43.10291" lon="0.31192">
        <ele>616.15</ele>
        <time>2026-05-24T08:30:10.000Z</time>
      </trkpt>
      <trkpt lat="43.10313" lon="0.31203">
        <ele>605.3</ele>
        <time>2026-05-24T08:30:15.000Z</time>
      </trkpt>
      <trkpt lat="43.10322" lon="0.31187">
        <ele>605.1</ele>
        <time>2026-05-24T08:31:29.000Z</time>
      </trkpt>
      <trkpt lat="43.10345" lon="0.31207">
        <ele>605.39</ele>
        <time>2026-05-24T08:31:33.000Z</time>
      </trkpt>
      <trkpt lat="43.10356" lon="0.31227">
        <ele>608.21</ele>
        <time>2026-05-24T08:31:36.000Z</time>
      </trkpt>
      <trkpt lat="43.10361" lon="0.31259">
        <ele>605.63</ele>
        <time>2026-05-24T08:31:39.000Z</time>
      </trkpt>
      <trkpt lat="43.10375" lon="0.31285">
        <ele>606.06</ele>
        <time>2026-05-24T08:31:42.000Z</time>
      </trkpt>
      <trkpt lat="43.10395" lon="0.31293">
        <ele>605.97</ele>
        <time>2026-05-24T08:31:45.000Z</time>
      </trkpt>
      <trkpt lat="43.10413" lon="0.3129">
        <ele>603.66</ele>
        <time>2026-05-24T08:31:48.000Z</time>
      </trkpt>
      <trkpt lat="43.10434" lon="0.31286">
        <ele>603.32</ele>
        <time>2026-05-24T08:31:52.000Z</time>
      </trkpt>
      <trkpt lat="43.10455" lon="0.31284">
        <ele>600.85</ele>
        <time>2026-05-24T08:31:56.000Z</time>
      </trkpt>
      <trkpt lat="43.10478" lon="0.31295">
        <ele>593.9</ele>
        <time>2026-05-24T08:32:00.000Z</time>
      </trkpt>
      <trkpt lat="43.10505" lon="0.31281">
        <ele>592.5</ele>
        <time>2026-05-24T08:32:04.000Z</time>
      </trkpt>
      <trkpt lat="43.10515" lon="0.31263">
        <ele>596.46</ele>
        <time>2026-05-24T08:32:09.000Z</time>
      </trkpt>
      <trkpt lat="43.10531" lon="0.31243">
        <ele>595.76</ele>
        <time>2026-05-24T08:32:13.000Z</time>
      </trkpt>
      <trkpt lat="43.10548" lon="0.31234">
        <ele>597.81</ele>
        <time>2026-05-24T08:32:17.000Z</time>
      </trkpt>
      <trkpt lat="43.10566" lon="0.31217">
        <ele>595.88</ele>
        <time>2026-05-24T08:32:21.000Z</time>
      </trkpt>
      <trkpt lat="43.10582" lon="0.31203">
        <ele>595.02</ele>
        <time>2026-05-24T08:32:24.000Z</time>
      </trkpt>
      <trkpt lat="43.10599" lon="0.31186">
        <ele>596.37</ele>
        <time>2026-05-24T08:32:28.000Z</time>
      </trkpt>
      <trkpt lat="43.10617" lon="0.31162">
        <ele>596.91</ele>
        <time>2026-05-24T08:32:32.000Z</time>
      </trkpt>
      <trkpt lat="43.10634" lon="0.3114">
        <ele>591.19</ele>
        <time>2026-05-24T08:32:36.000Z</time>
      </trkpt>
      <trkpt lat="43.10651" lon="0.3112">
        <ele>590.81</ele>
        <time>2026-05-24T08:32:40.000Z</time>
      </trkpt>
      <trkpt lat="43.10667" lon="0.31104">
        <ele>590.77</ele>
        <time>2026-05-24T08:32:44.000Z</time>
      </trkpt>
      <trkpt lat="43.10682" lon="0.31088">
        <ele>590.51</ele>
        <time>2026-05-24T08:32:49.000Z</time>
      </trkpt>
      <trkpt lat="43.10695" lon="0.31066">
        <ele>590.31</ele>
        <time>2026-05-24T08:32:53.000Z</time>
      </trkpt>
      <trkpt lat="43.10711" lon="0.31044">
        <ele>590.99</ele>
        <time>2026-05-24T08:32:57.000Z</time>
      </trkpt>
      <trkpt lat="43.10729" lon="0.31028">
        <ele>587.26</ele>
        <time>2026-05-24T08:33:01.000Z</time>
      </trkpt>
      <trkpt lat="43.10747" lon="0.31015">
        <ele>587.89</ele>
        <time>2026-05-24T08:33:06.000Z</time>
      </trkpt>
      <trkpt lat="43.10765" lon="0.31003">
        <ele>585.41</ele>
        <time>2026-05-24T08:33:10.000Z</time>
      </trkpt>
      <trkpt lat="43.10782" lon="0.30986">
        <ele>585.64</ele>
        <time>2026-05-24T08:33:14.000Z</time>
      </trkpt>
      <trkpt lat="43.10798" lon="0.30975">
        <ele>586.59</ele>
        <time>2026-05-24T08:33:17.000Z</time>
      </trkpt>
      <trkpt lat="43.10816" lon="0.30965">
        <ele>588.05</ele>
        <time>2026-05-24T08:33:20.000Z</time>
      </trkpt>
      <trkpt lat="43.10833" lon="0.30953">
        <ele>586.51</ele>
        <time>2026-05-24T08:33:23.000Z</time>
      </trkpt>
      <trkpt lat="43.10853" lon="0.30942">
        <ele>587.08</ele>
        <time>2026-05-24T08:33:26.000Z</time>
      </trkpt>
      <trkpt lat="43.10872" lon="0.30933">
        <ele>584.33</ele>
        <time>2026-05-24T08:33:30.000Z</time>
      </trkpt>
      <trkpt lat="43.10889" lon="0.30923">
        <ele>585.79</ele>
        <time>2026-05-24T08:33:33.000Z</time>
      </trkpt>
      <trkpt lat="43.10907" lon="0.30913">
        <ele>582.05</ele>
        <time>2026-05-24T08:33:37.000Z</time>
      </trkpt>
      <trkpt lat="43.10927" lon="0.30901">
        <ele>579.43</ele>
        <time>2026-05-24T08:33:41.000Z</time>
      </trkpt>
      <trkpt lat="43.10946" lon="0.30893">
        <ele>580.04</ele>
        <time>2026-05-24T08:33:45.000Z</time>
      </trkpt>
      <trkpt lat="43.10965" lon="0.30887">
        <ele>579.37</ele>
        <time>2026-05-24T08:33:49.000Z</time>
      </trkpt>
      <trkpt lat="43.10984" lon="0.30879">
        <ele>580.86</ele>
        <time>2026-05-24T08:33:53.000Z</time>
      </trkpt>
      <trkpt lat="43.11004" lon="0.30875">
        <ele>583.64</ele>
        <time>2026-05-24T08:33:58.000Z</time>
      </trkpt>
      <trkpt lat="43.11021" lon="0.30864">
        <ele>581.83</ele>
        <time>2026-05-24T08:34:02.000Z</time>
      </trkpt>
      <trkpt lat="43.11037" lon="0.30849">
        <ele>581.42</ele>
        <time>2026-05-24T08:34:07.000Z</time>
      </trkpt>
      <trkpt lat="43.11054" lon="0.3083">
        <ele>578.51</ele>
        <time>2026-05-24T08:34:13.000Z</time>
      </trkpt>
      <trkpt lat="43.11069" lon="0.30812">
        <ele>576.79</ele>
        <time>2026-05-24T08:34:18.000Z</time>
      </trkpt>
      <trkpt lat="43.1108" lon="0.30793">
        <ele>576.89</ele>
        <time>2026-05-24T08:34:21.000Z</time>
      </trkpt>
      <trkpt lat="43.11089" lon="0.30771">
        <ele>573.3</ele>
        <time>2026-05-24T08:34:24.000Z</time>
      </trkpt>
      <trkpt lat="43.11101" lon="0.30747">
        <ele>572.51</ele>
        <time>2026-05-24T08:34:29.000Z</time>
      </trkpt>
      <trkpt lat="43.11113" lon="0.30728">
        <ele>570.41</ele>
        <time>2026-05-24T08:34:33.000Z</time>
      </trkpt>
      <trkpt lat="43.11125" lon="0.30709">
        <ele>569.18</ele>
        <time>2026-05-24T08:34:37.000Z</time>
      </trkpt>
      <trkpt lat="43.11135" lon="0.30684">
        <ele>567.17</ele>
        <time>2026-05-24T08:34:41.000Z</time>
      </trkpt>
      <trkpt lat="43.11149" lon="0.3066">
        <ele>567.42</ele>
        <time>2026-05-24T08:34:46.000Z</time>
      </trkpt>
      <trkpt lat="43.11163" lon="0.30638">
        <ele>566.64</ele>
        <time>2026-05-24T08:34:51.000Z</time>
      </trkpt>
      <trkpt lat="43.11182" lon="0.30629">
        <ele>575.05</ele>
        <time>2026-05-24T08:44:53.000Z</time>
      </trkpt>
      <trkpt lat="43.11198" lon="0.30616">
        <ele>576.77</ele>
        <time>2026-05-24T08:44:59.000Z</time>
      </trkpt>
      <trkpt lat="43.11216" lon="0.306">
        <ele>575.61</ele>
        <time>2026-05-24T08:45:05.000Z</time>
      </trkpt>
      <trkpt lat="43.11232" lon="0.30585">
        <ele>575.75</ele>
        <time>2026-05-24T08:45:10.000Z</time>
      </trkpt>
      <trkpt lat="43.11247" lon="0.30569">
        <ele>574.58</ele>
        <time>2026-05-24T08:45:15.000Z</time>
      </trkpt>
      <trkpt lat="43.11264" lon="0.30552">
        <ele>573.78</ele>
        <time>2026-05-24T08:45:21.000Z</time>
      </trkpt>
      <trkpt lat="43.11279" lon="0.30531">
        <ele>573.41</ele>
        <time>2026-05-24T08:45:27.000Z</time>
      </trkpt>
      <trkpt lat="43.11293" lon="0.30515">
        <ele>572.75</ele>
        <time>2026-05-24T08:45:32.000Z</time>
      </trkpt>
      <trkpt lat="43.11311" lon="0.30501">
        <ele>572.84</ele>
        <time>2026-05-24T08:45:37.000Z</time>
      </trkpt>
      <trkpt lat="43.11326" lon="0.30487">
        <ele>572.27</ele>
        <time>2026-05-24T08:45:41.000Z</time>
      </trkpt>
      <trkpt lat="43.11347" lon="0.30477">
        <ele>573.61</ele>
        <time>2026-05-24T08:45:46.000Z</time>
      </trkpt>
      <trkpt lat="43.11366" lon="0.30462">
        <ele>573.63</ele>
        <time>2026-05-24T08:45:51.000Z</time>
      </trkpt>
      <trkpt lat="43.11383" lon="0.30448">
        <ele>575.83</ele>
        <time>2026-05-24T08:45:56.000Z</time>
      </trkpt>
      <trkpt lat="43.114" lon="0.30426">
        <ele>574.03</ele>
        <time>2026-05-24T08:46:01.000Z</time>
      </trkpt>
      <trkpt lat="43.11414" lon="0.30407">
        <ele>572.5</ele>
        <time>2026-05-24T08:46:05.000Z</time>
      </trkpt>
      <trkpt lat="43.1143" lon="0.30383">
        <ele>571.25</ele>
        <time>2026-05-24T08:46:09.000Z</time>
      </trkpt>
      <trkpt lat="43.11445" lon="0.30366">
        <ele>569.59</ele>
        <time>2026-05-24T08:46:12.000Z</time>
      </trkpt>
      <trkpt lat="43.1146" lon="0.30348">
        <ele>569.3</ele>
        <time>2026-05-24T08:46:16.000Z</time>
      </trkpt>
      <trkpt lat="43.11473" lon="0.30328">
        <ele>563.09</ele>
        <time>2026-05-24T08:46:29.000Z</time>
      </trkpt>
      <trkpt lat="43.11485" lon="0.30308">
        <ele>563.91</ele>
        <time>2026-05-24T08:46:33.000Z</time>
      </trkpt>
      <trkpt lat="43.11494" lon="0.3028">
        <ele>563.35</ele>
        <time>2026-05-24T08:46:37.000Z</time>
      </trkpt>
      <trkpt lat="43.11505" lon="0.30252">
        <ele>546.2</ele>
        <time>2026-05-24T08:46:42.000Z</time>
      </trkpt>
      <trkpt lat="43.11526" lon="0.30232">
        <ele>542.6</ele>
        <time>2026-05-24T08:46:47.000Z</time>
      </trkpt>
      <trkpt lat="43.11544" lon="0.30225">
        <ele>540.2</ele>
        <time>2026-05-24T08:46:50.000Z</time>
      </trkpt>
      <trkpt lat="43.11564" lon="0.30212">
        <ele>538.4</ele>
        <time>2026-05-24T08:46:54.000Z</time>
      </trkpt>
      <trkpt lat="43.11579" lon="0.30201">
        <ele>537.7</ele>
      </trkpt>
      <trkpt lat="43.11589" lon="0.30193">
        <ele>537.3</ele>
        <time>2026-05-24T08:46:59.000Z</time>
      </trkpt>
      <trkpt lat="43.116" lon="0.30187">
        <ele>536</ele>
        <time>2026-05-24T08:47:03.000Z</time>
      </trkpt>
      <trkpt lat="43.11616" lon="0.30176">
        <ele>535.69</ele>
        <time>2026-05-24T08:48:10.000Z</time>
      </trkpt>
      <trkpt lat="43.11633" lon="0.30165">
        <ele>534.06</ele>
        <time>2026-05-24T08:48:18.000Z</time>
      </trkpt>
      <trkpt lat="43.11651" lon="0.30161">
        <ele>536.83</ele>
        <time>2026-05-24T08:48:25.000Z</time>
      </trkpt>
      <trkpt lat="43.1167" lon="0.30152">
        <ele>538.23</ele>
        <time>2026-05-24T08:48:31.000Z</time>
      </trkpt>
      <trkpt lat="43.11687" lon="0.30143">
        <ele>536.41</ele>
        <time>2026-05-24T08:48:35.000Z</time>
      </trkpt>
      <trkpt lat="43.11706" lon="0.30133">
        <ele>533.61</ele>
        <time>2026-05-24T08:48:38.000Z</time>
      </trkpt>
      <trkpt lat="43.11726" lon="0.30118">
        <ele>534.24</ele>
        <time>2026-05-24T08:48:42.000Z</time>
      </trkpt>
      <trkpt lat="43.11741" lon="0.30103">
        <ele>529.7</ele>
        <time>2026-05-24T08:48:46.000Z</time>
      </trkpt>
      <trkpt lat="43.1176" lon="0.30093">
        <ele>524.74</ele>
        <time>2026-05-24T08:48:51.000Z</time>
      </trkpt>
      <trkpt lat="43.1178" lon="0.30084">
        <ele>527.6</ele>
        <time>2026-05-24T08:49:05.000Z</time>
      </trkpt>
      <trkpt lat="43.11797" lon="0.30077">
        <ele>525.7</ele>
        <time>2026-05-24T08:49:14.000Z</time>
      </trkpt>
      <trkpt lat="43.11811" lon="0.30073">
        <ele>523.6</ele>
        <time>2026-05-24T08:49:21.000Z</time>
      </trkpt>
      <trkpt lat="43.11828" lon="0.30044">
        <ele>525.4</ele>
        <time>2026-05-24T08:49:28.000Z</time>
      </trkpt>
      <trkpt lat="43.11846" lon="0.30017">
        <ele>522.9</ele>
        <time>2026-05-24T08:49:32.000Z</time>
      </trkpt>
      <trkpt lat="43.11851" lon="0.29996">
        <ele>521.5</ele>
        <time>2026-05-24T08:49:36.000Z</time>
      </trkpt>
      <trkpt lat="43.11865" lon="0.29968">
        <ele>516.1</ele>
        <time>2026-05-24T08:50:44.000Z</time>
      </trkpt>
      <trkpt lat="43.11883" lon="0.29964">
        <ele>527.8</ele>
        <time>2026-05-24T08:50:54.000Z</time>
      </trkpt>
      <trkpt lat="43.11897" lon="0.29946">
        <ele>524.58</ele>
        <time>2026-05-24T08:51:01.000Z</time>
      </trkpt>
      <trkpt lat="43.119" lon="0.29922">
        <ele>518.28</ele>
        <time>2026-05-24T08:51:08.000Z</time>
      </trkpt>
      <trkpt lat="43.11907" lon="0.29896">
        <ele>513.7</ele>
        <time>2026-05-24T08:51:17.000Z</time>
      </trkpt>
      <trkpt lat="43.11906" lon="0.29873">
        <ele>485.8</ele>
        <time>2026-05-24T08:51:33.000Z</time>
      </trkpt>
      <trkpt lat="43.11924" lon="0.29871">
        <ele>495.76</ele>
        <time>2026-05-24T08:51:42.000Z</time>
      </trkpt>
      <trkpt lat="43.1194" lon="0.29859">
        <ele>488.52</ele>
        <time>2026-05-24T08:51:55.000Z</time>
      </trkpt>
      <trkpt lat="43.11931" lon="0.29832">
        <ele>468.5</ele>
        <time>2026-05-24T08:52:01.000Z</time>
      </trkpt>
      <trkpt lat="43.1194" lon="0.29806">
        <ele>481.95</ele>
        <time>2026-05-24T08:52:32.000Z</time>
      </trkpt>
      <trkpt lat="43.1194" lon="0.29779">
        <ele>473.39</ele>
        <time>2026-05-24T08:52:41.000Z</time>
      </trkpt>
      <trkpt lat="43.11947" lon="0.29757">
        <ele>464.68</ele>
        <time>2026-05-24T08:52:52.000Z</time>
      </trkpt>
      <trkpt lat="43.11962" lon="0.29766">
        <ele>448.8</ele>
        <time>2026-05-24T08:52:58.000Z</time>
      </trkpt>
      <trkpt lat="43.1195" lon="0.29743">
        <ele>445.9</ele>
        <time>2026-05-24T08:53:03.000Z</time>
      </trkpt>
      <trkpt lat="43.11928" lon="0.29736">
        <ele>451.65</ele>
        <time>2026-05-24T08:53:07.000Z</time>
      </trkpt>
      <trkpt lat="43.1191" lon="0.29747">
        <ele>448.05</ele>
        <time>2026-05-24T08:53:10.000Z</time>
      </trkpt>
      <trkpt lat="43.1189" lon="0.29747">
        <ele>450.78</ele>
        <time>2026-05-24T08:53:13.000Z</time>
      </trkpt>
      <trkpt lat="43.11869" lon="0.29747">
        <ele>448.2</ele>
        <time>2026-05-24T08:53:16.000Z</time>
      </trkpt>
      <trkpt lat="43.11845" lon="0.29747">
        <ele>444.07</ele>
        <time>2026-05-24T08:53:19.000Z</time>
      </trkpt>
      <trkpt lat="43.11821" lon="0.29749">
        <ele>441.1</ele>
        <time>2026-05-24T08:53:22.000Z</time>
      </trkpt>
      <trkpt lat="43.11805" lon="0.29733">
        <ele>442.99</ele>
        <time>2026-05-24T08:53:24.000Z</time>
      </trkpt>
      <trkpt lat="43.11786" lon="0.2972">
        <ele>440.29</ele>
        <time>2026-05-24T08:53:27.000Z</time>
      </trkpt>
      <trkpt lat="43.11764" lon="0.29706">
        <ele>441.08</ele>
        <time>2026-05-24T08:53:29.000Z</time>
      </trkpt>
      <trkpt lat="43.11745" lon="0.297">
        <ele>438.52</ele>
        <time>2026-05-24T08:53:31.000Z</time>
      </trkpt>
      <trkpt lat="43.11726" lon="0.29697">
        <ele>435.95</ele>
        <time>2026-05-24T08:53:33.000Z</time>
      </trkpt>
      <trkpt lat="43.11691" lon="0.2969">
        <ele>435</ele>
        <time>2026-05-24T08:53:36.000Z</time>
      </trkpt>
      <trkpt lat="43.1169" lon="0.29674">
        <ele>436.6</ele>
      </trkpt>
      <trkpt lat="43.11707" lon="0.29661">
        <ele>439.99</ele>
        <time>2026-05-24T08:53:43.000Z</time>
      </trkpt>
      <trkpt lat="43.11725" lon="0.29655">
        <ele>445.17</ele>
        <time>2026-05-24T08:55:08.000Z</time>
      </trkpt>
      <trkpt lat="43.11742" lon="0.29652">
        <ele>445.21</ele>
        <time>2026-05-24T08:55:15.000Z</time>
      </trkpt>
      <trkpt lat="43.1176" lon="0.29648">
        <ele>439.25</ele>
        <time>2026-05-24T08:55:23.000Z</time>
      </trkpt>
      <trkpt lat="43.11778" lon="0.29639">
        <ele>440.46</ele>
        <time>2026-05-24T08:55:31.000Z</time>
      </trkpt>
      <trkpt lat="43.11796" lon="0.29631">
        <ele>443.77</ele>
        <time>2026-05-24T08:55:40.000Z</time>
      </trkpt>
      <trkpt lat="43.11813" lon="0.29618">
        <ele>444.96</ele>
        <time>2026-05-24T08:55:50.000Z</time>
      </trkpt>
      <trkpt lat="43.11832" lon="0.29613">
        <ele>446.15</ele>
        <time>2026-05-24T08:56:01.000Z</time>
      </trkpt>
      <trkpt lat="43.11849" lon="0.29602">
        <ele>444.74</ele>
        <time>2026-05-24T08:56:10.000Z</time>
      </trkpt>
      <trkpt lat="43.11866" lon="0.29591">
        <ele>445.74</ele>
        <time>2026-05-24T08:56:20.000Z</time>
      </trkpt>
      <trkpt lat="43.11882" lon="0.29577">
        <ele>450.89</ele>
        <time>2026-05-24T08:56:30.000Z</time>
      </trkpt>
      <trkpt lat="43.11894" lon="0.29556">
        <ele>450.09</ele>
        <time>2026-05-24T08:56:39.000Z</time>
      </trkpt>
      <trkpt lat="43.11898" lon="0.29529">
        <ele>451.21</ele>
        <time>2026-05-24T08:56:49.000Z</time>
      </trkpt>
      <trkpt lat="43.11893" lon="0.29504">
        <ele>448.53</ele>
        <time>2026-05-24T08:56:58.000Z</time>
      </trkpt>
      <trkpt lat="43.11881" lon="0.29485">
        <ele>450.14</ele>
        <time>2026-05-24T08:57:10.000Z</time>
      </trkpt>
      <trkpt lat="43.11873" lon="0.29463">
        <ele>455.34</ele>
        <time>2026-05-24T08:57:23.000Z</time>
      </trkpt>
      <trkpt lat="43.11871" lon="0.29437">
        <ele>455.66</ele>
        <time>2026-05-24T08:57:32.000Z</time>
      </trkpt>
      <trkpt lat="43.11875" lon="0.29411">
        <ele>455.07</ele>
        <time>2026-05-24T08:57:41.000Z</time>
      </trkpt>
      <trkpt lat="43.11874" lon="0.29384">
        <ele>463.15</ele>
        <time>2026-05-24T08:57:49.000Z</time>
      </trkpt>
      <trkpt lat="43.1187" lon="0.29358">
        <ele>466.52</ele>
        <time>2026-05-24T08:57:57.000Z</time>
      </trkpt>
      <trkpt lat="43.11869" lon="0.29333">
        <ele>467.24</ele>
        <time>2026-05-24T08:58:04.000Z</time>
      </trkpt>
      <trkpt lat="43.1187" lon="0.29306">
        <ele>466.72</ele>
        <time>2026-05-24T08:58:14.000Z</time>
      </trkpt>
      <trkpt lat="43.11867" lon="0.29282">
        <ele>471.32</ele>
        <time>2026-05-24T08:58:23.000Z</time>
      </trkpt>
      <trkpt lat="43.11863" lon="0.29256">
        <ele>472.83</ele>
        <time>2026-05-24T08:58:35.000Z</time>
      </trkpt>
      <trkpt lat="43.11864" lon="0.29231">
        <ele>474.93</ele>
        <time>2026-05-24T08:58:47.000Z</time>
      </trkpt>
      <trkpt lat="43.11861" lon="0.29205">
        <ele>475.6</ele>
        <time>2026-05-24T08:58:56.000Z</time>
      </trkpt>
      <trkpt lat="43.11853" lon="0.29182">
        <ele>478.5</ele>
        <time>2026-05-24T08:59:04.000Z</time>
      </trkpt>
      <trkpt lat="43.11844" lon="0.2916">
        <ele>479.54</ele>
        <time>2026-05-24T08:59:12.000Z</time>
      </trkpt>
      <trkpt lat="43.11836" lon="0.29134">
        <ele>481</ele>
        <time>2026-05-24T08:59:21.000Z</time>
      </trkpt>
      <trkpt lat="43.11825" lon="0.29112">
        <ele>481.39</ele>
        <time>2026-05-24T08:59:30.000Z</time>
      </trkpt>
      <trkpt lat="43.11808" lon="0.29098">
        <ele>480.85</ele>
        <time>2026-05-24T08:59:38.000Z</time>
      </trkpt>
      <trkpt lat="43.11788" lon="0.29101">
        <ele>482.48</ele>
        <time>2026-05-24T08:59:46.000Z</time>
      </trkpt>
      <trkpt lat="43.1177" lon="0.29113">
        <ele>485.09</ele>
        <time>2026-05-24T08:59:54.000Z</time>
      </trkpt>
      <trkpt lat="43.11753" lon="0.29123">
        <ele>487.37</ele>
        <time>2026-05-24T09:00:01.000Z</time>
      </trkpt>
      <trkpt lat="43.11734" lon="0.29133">
        <ele>488.71</ele>
        <time>2026-05-24T09:00:09.000Z</time>
      </trkpt>
      <trkpt lat="43.11717" lon="0.29145">
        <ele>488.5</ele>
        <time>2026-05-24T09:00:16.000Z</time>
      </trkpt>
      <trkpt lat="43.117" lon="0.29154">
        <ele>488.88</ele>
        <time>2026-05-24T09:00:22.000Z</time>
      </trkpt>
      <trkpt lat="43.11682" lon="0.29165">
        <ele>491.91</ele>
        <time>2026-05-24T09:00:30.000Z</time>
      </trkpt>
      <trkpt lat="43.11664" lon="0.29175">
        <ele>490</ele>
        <time>2026-05-24T09:00:38.000Z</time>
      </trkpt>
      <trkpt lat="43.11643" lon="0.29178">
        <ele>493.84</ele>
        <time>2026-05-24T09:00:45.000Z</time>
      </trkpt>
      <trkpt lat="43.11625" lon="0.29174">
        <ele>496.29</ele>
        <time>2026-05-24T09:00:52.000Z</time>
      </trkpt>
      <trkpt lat="43.11605" lon="0.29172">
        <ele>498.3</ele>
        <time>2026-05-24T09:00:59.000Z</time>
      </trkpt>
      <trkpt lat="43.11587" lon="0.29174">
        <ele>499.5</ele>
        <time>2026-05-24T09:01:06.000Z</time>
      </trkpt>
      <trkpt lat="43.11569" lon="0.29179">
        <ele>498.35</ele>
        <time>2026-05-24T09:01:13.000Z</time>
      </trkpt>
      <trkpt lat="43.1155" lon="0.29181">
        <ele>498.93</ele>
        <time>2026-05-24T09:01:20.000Z</time>
      </trkpt>
      <trkpt lat="43.11529" lon="0.29178">
        <ele>497.29</ele>
        <time>2026-05-24T09:01:27.000Z</time>
      </trkpt>
      <trkpt lat="43.11512" lon="0.29163">
        <ele>499.23</ele>
        <time>2026-05-24T09:01:34.000Z</time>
      </trkpt>
      <trkpt lat="43.11498" lon="0.29148">
        <ele>500.67</ele>
        <time>2026-05-24T09:01:40.000Z</time>
      </trkpt>
      <trkpt lat="43.11483" lon="0.2913">
        <ele>497.72</ele>
        <time>2026-05-24T09:01:46.000Z</time>
      </trkpt>
      <trkpt lat="43.11469" lon="0.2911">
        <ele>498.19</ele>
        <time>2026-05-24T09:01:52.000Z</time>
      </trkpt>
      <trkpt lat="43.11457" lon="0.2909">
        <ele>498.43</ele>
        <time>2026-05-24T09:01:57.000Z</time>
      </trkpt>
      <trkpt lat="43.11445" lon="0.29068">
        <ele>495.64</ele>
        <time>2026-05-24T09:02:02.000Z</time>
      </trkpt>
      <trkpt lat="43.11433" lon="0.29046">
        <ele>497.2</ele>
        <time>2026-05-24T09:02:07.000Z</time>
      </trkpt>
      <trkpt lat="43.11424" lon="0.29023">
        <ele>499.57</ele>
        <time>2026-05-24T09:02:12.000Z</time>
      </trkpt>
      <trkpt lat="43.11416" lon="0.28999">
        <ele>501.84</ele>
        <time>2026-05-24T09:02:17.000Z</time>
      </trkpt>
      <trkpt lat="43.11407" lon="0.28976">
        <ele>503.32</ele>
        <time>2026-05-24T09:02:22.000Z</time>
      </trkpt>
      <trkpt lat="43.11398" lon="0.28954">
        <ele>503.03</ele>
        <time>2026-05-24T09:02:27.000Z</time>
      </trkpt>
      <trkpt lat="43.11386" lon="0.28932">
        <ele>504.47</ele>
        <time>2026-05-24T09:02:33.000Z</time>
      </trkpt>
      <trkpt lat="43.11369" lon="0.2892">
        <ele>504.94</ele>
        <time>2026-05-24T09:02:40.000Z</time>
      </trkpt>
      <trkpt lat="43.11351" lon="0.28919">
        <ele>502.7</ele>
        <time>2026-05-24T09:02:51.000Z</time>
      </trkpt>
      <trkpt lat="43.11351" lon="0.28886">
        <ele>511.27</ele>
        <time>2026-05-24T09:02:58.000Z</time>
      </trkpt>
      <trkpt lat="43.1135" lon="0.28859">
        <ele>511.27</ele>
        <time>2026-05-24T09:03:04.000Z</time>
      </trkpt>
      <trkpt lat="43.11349" lon="0.28832">
        <ele>510.77</ele>
        <time>2026-05-24T09:03:09.000Z</time>
      </trkpt>
      <trkpt lat="43.11352" lon="0.28804">
        <ele>510.07</ele>
        <time>2026-05-24T09:03:14.000Z</time>
      </trkpt>
      <trkpt lat="43.11356" lon="0.28774">
        <ele>509.22</ele>
        <time>2026-05-24T09:03:20.000Z</time>
      </trkpt>
      <trkpt lat="43.11362" lon="0.28748">
        <ele>510.01</ele>
        <time>2026-05-24T09:03:25.000Z</time>
      </trkpt>
      <trkpt lat="43.11369" lon="0.28722">
        <ele>510.35</ele>
        <time>2026-05-24T09:03:31.000Z</time>
      </trkpt>
      <trkpt lat="43.11377" lon="0.28699">
        <ele>511.68</ele>
        <time>2026-05-24T09:03:36.000Z</time>
      </trkpt>
      <trkpt lat="43.11386" lon="0.28676">
        <ele>511.65</ele>
        <time>2026-05-24T09:03:41.000Z</time>
      </trkpt>
      <trkpt lat="43.11396" lon="0.28652">
        <ele>511.56</ele>
        <time>2026-05-24T09:03:46.000Z</time>
      </trkpt>
      <trkpt lat="43.11409" lon="0.28628">
        <ele>509.1</ele>
        <time>2026-05-24T09:03:51.000Z</time>
      </trkpt>
      <trkpt lat="43.11423" lon="0.28606">
        <ele>508.43</ele>
        <time>2026-05-24T09:03:56.000Z</time>
      </trkpt>
      <trkpt lat="43.11437" lon="0.28586">
        <ele>510.06</ele>
        <time>2026-05-24T09:04:03.000Z</time>
      </trkpt>
      <trkpt lat="43.11449" lon="0.28567">
        <ele>514.03</ele>
        <time>2026-05-24T09:04:10.000Z</time>
      </trkpt>
      <trkpt lat="43.1146" lon="0.28545">
        <ele>514.7</ele>
        <time>2026-05-24T09:04:15.000Z</time>
      </trkpt>
      <trkpt lat="43.11471" lon="0.28524">
        <ele>516.88</ele>
        <time>2026-05-24T09:04:21.000Z</time>
      </trkpt>
      <trkpt lat="43.11483" lon="0.28502">
        <ele>516.11</ele>
        <time>2026-05-24T09:04:27.000Z</time>
      </trkpt>
      <trkpt lat="43.11494" lon="0.2848">
        <ele>517.29</ele>
        <time>2026-05-24T09:04:33.000Z</time>
      </trkpt>
      <trkpt lat="43.11501" lon="0.28457">
        <ele>518.24</ele>
        <time>2026-05-24T09:04:39.000Z</time>
      </trkpt>
      <trkpt lat="43.11506" lon="0.2843">
        <ele>518.31</ele>
        <time>2026-05-24T09:04:46.000Z</time>
      </trkpt>
      <trkpt lat="43.11509" lon="0.28401">
        <ele>521.6</ele>
        <time>2026-05-24T09:04:54.000Z</time>
      </trkpt>
      <trkpt lat="43.11514" lon="0.28375">
        <ele>517.96</ele>
        <time>2026-05-24T09:05:00.000Z</time>
      </trkpt>
      <trkpt lat="43.11517" lon="0.28348">
        <ele>519.58</ele>
        <time>2026-05-24T09:05:05.000Z</time>
      </trkpt>
      <trkpt lat="43.11522" lon="0.28324">
        <ele>519.75</ele>
        <time>2026-05-24T09:05:09.000Z</time>
      </trkpt>
      <trkpt lat="43.11531" lon="0.283">
        <ele>519.62</ele>
        <time>2026-05-24T09:05:13.000Z</time>
      </trkpt>
      <trkpt lat="43.11543" lon="0.28272">
        <ele>519.1</ele>
        <time>2026-05-24T09:05:17.000Z</time>
      </trkpt>
      <trkpt lat="43.1155" lon="0.2825">
        <ele>518.13</ele>
        <time>2026-05-24T09:05:20.000Z</time>
      </trkpt>
      <trkpt lat="43.1156" lon="0.28226">
        <ele>516.89</ele>
        <time>2026-05-24T09:05:23.000Z</time>
      </trkpt>
      <trkpt lat="43.11574" lon="0.28204">
        <ele>515.34</ele>
        <time>2026-05-24T09:05:26.000Z</time>
      </trkpt>
      <trkpt lat="43.11591" lon="0.28181">
        <ele>513.58</ele>
        <time>2026-05-24T09:05:29.000Z</time>
      </trkpt>
      <trkpt lat="43.11611" lon="0.2816">
        <ele>512.78</ele>
        <time>2026-05-24T09:05:32.000Z</time>
      </trkpt>
      <trkpt lat="43.11626" lon="0.28144">
        <ele>510.94</ele>
        <time>2026-05-24T09:05:34.000Z</time>
      </trkpt>
      <trkpt lat="43.11646" lon="0.28124">
        <ele>511.03</ele>
        <time>2026-05-24T09:05:37.000Z</time>
      </trkpt>
      <trkpt lat="43.11663" lon="0.281">
        <ele>511.52</ele>
        <time>2026-05-24T09:05:40.000Z</time>
      </trkpt>
      <trkpt lat="43.11676" lon="0.2808">
        <ele>509.73</ele>
        <time>2026-05-24T09:05:43.000Z</time>
      </trkpt>
      <trkpt lat="43.11686" lon="0.28059">
        <ele>511.64</ele>
        <time>2026-05-24T09:05:46.000Z</time>
      </trkpt>
      <trkpt lat="43.11697" lon="0.28034">
        <ele>514.94</ele>
        <time>2026-05-24T09:05:51.000Z</time>
      </trkpt>
      <trkpt lat="43.11706" lon="0.2801">
        <ele>512.32</ele>
        <time>2026-05-24T09:05:56.000Z</time>
      </trkpt>
      <trkpt lat="43.11719" lon="0.27985">
        <ele>507.56</ele>
        <time>2026-05-24T09:06:02.000Z</time>
      </trkpt>
      <trkpt lat="43.11731" lon="0.27965">
        <ele>508.31</ele>
        <time>2026-05-24T09:06:08.000Z</time>
      </trkpt>
      <trkpt lat="43.11742" lon="0.2794">
        <ele>507.59</ele>
        <time>2026-05-24T09:06:14.000Z</time>
      </trkpt>
      <trkpt lat="43.11756" lon="0.27919">
        <ele>502.47</ele>
        <time>2026-05-24T09:06:20.000Z</time>
      </trkpt>
      <trkpt lat="43.11768" lon="0.27899">
        <ele>505.66</ele>
        <time>2026-05-24T09:06:26.000Z</time>
      </trkpt>
      <trkpt lat="43.11777" lon="0.27875">
        <ele>508.64</ele>
        <time>2026-05-24T09:06:32.000Z</time>
      </trkpt>
      <trkpt lat="43.11787" lon="0.27852">
        <ele>510.12</ele>
        <time>2026-05-24T09:06:38.000Z</time>
      </trkpt>
      <trkpt lat="43.118" lon="0.27833">
        <ele>511.38</ele>
        <time>2026-05-24T09:06:44.000Z</time>
      </trkpt>
      <trkpt lat="43.11808" lon="0.27811">
        <ele>519.65</ele>
        <time>2026-05-24T09:06:53.000Z</time>
      </trkpt>
      <trkpt lat="43.1182" lon="0.27789">
        <ele>520.19</ele>
        <time>2026-05-24T09:07:01.000Z</time>
      </trkpt>
      <trkpt lat="43.11828" lon="0.27766">
        <ele>524.38</ele>
        <time>2026-05-24T09:07:09.000Z</time>
      </trkpt>
      <trkpt lat="43.1183" lon="0.2774">
        <ele>526.03</ele>
        <time>2026-05-24T09:07:20.000Z</time>
      </trkpt>
      <trkpt lat="43.11834" lon="0.27716">
        <ele>528.24</ele>
        <time>2026-05-24T09:07:30.000Z</time>
      </trkpt>
      <trkpt lat="43.11837" lon="0.27688">
        <ele>528.55</ele>
        <time>2026-05-24T09:07:41.000Z</time>
      </trkpt>
      <trkpt lat="43.11835" lon="0.27663">
        <ele>529.01</ele>
        <time>2026-05-24T09:07:50.000Z</time>
      </trkpt>
      <trkpt lat="43.11838" lon="0.27637">
        <ele>535.98</ele>
        <time>2026-05-24T09:08:00.000Z</time>
      </trkpt>
      <trkpt lat="43.11847" lon="0.27615">
        <ele>537.53</ele>
        <time>2026-05-24T09:08:10.000Z</time>
      </trkpt>
      <trkpt lat="43.11848" lon="0.27589">
        <ele>538.56</ele>
        <time>2026-05-24T09:09:07.000Z</time>
      </trkpt>
      <trkpt lat="43.11862" lon="0.27609">
        <ele>536.15</ele>
        <time>2026-05-24T09:09:53.000Z</time>
      </trkpt>
      <trkpt lat="43.11879" lon="0.2761">
        <ele>532.4</ele>
        <time>2026-05-24T09:11:45.000Z</time>
      </trkpt>
      <trkpt lat="43.11897" lon="0.27611">
        <ele>530.8</ele>
        <time>2026-05-24T09:11:49.000Z</time>
      </trkpt>
      <trkpt lat="43.11916" lon="0.27618">
        <ele>528.8</ele>
        <time>2026-05-24T09:11:52.000Z</time>
      </trkpt>
      <trkpt lat="43.11938" lon="0.2762">
        <ele>528.03</ele>
        <time>2026-05-24T09:12:03.000Z</time>
      </trkpt>
      <trkpt lat="43.11959" lon="0.2762">
        <ele>525.13</ele>
        <time>2026-05-24T09:12:06.000Z</time>
      </trkpt>
      <trkpt lat="43.11979" lon="0.27615">
        <ele>520.69</ele>
        <time>2026-05-24T09:12:09.000Z</time>
      </trkpt>
      <trkpt lat="43.11999" lon="0.27601">
        <ele>515.94</ele>
        <time>2026-05-24T09:12:13.000Z</time>
      </trkpt>
      <trkpt lat="43.12012" lon="0.27574">
        <ele>513.72</ele>
        <time>2026-05-24T09:12:17.000Z</time>
      </trkpt>
      <trkpt lat="43.12031" lon="0.27537">
        <ele>508.4</ele>
        <time>2026-05-24T09:12:21.000Z</time>
      </trkpt>
      <trkpt lat="43.12007" lon="0.27538">
        <ele>505.46</ele>
        <time>2026-05-24T09:12:33.000Z</time>
      </trkpt>
      <trkpt lat="43.11988" lon="0.27543">
        <ele>504.42</ele>
        <time>2026-05-24T09:12:36.000Z</time>
      </trkpt>
      <trkpt lat="43.11969" lon="0.27536">
        <ele>501.07</ele>
        <time>2026-05-24T09:12:39.000Z</time>
      </trkpt>
      <trkpt lat="43.11951" lon="0.27522">
        <ele>498.99</ele>
        <time>2026-05-24T09:12:43.000Z</time>
      </trkpt>
      <trkpt lat="43.11933" lon="0.27504">
        <ele>495.93</ele>
        <time>2026-05-24T09:13:42.000Z</time>
      </trkpt>
      <trkpt lat="43.11918" lon="0.27485">
        <ele>494.09</ele>
        <time>2026-05-24T09:13:45.000Z</time>
      </trkpt>
      <trkpt lat="43.11911" lon="0.27461">
        <ele>491.51</ele>
        <time>2026-05-24T09:13:48.000Z</time>
      </trkpt>
      <trkpt lat="43.1191" lon="0.27435">
        <ele>489.9</ele>
        <time>2026-05-24T09:13:51.000Z</time>
      </trkpt>
      <trkpt lat="43.11906" lon="0.2741">
        <ele>489.84</ele>
        <time>2026-05-24T09:13:54.000Z</time>
      </trkpt>
      <trkpt lat="43.119" lon="0.27384">
        <ele>485.14</ele>
        <time>2026-05-24T09:13:57.000Z</time>
      </trkpt>
      <trkpt lat="43.11887" lon="0.27365">
        <ele>481.18</ele>
        <time>2026-05-24T09:13:59.000Z</time>
      </trkpt>
      <trkpt lat="43.11877" lon="0.27335">
        <ele>478.3</ele>
        <time>2026-05-24T09:14:02.000Z</time>
      </trkpt>
      <trkpt lat="43.11861" lon="0.27318">
        <ele>467.6</ele>
        <time>2026-05-24T09:14:06.000Z</time>
      </trkpt>
      <trkpt lat="43.11848" lon="0.273">
        <ele>464.8</ele>
        <time>2026-05-24T09:14:09.000Z</time>
      </trkpt>
      <trkpt lat="43.11832" lon="0.2727">
        <ele>469.99</ele>
        <time>2026-05-24T09:14:13.000Z</time>
      </trkpt>
      <trkpt lat="43.11833" lon="0.27234">
        <ele>466.07</ele>
        <time>2026-05-24T09:14:17.000Z</time>
      </trkpt>
      <trkpt lat="43.11838" lon="0.27203">
        <ele>465.93</ele>
        <time>2026-05-24T09:14:20.000Z</time>
      </trkpt>
      <trkpt lat="43.11842" lon="0.27169">
        <ele>458.59</ele>
        <time>2026-05-24T09:14:23.000Z</time>
      </trkpt>
      <trkpt lat="43.1185" lon="0.27143">
        <ele>454.03</ele>
        <time>2026-05-24T09:14:26.000Z</time>
      </trkpt>
      <trkpt lat="43.1185" lon="0.2711">
        <ele>448.57</ele>
        <time>2026-05-24T09:14:29.000Z</time>
      </trkpt>
      <trkpt lat="43.1185" lon="0.27079">
        <ele>446.33</ele>
        <time>2026-05-24T09:14:32.000Z</time>
      </trkpt>
      <trkpt lat="43.11854" lon="0.27052">
        <ele>441.61</ele>
        <time>2026-05-24T09:14:36.000Z</time>
      </trkpt>
      <trkpt lat="43.11838" lon="0.27038">
        <ele>443.08</ele>
        <time>2026-05-24T09:14:48.000Z</time>
      </trkpt>
      <trkpt lat="43.11818" lon="0.27031">
        <ele>445.27</ele>
        <time>2026-05-24T09:14:55.000Z</time>
      </trkpt>
      <trkpt lat="43.11798" lon="0.27026">
        <ele>444.23</ele>
        <time>2026-05-24T09:15:02.000Z</time>
      </trkpt>
      <trkpt lat="43.11779" lon="0.27022">
        <ele>443.08</ele>
        <time>2026-05-24T09:15:09.000Z</time>
      </trkpt>
      <trkpt lat="43.11772" lon="0.26994">
        <ele>439.99</ele>
        <time>2026-05-24T09:15:14.000Z</time>
      </trkpt>
      <trkpt lat="43.11766" lon="0.26967">
        <ele>437.93</ele>
        <time>2026-05-24T09:15:17.000Z</time>
      </trkpt>
      <trkpt lat="43.11759" lon="0.26942">
        <ele>437.6</ele>
        <time>2026-05-24T09:15:20.000Z</time>
      </trkpt>
      <trkpt lat="43.11753" lon="0.26912">
        <ele>433.62</ele>
        <time>2026-05-24T09:15:24.000Z</time>
      </trkpt>
      <trkpt lat="43.11758" lon="0.26885">
        <ele>432.88</ele>
        <time>2026-05-24T09:15:28.000Z</time>
      </trkpt>
      <trkpt lat="43.11767" lon="0.26862">
        <ele>432.72</ele>
        <time>2026-05-24T09:15:32.000Z</time>
      </trkpt>
      <trkpt lat="43.11773" lon="0.26837">
        <ele>428.09</ele>
        <time>2026-05-24T09:15:38.000Z</time>
      </trkpt>
      <trkpt lat="43.11749" lon="0.26827">
        <ele>421.11</ele>
        <time>2026-05-24T09:15:42.000Z</time>
      </trkpt>
      <trkpt lat="43.1173" lon="0.26811">
        <ele>417.31</ele>
        <time>2026-05-24T09:15:47.000Z</time>
      </trkpt>
      <trkpt lat="43.11717" lon="0.2679">
        <ele>413.03</ele>
        <time>2026-05-24T09:15:51.000Z</time>
      </trkpt>
      <trkpt lat="43.11713" lon="0.26763">
        <ele>408.57</ele>
        <time>2026-05-24T09:15:55.000Z</time>
      </trkpt>
      <trkpt lat="43.1171" lon="0.26736">
        <ele>405.22</ele>
        <time>2026-05-24T09:15:59.000Z</time>
      </trkpt>
      <trkpt lat="43.11711" lon="0.26707">
        <ele>395.55</ele>
        <time>2026-05-24T09:16:04.000Z</time>
      </trkpt>
      <trkpt lat="43.1171" lon="0.26681">
        <ele>394.15</ele>
        <time>2026-05-24T09:16:10.000Z</time>
      </trkpt>
      <trkpt lat="43.11705" lon="0.26657">
        <ele>405.02</ele>
        <time>2026-05-24T09:16:19.000Z</time>
      </trkpt>
      <trkpt lat="43.11707" lon="0.26632">
        <ele>411.47</ele>
        <time>2026-05-24T09:16:41.000Z</time>
      </trkpt>
      <trkpt lat="43.11709" lon="0.26606">
        <ele>406.1</ele>
        <time>2026-05-24T09:16:49.000Z</time>
      </trkpt>
      <trkpt lat="43.11718" lon="0.2658">
        <ele>406.9</ele>
        <time>2026-05-24T09:16:57.000Z</time>
      </trkpt>
      <trkpt lat="43.11724" lon="0.26556">
        <ele>406.6</ele>
        <time>2026-05-24T09:17:03.000Z</time>
      </trkpt>
      <trkpt lat="43.11734" lon="0.26532">
        <ele>420.44</ele>
        <time>2026-05-24T09:17:08.000Z</time>
      </trkpt>
      <trkpt lat="43.11744" lon="0.26498">
        <ele>403.6</ele>
        <time>2026-05-24T09:17:12.000Z</time>
      </trkpt>
      <trkpt lat="43.11733" lon="0.26469">
        <ele>412.73</ele>
        <time>2026-05-24T09:17:14.000Z</time>
      </trkpt>
      <trkpt lat="43.11716" lon="0.26454">
        <ele>413.07</ele>
        <time>2026-05-24T09:17:17.000Z</time>
      </trkpt>
      <trkpt lat="43.11694" lon="0.26443">
        <ele>400.9</ele>
        <time>2026-05-24T09:17:23.000Z</time>
      </trkpt>
      <trkpt lat="43.11689" lon="0.26419">
        <ele>406.31</ele>
        <time>2026-05-24T09:18:00.000Z</time>
      </trkpt>
      <trkpt lat="43.117" lon="0.26395">
        <ele>412.97</ele>
        <time>2026-05-24T09:18:31.000Z</time>
      </trkpt>
      <trkpt lat="43.11711" lon="0.26369">
        <ele>412.32</ele>
        <time>2026-05-24T09:18:35.000Z</time>
      </trkpt>
      <trkpt lat="43.11721" lon="0.26348">
        <ele>411.52</ele>
        <time>2026-05-24T09:18:39.000Z</time>
      </trkpt>
      <trkpt lat="43.11733" lon="0.26325">
        <ele>410.08</ele>
        <time>2026-05-24T09:18:43.000Z</time>
      </trkpt>
      <trkpt lat="43.11746" lon="0.263">
        <ele>402.99</ele>
        <time>2026-05-24T09:18:47.000Z</time>
      </trkpt>
      <trkpt lat="43.11758" lon="0.26281">
        <ele>399.08</ele>
        <time>2026-05-24T09:18:50.000Z</time>
      </trkpt>
      <trkpt lat="43.11776" lon="0.26258">
        <ele>395.31</ele>
        <time>2026-05-24T09:18:54.000Z</time>
      </trkpt>
      <trkpt lat="43.11791" lon="0.26239">
        <ele>392.01</ele>
        <time>2026-05-24T09:18:57.000Z</time>
      </trkpt>
      <trkpt lat="43.11804" lon="0.26214">
        <ele>390.11</ele>
        <time>2026-05-24T09:19:01.000Z</time>
      </trkpt>
      <trkpt lat="43.11818" lon="0.26192">
        <ele>382.22</ele>
        <time>2026-05-24T09:19:05.000Z</time>
      </trkpt>
      <trkpt lat="43.11836" lon="0.2617">
        <ele>378.52</ele>
        <time>2026-05-24T09:19:09.000Z</time>
      </trkpt>
      <trkpt lat="43.11849" lon="0.26147">
        <ele>350.5</ele>
        <time>2026-05-24T09:19:12.000Z</time>
      </trkpt>
      <trkpt lat="43.11858" lon="0.26123">
        <ele>346.3</ele>
        <time>2026-05-24T09:19:15.000Z</time>
      </trkpt>
      <trkpt lat="43.11868" lon="0.26093">
        <ele>368.97</ele>
        <time>2026-05-24T09:19:18.000Z</time>
      </trkpt>
      <trkpt lat="43.11874" lon="0.26069">
        <ele>365.54</ele>
        <time>2026-05-24T09:19:20.000Z</time>
      </trkpt>
      <trkpt lat="43.11885" lon="0.26038">
        <ele>362.31</ele>
        <time>2026-05-24T09:19:23.000Z</time>
      </trkpt>
      <trkpt lat="43.11892" lon="0.26012">
        <ele>359.1</ele>
        <time>2026-05-24T09:19:26.000Z</time>
      </trkpt>
      <trkpt lat="43.11904" lon="0.25989">
        <ele>355.81</ele>
        <time>2026-05-24T09:19:29.000Z</time>
      </trkpt>
      <trkpt lat="43.11911" lon="0.2596">
        <ele>352.72</ele>
        <time>2026-05-24T09:19:33.000Z</time>
      </trkpt>
      <trkpt lat="43.11898" lon="0.25941">
        <ele>342.73</ele>
        <time>2026-05-24T09:19:37.000Z</time>
      </trkpt>
      <trkpt lat="43.11878" lon="0.25933">
        <ele>340.63</ele>
        <time>2026-05-24T09:19:44.000Z</time>
      </trkpt>
      <trkpt lat="43.1186" lon="0.25932">
        <ele>336.27</ele>
        <time>2026-05-24T09:19:49.000Z</time>
      </trkpt>
      <trkpt lat="43.11842" lon="0.25937">
        <ele>330.98</ele>
        <time>2026-05-24T09:19:55.000Z</time>
      </trkpt>
      <trkpt lat="43.11824" lon="0.25944">
        <ele>328.95</ele>
        <time>2026-05-24T09:20:00.000Z</time>
      </trkpt>
      <trkpt lat="43.11805" lon="0.25948">
        <ele>331.39</ele>
        <time>2026-05-24T09:20:06.000Z</time>
      </trkpt>
      <trkpt lat="43.11785" lon="0.2595">
        <ele>329.16</ele>
        <time>2026-05-24T09:20:10.000Z</time>
      </trkpt>
      <trkpt lat="43.11765" lon="0.25958">
        <ele>322.18</ele>
        <time>2026-05-24T09:20:15.000Z</time>
      </trkpt>
      <trkpt lat="43.11745" lon="0.25951">
        <ele>318.56</ele>
        <time>2026-05-24T09:20:21.000Z</time>
      </trkpt>
      <trkpt lat="43.11727" lon="0.25942">
        <ele>316.05</ele>
        <time>2026-05-24T09:20:29.000Z</time>
      </trkpt>
      <trkpt lat="43.11707" lon="0.25946">
        <ele>316.8</ele>
        <time>2026-05-24T09:20:36.000Z</time>
      </trkpt>
      <trkpt lat="43.11688" lon="0.25955">
        <ele>316.11</ele>
        <time>2026-05-24T09:20:43.000Z</time>
      </trkpt>
      <trkpt lat="43.11671" lon="0.25965">
        <ele>316.72</ele>
        <time>2026-05-24T09:20:50.000Z</time>
      </trkpt>
      <trkpt lat="43.11652" lon="0.25972">
        <ele>318.7</ele>
        <time>2026-05-24T09:20:57.000Z</time>
      </trkpt>
      <trkpt lat="43.11634" lon="0.25978">
        <ele>323.65</ele>
        <time>2026-05-24T09:21:02.000Z</time>
      </trkpt>
      <trkpt lat="43.11616" lon="0.25992">
        <ele>321.38</ele>
        <time>2026-05-24T09:21:06.000Z</time>
      </trkpt>
      <trkpt lat="43.11596" lon="0.26008">
        <ele>318.54</ele>
        <time>2026-05-24T09:21:10.000Z</time>
      </trkpt>
      <trkpt lat="43.11577" lon="0.2602">
        <ele>316.95</ele>
        <time>2026-05-24T09:21:14.000Z</time>
      </trkpt>
      <trkpt lat="43.11561" lon="0.26032">
        <ele>314.9</ele>
        <time>2026-05-24T09:21:17.000Z</time>
      </trkpt>
      <trkpt lat="43.11541" lon="0.26043">
        <ele>314.89</ele>
        <time>2026-05-24T09:21:21.000Z</time>
      </trkpt>
      <trkpt lat="43.11522" lon="0.26057">
        <ele>314.79</ele>
        <time>2026-05-24T09:21:25.000Z</time>
      </trkpt>
      <trkpt lat="43.11505" lon="0.26068">
        <ele>316.21</ele>
        <time>2026-05-24T09:21:29.000Z</time>
      </trkpt>
      <trkpt lat="43.11489" lon="0.26079">
        <ele>316.6</ele>
        <time>2026-05-24T09:21:33.000Z</time>
      </trkpt>
      <trkpt lat="43.11471" lon="0.26091">
        <ele>315.4</ele>
        <time>2026-05-24T09:21:38.000Z</time>
      </trkpt>
      <trkpt lat="43.11453" lon="0.26098">
        <ele>315.76</ele>
        <time>2026-05-24T09:21:43.000Z</time>
      </trkpt>
      <trkpt lat="43.11433" lon="0.26106">
        <ele>316.66</ele>
        <time>2026-05-24T09:21:49.000Z</time>
      </trkpt>
      <trkpt lat="43.11415" lon="0.26112">
        <ele>316.64</ele>
        <time>2026-05-24T09:21:54.000Z</time>
      </trkpt>
      <trkpt lat="43.11394" lon="0.26117">
        <ele>318.45</ele>
        <time>2026-05-24T09:22:00.000Z</time>
      </trkpt>
      <trkpt lat="43.11377" lon="0.26125">
        <ele>317.67</ele>
        <time>2026-05-24T09:22:07.000Z</time>
      </trkpt>
      <trkpt lat="43.11358" lon="0.2613">
        <ele>319.69</ele>
        <time>2026-05-24T09:22:14.000Z</time>
      </trkpt>
      <trkpt lat="43.1134" lon="0.26134">
        <ele>321.86</ele>
        <time>2026-05-24T09:22:21.000Z</time>
      </trkpt>
      <trkpt lat="43.1132" lon="0.26139">
        <ele>323.23</ele>
        <time>2026-05-24T09:22:28.000Z</time>
      </trkpt>
      <trkpt lat="43.11302" lon="0.26143">
        <ele>326.62</ele>
        <time>2026-05-24T09:22:35.000Z</time>
      </trkpt>
      <trkpt lat="43.11282" lon="0.26149">
        <ele>327.72</ele>
        <time>2026-05-24T09:22:42.000Z</time>
      </trkpt>
      <trkpt lat="43.11264" lon="0.26157">
        <ele>327.86</ele>
        <time>2026-05-24T09:22:49.000Z</time>
      </trkpt>
      <trkpt lat="43.11246" lon="0.26169">
        <ele>330.45</ele>
        <time>2026-05-24T09:22:57.000Z</time>
      </trkpt>
      <trkpt lat="43.1123" lon="0.26182">
        <ele>330.49</ele>
        <time>2026-05-24T09:23:03.000Z</time>
      </trkpt>
      <trkpt lat="43.11213" lon="0.26196">
        <ele>330.3</ele>
        <time>2026-05-24T09:23:09.000Z</time>
      </trkpt>
      <trkpt lat="43.11196" lon="0.26209">
        <ele>330.92</ele>
        <time>2026-05-24T09:23:15.000Z</time>
      </trkpt>
      <trkpt lat="43.1118" lon="0.26222">
        <ele>331.63</ele>
        <time>2026-05-24T09:23:21.000Z</time>
      </trkpt>
      <trkpt lat="43.11162" lon="0.26239">
        <ele>331.22</ele>
        <time>2026-05-24T09:23:27.000Z</time>
      </trkpt>
      <trkpt lat="43.11146" lon="0.26251">
        <ele>331.29</ele>
        <time>2026-05-24T09:23:32.000Z</time>
      </trkpt>
      <trkpt lat="43.11129" lon="0.26266">
        <ele>331.84</ele>
        <time>2026-05-24T09:23:38.000Z</time>
      </trkpt>
      <trkpt lat="43.11109" lon="0.26281">
        <ele>330.52</ele>
        <time>2026-05-24T09:23:44.000Z</time>
      </trkpt>
      <trkpt lat="43.11093" lon="0.26292">
        <ele>330.76</ele>
        <time>2026-05-24T09:23:48.000Z</time>
      </trkpt>
      <trkpt lat="43.11075" lon="0.26302">
        <ele>330.42</ele>
        <time>2026-05-24T09:23:52.000Z</time>
      </trkpt>
      <trkpt lat="43.11057" lon="0.26311">
        <ele>330.58</ele>
        <time>2026-05-24T09:23:56.000Z</time>
      </trkpt>
      <trkpt lat="43.11036" lon="0.2632">
        <ele>331.79</ele>
        <time>2026-05-24T09:24:01.000Z</time>
      </trkpt>
      <trkpt lat="43.11016" lon="0.26329">
        <ele>331.5</ele>
        <time>2026-05-24T09:24:06.000Z</time>
      </trkpt>
      <trkpt lat="43.10994" lon="0.26339">
        <ele>330.55</ele>
        <time>2026-05-24T09:24:11.000Z</time>
      </trkpt>
      <trkpt lat="43.10977" lon="0.26351">
        <ele>329.13</ele>
        <time>2026-05-24T09:24:16.000Z</time>
      </trkpt>
      <trkpt lat="43.1096" lon="0.2636">
        <ele>329.13</ele>
        <time>2026-05-24T09:24:21.000Z</time>
      </trkpt>
      <trkpt lat="43.10943" lon="0.26367">
        <ele>327.68</ele>
        <time>2026-05-24T09:24:26.000Z</time>
      </trkpt>
      <trkpt lat="43.10924" lon="0.26375">
        <ele>329.82</ele>
        <time>2026-05-24T09:24:32.000Z</time>
      </trkpt>
      <trkpt lat="43.10905" lon="0.26383">
        <ele>330.49</ele>
        <time>2026-05-24T09:24:38.000Z</time>
      </trkpt>
      <trkpt lat="43.10887" lon="0.26392">
        <ele>331.01</ele>
        <time>2026-05-24T09:24:43.000Z</time>
      </trkpt>
      <trkpt lat="43.10867" lon="0.26398">
        <ele>332.42</ele>
        <time>2026-05-24T09:24:47.000Z</time>
      </trkpt>
      <trkpt lat="43.10848" lon="0.26401">
        <ele>329.75</ele>
        <time>2026-05-24T09:24:51.000Z</time>
      </trkpt>
      <trkpt lat="43.10827" lon="0.26404">
        <ele>329.64</ele>
        <time>2026-05-24T09:24:55.000Z</time>
      </trkpt>
      <trkpt lat="43.10805" lon="0.26404">
        <ele>330.67</ele>
        <time>2026-05-24T09:24:59.000Z</time>
      </trkpt>
      <trkpt lat="43.10782" lon="0.26407">
        <ele>328.91</ele>
        <time>2026-05-24T09:25:03.000Z</time>
      </trkpt>
      <trkpt lat="43.10758" lon="0.2641">
        <ele>327.13</ele>
        <time>2026-05-24T09:25:07.000Z</time>
      </trkpt>
      <trkpt lat="43.10739" lon="0.2642">
        <ele>326.14</ele>
        <time>2026-05-24T09:25:10.000Z</time>
      </trkpt>
      <trkpt lat="43.10719" lon="0.2643">
        <ele>326.44</ele>
        <time>2026-05-24T09:25:13.000Z</time>
      </trkpt>
      <trkpt lat="43.10699" lon="0.26441">
        <ele>324.78</ele>
        <time>2026-05-24T09:25:16.000Z</time>
      </trkpt>
      <trkpt lat="43.10677" lon="0.26452">
        <ele>323.4</ele>
        <time>2026-05-24T09:25:19.000Z</time>
      </trkpt>
      <trkpt lat="43.10653" lon="0.26466">
        <ele>322.03</ele>
        <time>2026-05-24T09:25:22.000Z</time>
      </trkpt>
      <trkpt lat="43.10634" lon="0.26491">
        <ele>320.61</ele>
        <time>2026-05-24T09:25:25.000Z</time>
      </trkpt>
      <trkpt lat="43.10626" lon="0.26515">
        <ele>319.36</ele>
        <time>2026-05-24T09:25:27.000Z</time>
      </trkpt>
      <trkpt lat="43.1062" lon="0.26541">
        <ele>317.91</ele>
        <time>2026-05-24T09:25:29.000Z</time>
      </trkpt>
      <trkpt lat="43.10613" lon="0.26564">
        <ele>317.4</ele>
        <time>2026-05-24T09:25:31.000Z</time>
      </trkpt>
      <trkpt lat="43.10607" lon="0.26588">
        <ele>315.54</ele>
        <time>2026-05-24T09:25:33.000Z</time>
      </trkpt>
      <trkpt lat="43.10601" lon="0.26624">
        <ele>312.34</ele>
        <time>2026-05-24T09:25:36.000Z</time>
      </trkpt>
      <trkpt lat="43.10594" lon="0.26655">
        <ele>311.26</ele>
        <time>2026-05-24T09:25:39.000Z</time>
      </trkpt>
      <trkpt lat="43.10587" lon="0.26686">
        <ele>310.33</ele>
        <time>2026-05-24T09:25:42.000Z</time>
      </trkpt>
      <trkpt lat="43.1058" lon="0.26717">
        <ele>309.26</ele>
        <time>2026-05-24T09:25:45.000Z</time>
      </trkpt>
      <trkpt lat="43.10573" lon="0.26744">
        <ele>310.17</ele>
        <time>2026-05-24T09:25:48.000Z</time>
      </trkpt>
      <trkpt lat="43.10566" lon="0.26769">
        <ele>310.34</ele>
        <time>2026-05-24T09:25:51.000Z</time>
      </trkpt>
      <trkpt lat="43.1056" lon="0.26793">
        <ele>312</ele>
        <time>2026-05-24T09:25:54.000Z</time>
      </trkpt>
      <trkpt lat="43.10556" lon="0.26821">
        <ele>314.12</ele>
        <time>2026-05-24T09:25:58.000Z</time>
      </trkpt>
      <trkpt lat="43.10556" lon="0.26846">
        <ele>314.72</ele>
        <time>2026-05-24T09:26:04.000Z</time>
      </trkpt>
      <trkpt lat="43.10578" lon="0.26848">
        <ele>312.18</ele>
        <time>2026-05-24T09:26:08.000Z</time>
      </trkpt>
      <trkpt lat="43.10599" lon="0.26855">
        <ele>312.42</ele>
        <time>2026-05-24T09:26:12.000Z</time>
      </trkpt>
      <trkpt lat="43.10615" lon="0.2687">
        <ele>313.26</ele>
        <time>2026-05-24T09:26:16.000Z</time>
      </trkpt>
      <trkpt lat="43.10629" lon="0.26887">
        <ele>309.3</ele>
        <time>2026-05-24T09:26:20.000Z</time>
      </trkpt>
      <trkpt lat="43.10641" lon="0.26908">
        <ele>307.46</ele>
        <time>2026-05-24T09:26:24.000Z</time>
      </trkpt>
      <trkpt lat="43.10646" lon="0.26936">
        <ele>308.22</ele>
        <time>2026-05-24T09:26:28.000Z</time>
      </trkpt>
      <trkpt lat="43.10651" lon="0.2696">
        <ele>307.78</ele>
        <time>2026-05-24T09:26:32.000Z</time>
      </trkpt>
      <trkpt lat="43.10659" lon="0.26988">
        <ele>304.18</ele>
        <time>2026-05-24T09:26:36.000Z</time>
      </trkpt>
      <trkpt lat="43.10667" lon="0.27014">
        <ele>303.69</ele>
        <time>2026-05-24T09:26:41.000Z</time>
      </trkpt>
      <trkpt lat="43.10676" lon="0.2704">
        <ele>304.73</ele>
        <time>2026-05-24T09:26:46.000Z</time>
      </trkpt>
      <trkpt lat="43.10688" lon="0.27065">
        <ele>304.74</ele>
        <time>2026-05-24T09:26:51.000Z</time>
      </trkpt>
      <trkpt lat="43.10694" lon="0.27092">
        <ele>306.11</ele>
        <time>2026-05-24T09:26:56.000Z</time>
      </trkpt>
      <trkpt lat="43.10704" lon="0.27119">
        <ele>305.16</ele>
        <time>2026-05-24T09:27:01.000Z</time>
      </trkpt>
      <trkpt lat="43.10712" lon="0.27147">
        <ele>306.78</ele>
        <time>2026-05-24T09:27:06.000Z</time>
      </trkpt>
      <trkpt lat="43.10721" lon="0.27171">
        <ele>307.82</ele>
        <time>2026-05-24T09:27:10.000Z</time>
      </trkpt>
      <trkpt lat="43.10726" lon="0.27201">
        <ele>308.81</ele>
        <time>2026-05-24T09:27:15.000Z</time>
      </trkpt>
      <trkpt lat="43.10725" lon="0.27226">
        <ele>309.52</ele>
        <time>2026-05-24T09:27:19.000Z</time>
      </trkpt>
      <trkpt lat="43.10722" lon="0.27252">
        <ele>310.83</ele>
        <time>2026-05-24T09:27:23.000Z</time>
      </trkpt>
      <trkpt lat="43.1072" lon="0.27277">
        <ele>310.45</ele>
        <time>2026-05-24T09:27:27.000Z</time>
      </trkpt>
      <trkpt lat="43.10719" lon="0.27302">
        <ele>310.66</ele>
        <time>2026-05-24T09:27:31.000Z</time>
      </trkpt>
      <trkpt lat="43.10714" lon="0.27327">
        <ele>312.49</ele>
        <time>2026-05-24T09:27:36.000Z</time>
      </trkpt>
      <trkpt lat="43.10709" lon="0.27356">
        <ele>315.07</ele>
        <time>2026-05-24T09:27:42.000Z</time>
      </trkpt>
      <trkpt lat="43.10704" lon="0.27383">
        <ele>317.7</ele>
        <time>2026-05-24T09:27:47.000Z</time>
      </trkpt>
      <trkpt lat="43.10698" lon="0.27407">
        <ele>317.09</ele>
        <time>2026-05-24T09:27:53.000Z</time>
      </trkpt>
      <trkpt lat="43.10687" lon="0.27427">
        <ele>323.27</ele>
        <time>2026-05-24T09:30:24.000Z</time>
      </trkpt>
      <trkpt lat="43.10677" lon="0.27449">
        <ele>324.21</ele>
        <time>2026-05-24T09:30:31.000Z</time>
      </trkpt>
      <trkpt lat="43.10668" lon="0.27473">
        <ele>325.7</ele>
        <time>2026-05-24T09:30:37.000Z</time>
      </trkpt>
      <trkpt lat="43.10653" lon="0.27493">
        <ele>328.75</ele>
        <time>2026-05-24T09:30:43.000Z</time>
      </trkpt>
      <trkpt lat="43.10635" lon="0.27486">
        <ele>330.92</ele>
        <time>2026-05-24T09:30:50.000Z</time>
      </trkpt>
      <trkpt lat="43.10617" lon="0.27478">
        <ele>328.71</ele>
        <time>2026-05-24T09:31:01.000Z</time>
      </trkpt>
      <trkpt lat="43.106" lon="0.27468">
        <ele>325.96</ele>
        <time>2026-05-24T09:31:10.000Z</time>
      </trkpt>
      <trkpt lat="43.10581" lon="0.27462">
        <ele>328.86</ele>
        <time>2026-05-24T09:31:20.000Z</time>
      </trkpt>
      <trkpt lat="43.10551" lon="0.27447">
        <ele>333.21</ele>
        <time>2026-05-24T09:32:57.000Z</time>
      </trkpt>
      <trkpt lat="43.10535" lon="0.27433">
        <ele>337.58</ele>
        <time>2026-05-24T09:33:12.000Z</time>
      </trkpt>
      <trkpt lat="43.1052" lon="0.27421">
        <ele>340.1</ele>
        <time>2026-05-24T09:33:27.000Z</time>
      </trkpt>
      <trkpt lat="43.10506" lon="0.27404">
        <ele>341.85</ele>
        <time>2026-05-24T09:33:42.000Z</time>
      </trkpt>
      <trkpt lat="43.10494" lon="0.27385">
        <ele>345.16</ele>
        <time>2026-05-24T09:33:57.000Z</time>
      </trkpt>
      <trkpt lat="43.10484" lon="0.27364">
        <ele>348.75</ele>
        <time>2026-05-24T09:34:13.000Z</time>
      </trkpt>
      <trkpt lat="43.10479" lon="0.27339">
        <ele>350.19</ele>
        <time>2026-05-24T09:34:28.000Z</time>
      </trkpt>
      <trkpt lat="43.10489" lon="0.27317">
        <ele>351.95</ele>
        <time>2026-05-24T09:34:38.000Z</time>
      </trkpt>
      <trkpt lat="43.10484" lon="0.27293">
        <ele>346.5</ele>
        <time>2026-05-24T09:34:47.000Z</time>
      </trkpt>
      <trkpt lat="43.10473" lon="0.27277">
        <ele>348.9</ele>
        <time>2026-05-24T09:34:54.000Z</time>
      </trkpt>
      <trkpt lat="43.10464" lon="0.27264">
        <ele>348.7</ele>
        <time>2026-05-24T09:34:57.000Z</time>
      </trkpt>
      <trkpt lat="43.10445" lon="0.27263">
        <ele>348.1</ele>
        <time>2026-05-24T09:35:00.000Z</time>
      </trkpt>
      <trkpt lat="43.10429" lon="0.27242">
        <ele>346.1</ele>
        <time>2026-05-24T09:35:04.000Z</time>
      </trkpt>
      <trkpt lat="43.10419" lon="0.27212">
        <ele>347.1</ele>
        <time>2026-05-24T09:35:08.000Z</time>
      </trkpt>
      <trkpt lat="43.10412" lon="0.27187">
        <ele>346.3</ele>
        <time>2026-05-24T09:35:11.000Z</time>
      </trkpt>
      <trkpt lat="43.10403" lon="0.27177">
        <ele>344</ele>
        <time>2026-05-24T09:35:14.000Z</time>
      </trkpt>
      <trkpt lat="43.10387" lon="0.27145">
        <ele>339.7</ele>
        <time>2026-05-24T09:35:17.000Z</time>
      </trkpt>
      <trkpt lat="43.10375" lon="0.27121">
        <ele>334.9</ele>
        <time>2026-05-24T09:35:19.000Z</time>
      </trkpt>
      <trkpt lat="43.10368" lon="0.27107">
        <ele>332.8</ele>
        <time>2026-05-24T09:35:21.000Z</time>
      </trkpt>
      <trkpt lat="43.10359" lon="0.27091">
        <ele>331.4</ele>
        <time>2026-05-24T09:35:23.000Z</time>
      </trkpt>
      <trkpt lat="43.1035" lon="0.27078">
        <ele>330.1</ele>
        <time>2026-05-24T09:35:26.000Z</time>
      </trkpt>
      <trkpt lat="43.10343" lon="0.27065">
        <ele>329.2</ele>
        <time>2026-05-24T09:35:33.000Z</time>
      </trkpt>
      <trkpt lat="43.10333" lon="0.27051">
        <ele>327.2</ele>
        <time>2026-05-24T09:36:07.000Z</time>
      </trkpt>
      <trkpt lat="43.1034" lon="0.27078">
        <ele>327.27</ele>
        <time>2026-05-24T09:36:10.000Z</time>
      </trkpt>
      <trkpt lat="43.10347" lon="0.27107">
        <ele>325.4</ele>
        <time>2026-05-24T09:36:13.000Z</time>
      </trkpt>
      <trkpt lat="43.10344" lon="0.27135">
        <ele>324.19</ele>
        <time>2026-05-24T09:36:16.000Z</time>
      </trkpt>
      <trkpt lat="43.10327" lon="0.2715">
        <ele>324.24</ele>
        <time>2026-05-24T09:36:19.000Z</time>
      </trkpt>
      <trkpt lat="43.10308" lon="0.27165">
        <ele>323.87</ele>
        <time>2026-05-24T09:36:22.000Z</time>
      </trkpt>
      <trkpt lat="43.10292" lon="0.27181">
        <ele>323.86</ele>
        <time>2026-05-24T09:36:25.000Z</time>
      </trkpt>
      <trkpt lat="43.10279" lon="0.272">
        <ele>323.66</ele>
        <time>2026-05-24T09:36:28.000Z</time>
      </trkpt>
      <trkpt lat="43.10264" lon="0.27225">
        <ele>325.18</ele>
        <time>2026-05-24T09:36:32.000Z</time>
      </trkpt>
      <trkpt lat="43.10252" lon="0.2725">
        <ele>325.88</ele>
        <time>2026-05-24T09:36:36.000Z</time>
      </trkpt>
      <trkpt lat="43.10241" lon="0.2727">
        <ele>327.61</ele>
        <time>2026-05-24T09:36:42.000Z</time>
      </trkpt>
      <trkpt lat="43.10229" lon="0.27305">
        <ele>322.7</ele>
        <time>2026-05-24T09:36:49.000Z</time>
      </trkpt>
      <trkpt lat="43.10237" lon="0.2732">
        <ele>324.67</ele>
        <time>2026-05-24T09:37:05.000Z</time>
      </trkpt>
      <trkpt lat="43.10247" lon="0.27344">
        <ele>322.51</ele>
        <time>2026-05-24T09:37:09.000Z</time>
      </trkpt>
      <trkpt lat="43.10246" lon="0.27372">
        <ele>322.02</ele>
        <time>2026-05-24T09:37:14.000Z</time>
      </trkpt>
      <trkpt lat="43.10232" lon="0.27387">
        <ele>325.79</ele>
        <time>2026-05-24T09:37:33.000Z</time>
      </trkpt>
      <trkpt lat="43.10218" lon="0.27403">
        <ele>330.6</ele>
        <time>2026-05-24T09:38:32.000Z</time>
      </trkpt>
      <trkpt lat="43.10203" lon="0.2742">
        <ele>330.84</ele>
        <time>2026-05-24T09:38:42.000Z</time>
      </trkpt>
      <trkpt lat="43.1019" lon="0.27436">
        <ele>331.5</ele>
        <time>2026-05-24T09:38:54.000Z</time>
      </trkpt>
      <trkpt lat="43.10175" lon="0.27453">
        <ele>334.11</ele>
        <time>2026-05-24T09:39:07.000Z</time>
      </trkpt>
      <trkpt lat="43.1016" lon="0.27468">
        <ele>336.05</ele>
        <time>2026-05-24T09:39:20.000Z</time>
      </trkpt>
      <trkpt lat="43.10144" lon="0.27481">
        <ele>336.23</ele>
        <time>2026-05-24T09:39:32.000Z</time>
      </trkpt>
      <trkpt lat="43.10121" lon="0.2749">
        <ele>341.4</ele>
        <time>2026-05-24T09:39:44.000Z</time>
      </trkpt>
      <trkpt lat="43.10107" lon="0.27481">
        <ele>338.84</ele>
        <time>2026-05-24T09:39:57.000Z</time>
      </trkpt>
      <trkpt lat="43.10093" lon="0.27459">
        <ele>338.1</ele>
        <time>2026-05-24T09:40:02.000Z</time>
      </trkpt>
      <trkpt lat="43.10078" lon="0.27446">
        <ele>337.8</ele>
        <time>2026-05-24T09:40:07.000Z</time>
      </trkpt>
      <trkpt lat="43.10069" lon="0.2744">
        <ele>342.72</ele>
        <time>2026-05-24T09:40:39.000Z</time>
      </trkpt>
      <trkpt lat="43.10075" lon="0.27415">
        <ele>346.49</ele>
        <time>2026-05-24T09:40:48.000Z</time>
      </trkpt>
      <trkpt lat="43.10069" lon="0.2739">
        <ele>349.63</ele>
        <time>2026-05-24T09:41:03.000Z</time>
      </trkpt>
      <trkpt lat="43.1006" lon="0.27368">
        <ele>354.51</ele>
        <time>2026-05-24T09:41:27.000Z</time>
      </trkpt>
      <trkpt lat="43.10044" lon="0.27354">
        <ele>353.35</ele>
        <time>2026-05-24T09:41:42.000Z</time>
      </trkpt>
      <trkpt lat="43.10036" lon="0.2733">
        <ele>358.59</ele>
        <time>2026-05-24T09:41:58.000Z</time>
      </trkpt>
      <trkpt lat="43.10029" lon="0.27306">
        <ele>360.77</ele>
        <time>2026-05-24T09:42:09.000Z</time>
      </trkpt>
      <trkpt lat="43.10015" lon="0.27288">
        <ele>357.7</ele>
        <time>2026-05-24T09:42:16.000Z</time>
      </trkpt>
      <trkpt lat="43.10013" lon="0.27261">
        <ele>361.57</ele>
        <time>2026-05-24T09:42:26.000Z</time>
      </trkpt>
      <trkpt lat="43.1001" lon="0.27236">
        <ele>355.61</ele>
        <time>2026-05-24T09:42:30.000Z</time>
      </trkpt>
      <trkpt lat="43.09999" lon="0.27211">
        <ele>352.13</ele>
        <time>2026-05-24T09:42:33.000Z</time>
      </trkpt>
      <trkpt lat="43.09995" lon="0.27182">
        <ele>352.25</ele>
        <time>2026-05-24T09:42:38.000Z</time>
      </trkpt>
      <trkpt lat="43.09988" lon="0.27159">
        <ele>347.6</ele>
        <time>2026-05-24T09:42:41.000Z</time>
      </trkpt>
      <trkpt lat="43.09976" lon="0.27143">
        <ele>348.18</ele>
        <time>2026-05-24T09:42:45.000Z</time>
      </trkpt>
      <trkpt lat="43.0998" lon="0.27115">
        <ele>350.37</ele>
        <time>2026-05-24T09:42:53.000Z</time>
      </trkpt>
      <trkpt lat="43.09991" lon="0.2709">
        <ele>348.89</ele>
        <time>2026-05-24T09:42:56.000Z</time>
      </trkpt>
      <trkpt lat="43.09994" lon="0.27064">
        <ele>347.72</ele>
        <time>2026-05-24T09:42:59.000Z</time>
      </trkpt>
      <trkpt lat="43.09995" lon="0.27037">
        <ele>350.11</ele>
        <time>2026-05-24T09:43:02.000Z</time>
      </trkpt>
      <trkpt lat="43.09988" lon="0.27014">
        <ele>347.15</ele>
        <time>2026-05-24T09:43:05.000Z</time>
      </trkpt>
      <trkpt lat="43.09979" lon="0.2699">
        <ele>350.11</ele>
        <time>2026-05-24T09:43:10.000Z</time>
      </trkpt>
      <trkpt lat="43.09978" lon="0.26963">
        <ele>346.17</ele>
        <time>2026-05-24T09:43:16.000Z</time>
      </trkpt>
      <trkpt lat="43.09987" lon="0.26938">
        <ele>349.17</ele>
        <time>2026-05-24T09:43:26.000Z</time>
      </trkpt>
      <trkpt lat="43.09984" lon="0.26914">
        <ele>348.65</ele>
        <time>2026-05-24T09:43:31.000Z</time>
      </trkpt>
      <trkpt lat="43.0998" lon="0.26885">
        <ele>348.22</ele>
        <time>2026-05-24T09:43:36.000Z</time>
      </trkpt>
      <trkpt lat="43.09973" lon="0.26856">
        <ele>348.48</ele>
        <time>2026-05-24T09:43:41.000Z</time>
      </trkpt>
      <trkpt lat="43.09958" lon="0.26831">
        <ele>347.42</ele>
        <time>2026-05-24T09:43:45.000Z</time>
      </trkpt>
      <trkpt lat="43.09945" lon="0.26807">
        <ele>344.53</ele>
        <time>2026-05-24T09:43:49.000Z</time>
      </trkpt>
      <trkpt lat="43.09935" lon="0.2678">
        <ele>341.09</ele>
        <time>2026-05-24T09:43:52.000Z</time>
      </trkpt>
      <trkpt lat="43.09923" lon="0.26753">
        <ele>338.02</ele>
        <time>2026-05-24T09:43:55.000Z</time>
      </trkpt>
      <trkpt lat="43.09915" lon="0.26724">
        <ele>337.6</ele>
        <time>2026-05-24T09:43:58.000Z</time>
      </trkpt>
      <trkpt lat="43.09901" lon="0.26707">
        <ele>332.15</ele>
        <time>2026-05-24T09:44:01.000Z</time>
      </trkpt>
      <trkpt lat="43.09906" lon="0.2668">
        <ele>338.86</ele>
        <time>2026-05-24T09:44:55.000Z</time>
      </trkpt>
      <trkpt lat="43.09889" lon="0.26669">
        <ele>335.85</ele>
        <time>2026-05-24T09:45:14.000Z</time>
      </trkpt>
      <trkpt lat="43.09873" lon="0.26657">
        <ele>339.36</ele>
        <time>2026-05-24T09:45:30.000Z</time>
      </trkpt>
      <trkpt lat="43.09855" lon="0.26662">
        <ele>346.51</ele>
        <time>2026-05-24T09:45:56.000Z</time>
      </trkpt>
      <trkpt lat="43.09854" lon="0.26637">
        <ele>348.08</ele>
        <time>2026-05-24T09:46:33.000Z</time>
      </trkpt>
      <trkpt lat="43.09844" lon="0.26615">
        <ele>347.06</ele>
        <time>2026-05-24T09:46:41.000Z</time>
      </trkpt>
      <trkpt lat="43.0983" lon="0.26595">
        <ele>347.25</ele>
        <time>2026-05-24T09:46:48.000Z</time>
      </trkpt>
      <trkpt lat="43.09816" lon="0.26578">
        <ele>347.74</ele>
        <time>2026-05-24T09:46:56.000Z</time>
      </trkpt>
      <trkpt lat="43.09807" lon="0.26556">
        <ele>349.82</ele>
        <time>2026-05-24T09:47:02.000Z</time>
      </trkpt>
      <trkpt lat="43.09795" lon="0.26531">
        <ele>348.11</ele>
        <time>2026-05-24T09:47:08.000Z</time>
      </trkpt>
      <trkpt lat="43.09776" lon="0.26508">
        <ele>344.73</ele>
        <time>2026-05-24T09:47:11.000Z</time>
      </trkpt>
      <trkpt lat="43.09756" lon="0.265">
        <ele>341.92</ele>
        <time>2026-05-24T09:47:15.000Z</time>
      </trkpt>
      <trkpt lat="43.09735" lon="0.2649">
        <ele>341.1</ele>
        <time>2026-05-24T09:47:19.000Z</time>
      </trkpt>
      <trkpt lat="43.09717" lon="0.26481">
        <ele>339.67</ele>
        <time>2026-05-24T09:47:23.000Z</time>
      </trkpt>
      <trkpt lat="43.09699" lon="0.2647">
        <ele>340.44</ele>
        <time>2026-05-24T09:47:29.000Z</time>
      </trkpt>
      <trkpt lat="43.09682" lon="0.26451">
        <ele>341.3</ele>
        <time>2026-05-24T09:47:34.000Z</time>
      </trkpt>
      <trkpt lat="43.09662" lon="0.26439">
        <ele>339.06</ele>
        <time>2026-05-24T09:47:37.000Z</time>
      </trkpt>
      <trkpt lat="43.09643" lon="0.26427">
        <ele>338.61</ele>
        <time>2026-05-24T09:47:40.000Z</time>
      </trkpt>
      <trkpt lat="43.09625" lon="0.26413">
        <ele>336.86</ele>
        <time>2026-05-24T09:47:44.000Z</time>
      </trkpt>
      <trkpt lat="43.09607" lon="0.26404">
        <ele>336.3</ele>
        <time>2026-05-24T09:47:48.000Z</time>
      </trkpt>
      <trkpt lat="43.09587" lon="0.26401">
        <ele>333.2</ele>
        <time>2026-05-24T09:47:53.000Z</time>
      </trkpt>
      <trkpt lat="43.09568" lon="0.26397">
        <ele>333.32</ele>
        <time>2026-05-24T09:47:58.000Z</time>
      </trkpt>
      <trkpt lat="43.09548" lon="0.26401">
        <ele>332.86</ele>
        <time>2026-05-24T09:48:03.000Z</time>
      </trkpt>
      <trkpt lat="43.09529" lon="0.26407">
        <ele>332.48</ele>
        <time>2026-05-24T09:48:08.000Z</time>
      </trkpt>
      <trkpt lat="43.09509" lon="0.26415">
        <ele>334.41</ele>
        <time>2026-05-24T09:48:13.000Z</time>
      </trkpt>
      <trkpt lat="43.09491" lon="0.26424">
        <ele>333.78</ele>
        <time>2026-05-24T09:48:18.000Z</time>
      </trkpt>
      <trkpt lat="43.09474" lon="0.26439">
        <ele>333.61</ele>
        <time>2026-05-24T09:48:23.000Z</time>
      </trkpt>
      <trkpt lat="43.09456" lon="0.26453">
        <ele>333.36</ele>
        <time>2026-05-24T09:48:30.000Z</time>
      </trkpt>
      <trkpt lat="43.0944" lon="0.26471">
        <ele>333.11</ele>
        <time>2026-05-24T09:48:35.000Z</time>
      </trkpt>
      <trkpt lat="43.09421" lon="0.26477">
        <ele>334.11</ele>
        <time>2026-05-24T09:48:39.000Z</time>
      </trkpt>
      <trkpt lat="43.09405" lon="0.26489">
        <ele>336.39</ele>
        <time>2026-05-24T09:48:44.000Z</time>
      </trkpt>
      <trkpt lat="43.09396" lon="0.26516">
        <ele>336.46</ele>
        <time>2026-05-24T09:48:49.000Z</time>
      </trkpt>
      <trkpt lat="43.09388" lon="0.26541">
        <ele>340.23</ele>
        <time>2026-05-24T09:48:54.000Z</time>
      </trkpt>
      <trkpt lat="43.09379" lon="0.26565">
        <ele>341.24</ele>
        <time>2026-05-24T09:48:59.000Z</time>
      </trkpt>
      <trkpt lat="43.09371" lon="0.26593">
        <ele>339.63</ele>
        <time>2026-05-24T09:49:04.000Z</time>
      </trkpt>
      <trkpt lat="43.09363" lon="0.26618">
        <ele>340.49</ele>
        <time>2026-05-24T09:49:09.000Z</time>
      </trkpt>
      <trkpt lat="43.09356" lon="0.26641">
        <ele>345.64</ele>
        <time>2026-05-24T09:49:16.000Z</time>
      </trkpt>
      <trkpt lat="43.09348" lon="0.26667">
        <ele>335.2</ele>
        <time>2026-05-24T09:49:23.000Z</time>
      </trkpt>
      <trkpt lat="43.09342" lon="0.26693">
        <ele>346.36</ele>
        <time>2026-05-24T09:49:29.000Z</time>
      </trkpt>
      <trkpt lat="43.09336" lon="0.26731">
        <ele>343.97</ele>
        <time>2026-05-24T09:49:30.000Z</time>
      </trkpt>
      <trkpt lat="43.09329" lon="0.26758">
        <ele>343.12</ele>
        <time>2026-05-24T09:49:35.000Z</time>
      </trkpt>
      <trkpt lat="43.09323" lon="0.26786">
        <ele>342.57</ele>
        <time>2026-05-24T09:49:40.000Z</time>
      </trkpt>
      <trkpt lat="43.09316" lon="0.26815">
        <ele>342.08</ele>
        <time>2026-05-24T09:49:45.000Z</time>
      </trkpt>
      <trkpt lat="43.0931" lon="0.26845">
        <ele>343.65</ele>
        <time>2026-05-24T09:49:50.000Z</time>
      </trkpt>
      <trkpt lat="43.09306" lon="0.2687">
        <ele>343.39</ele>
        <time>2026-05-24T09:49:54.000Z</time>
      </trkpt>
      <trkpt lat="43.09301" lon="0.26893">
        <ele>342.31</ele>
        <time>2026-05-24T09:49:58.000Z</time>
      </trkpt>
      <trkpt lat="43.0929" lon="0.2692">
        <ele>343.29</ele>
        <time>2026-05-24T09:50:03.000Z</time>
      </trkpt>
      <trkpt lat="43.09283" lon="0.26945">
        <ele>343.24</ele>
        <time>2026-05-24T09:50:07.000Z</time>
      </trkpt>
      <trkpt lat="43.09275" lon="0.26967">
        <ele>343.4</ele>
        <time>2026-05-24T09:50:11.000Z</time>
      </trkpt>
      <trkpt lat="43.09269" lon="0.26994">
        <ele>343.55</ele>
        <time>2026-05-24T09:50:15.000Z</time>
      </trkpt>
      <trkpt lat="43.0926" lon="0.2702">
        <ele>340.81</ele>
        <time>2026-05-24T09:50:19.000Z</time>
      </trkpt>
      <trkpt lat="43.09252" lon="0.2705">
        <ele>339.47</ele>
        <time>2026-05-24T09:50:23.000Z</time>
      </trkpt>
      <trkpt lat="43.09242" lon="0.27077">
        <ele>338.53</ele>
        <time>2026-05-24T09:50:27.000Z</time>
      </trkpt>
      <trkpt lat="43.09236" lon="0.27103">
        <ele>337.53</ele>
        <time>2026-05-24T09:50:31.000Z</time>
      </trkpt>
      <trkpt lat="43.09228" lon="0.27131">
        <ele>340.01</ele>
        <time>2026-05-24T09:50:36.000Z</time>
      </trkpt>
      <trkpt lat="43.09222" lon="0.27155">
        <ele>335.83</ele>
        <time>2026-05-24T09:50:40.000Z</time>
      </trkpt>
      <trkpt lat="43.09216" lon="0.27182">
        <ele>336.1</ele>
        <time>2026-05-24T09:50:44.000Z</time>
      </trkpt>
      <trkpt lat="43.09209" lon="0.27208">
        <ele>337.7</ele>
        <time>2026-05-24T09:50:48.000Z</time>
      </trkpt>
      <trkpt lat="43.092" lon="0.27237">
        <ele>338.23</ele>
        <time>2026-05-24T09:50:53.000Z</time>
      </trkpt>
      <trkpt lat="43.09195" lon="0.27262">
        <ele>338.18</ele>
        <time>2026-05-24T09:50:57.000Z</time>
      </trkpt>
      <trkpt lat="43.0919" lon="0.27287">
        <ele>337.53</ele>
        <time>2026-05-24T09:51:01.000Z</time>
      </trkpt>
      <trkpt lat="43.0918" lon="0.27314">
        <ele>342.32</ele>
        <time>2026-05-24T09:51:06.000Z</time>
      </trkpt>
      <trkpt lat="43.0917" lon="0.27339">
        <ele>344.42</ele>
        <time>2026-05-24T09:51:11.000Z</time>
      </trkpt>
      <trkpt lat="43.09162" lon="0.27363">
        <ele>343.35</ele>
        <time>2026-05-24T09:51:15.000Z</time>
      </trkpt>
      <trkpt lat="43.09155" lon="0.27387">
        <ele>344.17</ele>
        <time>2026-05-24T09:51:19.000Z</time>
      </trkpt>
      <trkpt lat="43.09147" lon="0.27412">
        <ele>345.34</ele>
        <time>2026-05-24T09:51:23.000Z</time>
      </trkpt>
      <trkpt lat="43.09137" lon="0.27437">
        <ele>343.26</ele>
        <time>2026-05-24T09:51:28.000Z</time>
      </trkpt>
      <trkpt lat="43.0913" lon="0.27463">
        <ele>345.15</ele>
        <time>2026-05-24T09:51:33.000Z</time>
      </trkpt>
      <trkpt lat="43.0912" lon="0.27488">
        <ele>345.53</ele>
        <time>2026-05-24T09:51:38.000Z</time>
      </trkpt>
      <trkpt lat="43.09112" lon="0.27516">
        <ele>345.29</ele>
        <time>2026-05-24T09:51:43.000Z</time>
      </trkpt>
      <trkpt lat="43.09104" lon="0.2754">
        <ele>346.72</ele>
        <time>2026-05-24T09:51:47.000Z</time>
      </trkpt>
      <trkpt lat="43.09095" lon="0.27569">
        <ele>348.22</ele>
        <time>2026-05-24T09:51:52.000Z</time>
      </trkpt>
      <trkpt lat="43.09089" lon="0.27595">
        <ele>348.57</ele>
        <time>2026-05-24T09:51:56.000Z</time>
      </trkpt>
      <trkpt lat="43.09081" lon="0.27618">
        <ele>348.01</ele>
        <time>2026-05-24T09:52:00.000Z</time>
      </trkpt>
      <trkpt lat="43.09073" lon="0.27642">
        <ele>349.35</ele>
        <time>2026-05-24T09:52:04.000Z</time>
      </trkpt>
      <trkpt lat="43.09064" lon="0.27669">
        <ele>350.04</ele>
        <time>2026-05-24T09:52:08.000Z</time>
      </trkpt>
      <trkpt lat="43.09054" lon="0.27694">
        <ele>350.96</ele>
        <time>2026-05-24T09:52:12.000Z</time>
      </trkpt>
      <trkpt lat="43.09044" lon="0.27719">
        <ele>350.98</ele>
        <time>2026-05-24T09:52:16.000Z</time>
      </trkpt>
      <trkpt lat="43.09034" lon="0.27743">
        <ele>351.33</ele>
        <time>2026-05-24T09:52:20.000Z</time>
      </trkpt>
      <trkpt lat="43.09024" lon="0.27765">
        <ele>351.42</ele>
        <time>2026-05-24T09:52:24.000Z</time>
      </trkpt>
      <trkpt lat="43.09012" lon="0.27791">
        <ele>350.92</ele>
        <time>2026-05-24T09:52:28.000Z</time>
      </trkpt>
      <trkpt lat="43.09001" lon="0.27816">
        <ele>348.21</ele>
        <time>2026-05-24T09:52:32.000Z</time>
      </trkpt>
      <trkpt lat="43.08988" lon="0.27837">
        <ele>348.64</ele>
        <time>2026-05-24T09:52:36.000Z</time>
      </trkpt>
      <trkpt lat="43.08972" lon="0.27859">
        <ele>348.81</ele>
        <time>2026-05-24T09:52:40.000Z</time>
      </trkpt>
      <trkpt lat="43.08958" lon="0.27879">
        <ele>349.36</ele>
        <time>2026-05-24T09:52:44.000Z</time>
      </trkpt>
      <trkpt lat="43.08939" lon="0.27897">
        <ele>348.19</ele>
        <time>2026-05-24T09:52:48.000Z</time>
      </trkpt>
      <trkpt lat="43.08922" lon="0.27913">
        <ele>348.62</ele>
        <time>2026-05-24T09:52:52.000Z</time>
      </trkpt>
      <trkpt lat="43.08904" lon="0.27928">
        <ele>349.65</ele>
        <time>2026-05-24T09:52:56.000Z</time>
      </trkpt>
      <trkpt lat="43.08886" lon="0.27945">
        <ele>348.68</ele>
        <time>2026-05-24T09:53:00.000Z</time>
      </trkpt>
      <trkpt lat="43.08867" lon="0.2796">
        <ele>350.11</ele>
        <time>2026-05-24T09:53:05.000Z</time>
      </trkpt>
      <trkpt lat="43.08847" lon="0.27971">
        <ele>351.01</ele>
        <time>2026-05-24T09:53:09.000Z</time>
      </trkpt>
      <trkpt lat="43.08829" lon="0.2798">
        <ele>351.04</ele>
        <time>2026-05-24T09:53:13.000Z</time>
      </trkpt>
      <trkpt lat="43.08808" lon="0.27988">
        <ele>350.9</ele>
        <time>2026-05-24T09:53:17.000Z</time>
      </trkpt>
      <trkpt lat="43.08786" lon="0.28003">
        <ele>349.04</ele>
        <time>2026-05-24T09:53:22.000Z</time>
      </trkpt>
      <trkpt lat="43.08763" lon="0.28009">
        <ele>346.09</ele>
        <time>2026-05-24T09:53:26.000Z</time>
      </trkpt>
      <trkpt lat="43.08744" lon="0.28015">
        <ele>346.56</ele>
        <time>2026-05-24T09:53:30.000Z</time>
      </trkpt>
      <trkpt lat="43.08725" lon="0.28026">
        <ele>347.21</ele>
        <time>2026-05-24T09:53:34.000Z</time>
      </trkpt>
      <trkpt lat="43.08707" lon="0.28036">
        <ele>348.65</ele>
        <time>2026-05-24T09:53:38.000Z</time>
      </trkpt>
      <trkpt lat="43.08686" lon="0.2805">
        <ele>348.56</ele>
        <time>2026-05-24T09:53:42.000Z</time>
      </trkpt>
      <trkpt lat="43.08665" lon="0.28063">
        <ele>348.48</ele>
        <time>2026-05-24T09:53:46.000Z</time>
      </trkpt>
      <trkpt lat="43.08645" lon="0.28076">
        <ele>349.2</ele>
        <time>2026-05-24T09:53:50.000Z</time>
      </trkpt>
      <trkpt lat="43.0863" lon="0.28089">
        <ele>348.78</ele>
        <time>2026-05-24T09:53:54.000Z</time>
      </trkpt>
      <trkpt lat="43.08615" lon="0.28107">
        <ele>345.39</ele>
        <time>2026-05-24T09:53:58.000Z</time>
      </trkpt>
      <trkpt lat="43.08604" lon="0.28127">
        <ele>345.07</ele>
        <time>2026-05-24T09:54:02.000Z</time>
      </trkpt>
      <trkpt lat="43.08591" lon="0.28148">
        <ele>340.77</ele>
        <time>2026-05-24T09:54:06.000Z</time>
      </trkpt>
      <trkpt lat="43.0858" lon="0.28174">
        <ele>345.2</ele>
        <time>2026-05-24T09:54:11.000Z</time>
      </trkpt>
      <trkpt lat="43.0857" lon="0.28195">
        <ele>346.21</ele>
        <time>2026-05-24T09:54:15.000Z</time>
      </trkpt>
      <trkpt lat="43.08558" lon="0.28217">
        <ele>347.67</ele>
        <time>2026-05-24T09:54:19.000Z</time>
      </trkpt>
      <trkpt lat="43.08545" lon="0.28234">
        <ele>348.44</ele>
        <time>2026-05-24T09:54:25.000Z</time>
      </trkpt>
    </trkseg>
  </trk>
</gpx>